[[{"header":{"parameterUnit":"m.s-1","parameterCategory":1,"la1":31.0,"la2":29.5877,"lo1":-88.7671,"lo2":-86.6584,"dy":0.0162,"dx":0.0185,"nx":115,"ny":88,"refTime":"2023-09-23T12:00:00:Z","depth":0,"parameterNumber":2,"parameterNumberName":"U-component_of_WINDS"},"data":[0.0,0.0,0.0,0.0,0.0,0.0,0.0,0.0,0.0,0.0,0.0,0.0,0.0,0.0,0.0,0.0,0.0,0.0,0.0,0.0,0.0,0.0,0.0,0.0,0.0,0.0,0.0,0.0,0.0,0.0,0.0,0.0,0.0,0.0,0.0,0.0,0.0,0.0,0.0,0.0,0.0,0.0,0.0,0.0,0.0,0.0,0.0,0.0,0.0,0.0,0.0,0.0,0.0,0.0,0.0,0.0,0.0,0.0,0.0,0.0,0.0,0.0,0.0,0.0,0.0,0.0,0.0,0.0,0.0,0.0,0.0,0.0,0.0,0.0,0.0,0.0,0.0,0.0,0.0,0.0,0.0,0.0,0.0,0.0,0.0,0.0,0.0,0.0,0.0,0.0,0.0,0.0,0.0,0.0,0.0,0.0,0.0,0.0,0.0,0.0,0.0,0.0,0.0,0.0,0.0,0.0,0.0,0.0,0.0,0.0,0.0,0.0,0.0,0.0,0.0,0.0,0.0,0.0,0.0,0.0,0.0,0.0,0.0,0.0,0.0,0.0,0.0,0.0,0.0,0.0,0.0,0.0,0.0,0.0,0.0,0.0,0.0,0.0,0.0,0.0,0.0,0.0,0.0,0.0,0.0,0.0,0.0,0.0,0.0,0.0,0.0,0.0,0.0,0.0,0.0,0.0,0.0,0.0,0.0,0.0,0.0,0.0,0.0,0.0,0.0,0.0,0.0,0.0,0.0,0.0,0.0,0.0,0.0,0.0,0.0,0.0,0.0,0.0,0.0,0.0,0.0,0.0,0.0,0.0,0.0,0.0,0.0,0.0,0.0,0.0,0.0,0.0,0.0,0.0,0.0,0.0,0.0,0.0,0.0,0.0,0.0,0.0,0.0,0.0,0.0,0.0,0.0,0.0,0.0,0.0,0.0,0.0,0.0,0.0,0.0,0.0,0.0,0.0,0.0,0.0,0.0,0.0,0.0,0.0,0.0,0.0,0.0,0.0,0.0,0.0,0.0,0.0,0.0,0.0,0.0,0.0,0.0,0.0,0.0,0.0,0.0,0.0,0.0,0.0,0.0,0.0,0.0,0.0,0.0,0.0,0.0,0.0,0.0,0.0,0.0,0.0,0.0,0.0,0.0,0.0,0.0,0.0,0.0,0.0,0.0,0.0,0.0,0.0,0.0,0.0,0.0,0.0,0.0,0.0,0.0,0.0,0.0,0.0,0.0,0.0,0.0,0.0,0.0,0.0,0.0,0.0,0.0,0.0,0.0,0.0,0.0,0.0,0.0,0.0,0.0,0.0,0.0,0.0,0.0,0.0,0.0,0.0,0.0,0.0,0.0,0.0,0.0,0.0,0.0,0.0,0.0,0.0,0.0,0.0,0.0,0.0,0.0,0.0,0.0,0.0,0.0,0.0,0.0,0.0,0.0,0.0,0.0,0.0,0.0,0.0,0.0,0.0,0.0,0.0,0.0,0.0,0.0,0.0,0.0,0.0,0.0,0.0,0.0,0.0,0.0,0.0,0.0,0.0,0.0,0.0,0.0,0.0,0.0,0.0,0.0,0.0,0.0,0.0,0.0,0.0,0.0,0.0,0.0,0.0,0.0,0.0,0.0,0.0,0.0,0.0,0.0,0.0,0.0,0.0,0.0,0.0,0.0,0.0,0.0,0.0,0.0,0.0,0.0,0.0,0.0,0.0,0.0,0.0,0.0,0.0,0.0,0.0,0.0,0.0,0.0,0.0,0.0,0.0,0.0,0.0,0.0,0.0,0.0,0.0,0.0,0.0,0.0,0.0,0.0,0.0,0.0,0.0,0.0,0.0,0.0,0.0,0.0,0.0,0.0,0.0,0.0,0.0,0.0,0.0,0.0,0.0,0.0,0.0,0.0,0.0,0.0,0.0,0.0,0.0,0.0,0.0,0.0,0.0,0.0,0.0,0.0,0.0,0.0,0.0,0.0,0.0,0.0,0.0,0.0,0.0,0.0,0.0,0.0,0.0,0.0,0.0,0.0,0.0,0.0,0.0,0.0,0.0,0.0,0.0,0.0,0.0,0.0,0.0,0.0,0.0,0.0,0.0,0.0,0.0,0.0,0.0,0.0,0.0,0.0,0.0,0.0,0.0,0.0,0.0,0.0,0.0,0.0,0.0,0.0,0.0,0.0,0.0,0.0,0.0,0.0,0.0,0.0,0.0,0.0,0.0,0.0,0.0,0.0,0.0,0.0,0.0,0.0,0.0,0.0,0.0,0.0,0.0,0.0,0.0,0.0,0.0,0.0,0.0,0.0,0.0,0.0,0.0,0.0,0.0,0.0,0.0,0.0,0.0,0.0,0.0,0.0,0.0,0.0,0.0,0.0,0.0,0.0,0.0,0.0,0.0,0.0,0.0,0.0,0.0,0.0,0.0,0.0,0.0,0.0,0.0,0.0,0.0,0.0,0.0,0.0,0.0,0.0,0.0,0.0,0.0,0.0,0.0,0.0,0.0,0.0,0.0,0.0,0.0,0.0,0.0,0.0,0.0,0.0,0.0,0.0,0.0,0.0,0.0,0.0,0.0,0.0,0.0,0.0,0.0,0.0,0.0,0.0,0.0,0.0,0.0,0.0,0.0,0.0,0.0,0.0,0.0,0.0,0.0,0.0,0.0,0.0,0.0,0.0,0.0,0.0,0.0,0.0,0.0,0.0,0.0,0.0,0.0,0.0,0.0,0.0,0.0,0.0,0.0,0.0,0.0,0.0,0.0,0.0,0.0,0.0,0.0,0.0,0.0,0.0,0.0,0.0,0.0,0.0,0.0,0.0,0.0,0.0,0.0,0.0,0.0,0.0,0.0,0.0,0.0,0.0,0.0,0.0,0.0,0.0,0.0,0.0,0.0,0.0,0.0,0.0,0.0,0.0,0.0,0.0,0.0,0.0,0.0,0.0,0.0,0.0,0.0,0.0,0.0,0.0,0.0,0.0,0.0,0.0,0.0,0.0,0.0,0.0,0.0,0.0,0.0,0.0,0.0,0.0,0.0,0.0,0.0,0.0,0.0,0.0,0.0,0.0,0.0,0.0,0.0,0.0,0.0,0.0,0.0,0.0,0.0,0.0,0.0,0.0,0.0,0.0,0.0,0.0,0.0,0.0,0.0,0.0,0.0,0.0,0.0,0.0,0.0,0.0,0.0,0.0,0.0,0.0,0.0,0.0,0.0,0.0,0.0,0.0,0.0,0.0,0.0,0.0,0.0,0.0,0.0,0.0,0.0,0.0,0.0,0.0,0.0,0.0,0.0,0.0,0.0,0.0,0.0,0.0,0.0,0.0,0.0,0.0,0.0,0.0,0.0,0.0,0.0,0.0,0.0,0.0,0.0,0.0,0.0,0.0,0.0,0.0,0.0,0.0,0.0,0.0,0.0,0.0,0.0,0.0,0.0,0.0,0.0,0.0,0.0,0.0,0.0,0.0,0.0,0.0,0.0,0.0,0.0,0.0,0.0,0.0,0.0,0.0,0.0,0.0,0.0,0.0,0.0,0.0,0.0,0.0,0.0,0.0,0.0,0.0,0.0,0.0,0.0,0.0,0.0,0.0,0.0,0.0,0.0,0.0,0.0,0.0,0.0,0.0,0.0,0.0,0.0,0.0,0.0,0.0,0.0,0.0,0.0,0.0,0.0,0.0,0.0,0.0,0.0,0.0,0.0,0.0,0.0,0.0,0.0,0.0,0.0,0.0,0.0,0.0,0.0,0.0,0.0,0.0,0.0,0.0,0.0,0.0,0.0,0.0,0.0,0.0,0.0,0.0,0.0,0.0,0.0,0.0,0.0,0.0,0.0,0.0,0.0,0.0,0.0,0.0,0.0,0.0,0.0,0.0,0.0,0.0,0.0,0.0,0.0,0.0,0.0,0.0,0.0,0.0,0.0,0.0,0.0,0.0,0.0,0.0,0.0,0.0,0.0,0.0,0.0,0.0,0.0,0.0,0.0,0.0,0.0,0.0,0.0,0.0,0.0,0.0,0.0,0.0,0.0,0.0,0.0,0.0,0.0,0.0,0.0,0.0,0.0,0.0,0.0,0.0,0.0,0.0,0.0,0.0,0.0,0.0,0.0,0.0,0.0,0.0,0.0,0.0,0.0,0.0,0.0,0.0,0.0,0.0,0.0,0.0,0.0,0.0,0.0,0.0,0.0,0.0,0.0,0.0,0.0,0.0,0.0,0.0,0.0,0.0,0.0,0.0,0.0,0.0,0.0,0.0,0.0,0.0,0.0,0.0,0.0,0.0,0.0,0.8628,0.0,0.0,0.0,0.0,0.0,0.0,0.0,0.0,0.0,0.0,0.0,0.0,0.0,0.0,0.0,0.0,0.0,0.0,0.0,0.0,0.0,0.0,0.0,0.0,0.0,0.0,0.0,0.0,0.0,0.0,0.0,0.0,0.0,0.0,0.0,0.0,0.0,0.0,0.0,0.0,0.0,0.0,0.0,0.0,0.0,0.0,0.0,0.0,0.0,0.0,0.0,0.0,0.0,0.0,0.0,0.0,0.0,0.0,0.0,0.0,0.0,0.0,0.0,0.0,0.0,0.0,0.0,0.0,0.0,0.0,0.0,0.0,0.0,0.0,0.0,0.0,0.0,0.0,0.0,0.0,0.0,0.0,0.0,0.0,0.0,0.0,0.0,0.0,0.0,0.0,0.0,0.0,0.0,0.0,0.0,0.0,0.0,0.0,0.0,0.0,0.0,0.0,0.0,0.0,0.0,0.0,0.0,0.0,0.0,0.0,0.8872,0.874,0.885,0.8829,0.8611,0.0,0.0,0.0,0.0,0.0,0.0,0.0,0.0,0.0,0.0,0.0,0.0,0.0,0.0,0.0,0.0,0.0,0.0,0.0,0.0,0.0,0.0,0.0,0.0,0.0,0.0,0.0,0.0,0.0,0.0,0.0,0.0,0.0,0.0,0.0,0.0,0.0,0.0,0.0,0.0,0.0,0.0,0.0,0.0,0.0,0.0,0.0,0.0,0.0,0.0,0.0,0.0,0.0,0.0,0.0,0.0,0.0,0.0,0.0,0.0,0.0,0.0,0.0,0.0,0.0,0.0,0.0,0.0,0.0,0.0,0.0,0.0,0.0,0.0,0.0,0.0,0.0,0.0,0.0,0.0,0.0,0.0,0.0,0.0,0.0,0.0,0.0,0.0,0.0,0.0,0.0,0.0,0.0,0.0,0.0,0.0,0.0,0.0,0.0,0.0,0.0,0.0,0.0,0.0,0.0,0.0,0.0,0.0,0.0,0.0,0.0,0.0,0.8616,0.8549,0.846,0.0,0.0,0.0,0.0,0.0,0.0,0.0,0.0,0.0,0.0,0.0,0.0,0.0,0.0,0.0,0.0,0.0,0.0,0.0,0.0,0.0,0.0,0.0,0.0,0.0,0.0,0.0,0.0,0.0,0.0,0.0,0.0,0.0,0.0,0.0,0.0,0.0,0.0,0.0,0.0,0.0,0.0,0.0,0.0,0.0,0.0,0.0,0.0,0.0,0.0,0.0,0.0,0.0,0.0,0.0,0.0,0.0,0.0,0.0,0.0,0.0,0.0,0.0,0.0,0.0,0.0,0.0,0.0,0.0,0.0,0.0,0.0,0.0,0.0,0.0,0.0,0.0,0.0,0.0,0.0,0.0,0.0,0.0,0.0,0.0,0.0,0.0,0.0,0.0,0.0,0.0,0.0,0.0,0.0,0.0,0.0,0.0,0.0,0.0,0.0,0.0,0.0,0.0,0.0,0.0,0.0,0.0,0.0,0.0,0.0,0.8616,0.8616,0.8616,0.0,0.8089,0.0,0.0,0.0,0.0,0.0,0.0,0.0,0.0,0.0,0.0,0.0,0.0,0.0,0.0,0.0,0.0,0.0,0.0,0.0,0.0,0.0,0.0,0.0,0.0,0.0,0.0,0.0,0.0,0.0,0.0,0.0,0.0,0.0,0.0,0.0,0.0,0.0,0.0,0.0,0.0,0.0,0.0,0.0,0.0,0.0,0.0,0.0,0.0,0.0,0.0,0.0,0.0,0.0,0.0,0.0,0.0,0.0,0.0,0.0,0.0,0.0,0.0,0.0,0.0,0.0,0.0,0.0,0.0,0.0,0.0,0.0,0.0,0.0,0.0,0.0,0.0,0.0,0.0,0.0,0.0,0.0,0.0,0.0,0.0,0.0,0.0,0.0,0.0,0.0,0.0,0.0,0.0,0.0,0.0,0.0,0.0,0.0,0.0,0.0,0.0,0.0,0.0,0.0,0.0,0.0,0.0,0.0,0.0,0.0,0.0,0.8616,0.8616,0.8616,0.8446,0.0,0.0,0.0,0.0,0.0,0.0,0.0,0.0,0.0,0.0,0.0,0.0,0.0,0.0,0.0,0.0,0.0,0.0,0.0,0.0,0.0,0.0,0.0,0.0,0.0,0.0,0.0,0.0,0.0,0.0,0.0,0.0,0.0,0.0,0.0,0.0,0.0,0.0,0.0,0.0,0.0,0.0,0.0,0.0,0.0,0.0,0.0,0.0,0.0,0.0,0.0,0.0,0.0,0.0,0.0,0.0,0.0,0.0,0.0,0.0,0.0,0.0,0.0,0.0,0.0,0.0,0.0,0.0,0.0,0.0,0.0,0.0,0.0,0.0,0.0,0.0,0.0,0.0,0.0,0.0,0.0,0.0,0.0,0.0,0.0,0.0,0.0,0.0,0.0,0.0,0.0,0.0,0.0,0.0,0.0,0.0,0.0,0.0,0.0,0.0,0.0,0.0,0.0,0.0,0.0,0.0,0.0,0.0,0.0,0.0,0.8616,0.8616,0.8616,0.8616,0.8505,0.8296,0.0,0.0,0.0,0.0,0.0,0.0,0.0,0.0,0.0,0.0,0.0,0.0,0.0,0.0,0.0,0.0,0.0,0.0,0.0,0.0,0.0,0.0,0.0,0.0,0.0,0.0,0.0,0.0,0.0,0.0,0.0,0.0,0.0,0.0,0.0,0.0,0.0,0.0,0.0,0.0,0.0,0.0,0.0,0.0,0.0,0.0,0.0,0.0,0.0,0.0,0.0,0.0,0.0,0.0,0.0,0.0,0.0,0.0,0.0,0.0,0.0,0.0,0.0,0.0,0.0,0.0,0.0,0.0,0.0,0.0,0.0,0.0,0.0,0.0,0.0,0.0,0.0,0.0,0.0,0.0,0.0,0.0,0.0,0.0,0.0,0.0,0.0,0.0,0.0,0.0,0.0,0.0,0.0,0.0,0.0,0.0,0.0,0.0,0.0,0.0,0.0,0.0,0.0,0.0,0.0,0.0,0.0,0.0,0.8616,0.8616,0.8616,0.8616,0.8616,0.8505,0.0,0.0,0.0,0.0,0.0,0.0,0.0,0.0,0.0,0.0,0.0,0.0,0.0,0.0,0.0,0.0,0.0,0.0,0.0,0.0,0.0,0.0,0.0,0.0,0.0,0.0,0.0,0.0,0.0,0.0,0.0,0.0,0.0,0.0,0.0,0.0,0.0,0.0,0.0,0.0,0.0,0.0,0.0,0.0,0.0,0.0,0.0,0.0,0.0,0.0,0.0,0.0,0.0,0.0,0.0,0.0,0.0,0.0,0.0,0.0,0.0,0.0,0.0,0.0,0.0,0.0,0.0,0.0,0.0,0.0,0.0,0.0,0.0,0.0,0.0,0.0,0.0,0.0,0.0,0.0,0.0,0.0,0.0,0.0,0.0,0.0,0.0,0.0,0.0,0.0,0.0,0.0,0.0,0.0,0.0,0.0,0.0,0.0,0.0,0.0,0.0,0.0,0.0,0.0,0.0,0.0,0.0,0.0,0.0,0.8616,0.8616,0.8616,0.8616,0.8616,0.8558,0.0,0.0,0.0,0.0,0.0,0.0,0.0,0.0,0.0,0.0,0.0,0.0,0.0,0.0,0.0,0.0,0.0,0.0,0.0,0.0,0.0,0.0,0.0,0.0,0.0,0.0,0.0,0.0,0.0,0.0,0.0,0.0,0.0,0.0,0.0,0.0,0.0,0.0,0.0,0.0,0.0,0.0,0.0,0.0,0.0,0.0,0.0,0.0,0.0,0.0,0.0,0.0,0.0,0.0,0.0,0.0,0.0,0.0,0.0,0.0,0.0,0.0,0.0,0.0,0.0,0.0,0.0,0.0,0.0,0.0,0.0,0.0,0.0,0.0,0.0,0.0,0.0,0.0,0.0,0.0,0.0,0.0,0.0,0.0,0.0,0.0,0.0,0.0,0.0,0.0,0.0,0.0,0.0,0.0,0.0,0.0,0.0,0.0,0.0,0.0,0.0,0.0,0.0,0.0,0.0,0.0,0.0,0.0,0.0,0.8616,0.0,0.8616,0.8616,0.8616,0.8616,0.0,0.0,0.0,0.0,0.0,0.0,0.0,0.0,0.0,0.0,0.0,0.0,0.0,0.0,0.0,0.0,0.0,0.0,0.0,0.0,0.0,0.0,0.0,0.0,0.0,0.0,0.0,0.0,0.0,0.0,0.0,0.0,0.0,0.0,0.0,0.0,0.0,0.0,0.0,0.0,0.0,0.0,0.0,0.0,0.0,0.0,0.0,0.0,0.0,0.0,0.0,0.0,0.0,0.0,0.0,0.0,0.0,0.0,0.0,0.0,0.0,0.0,0.0,0.0,0.0,0.0,0.0,0.0,0.0,0.0,0.0,0.0,0.0,0.0,0.0,0.0,0.0,0.0,0.0,0.0,0.0,0.0,0.0,0.0,0.0,0.0,0.0,0.0,0.0,0.0,0.0,0.0,0.0,0.0,0.0,0.0,0.0,0.0,0.0,0.0,0.0,0.0,0.0,0.0,0.0,0.0,0.0,0.0,0.8616,0.8616,0.8616,0.8616,0.8616,0.8616,0.8616,0.0,0.0,0.0,0.0,0.0,0.0,0.0,0.0,0.0,0.0,0.0,0.0,0.0,0.0,0.0,0.0,0.0,0.0,0.0,0.0,0.0,0.0,0.0,0.0,0.0,0.0,0.0,0.0,0.0,0.0,0.0,0.0,0.0,0.0,0.0,0.0,0.0,0.0,0.0,0.0,0.0,0.0,0.0,0.0,0.0,0.0,0.0,0.0,0.0,0.0,0.0,0.0,0.0,0.0,0.0,0.0,0.0,0.0,0.0,0.0,0.0,0.0,0.0,0.0,0.0,0.0,0.0,0.0,0.0,0.0,0.0,0.0,0.0,0.0,0.0,0.0,0.0,0.0,0.0,0.0,0.0,0.0,0.0,0.0,0.0,0.0,0.0,0.0,0.0,0.0,0.0,0.0,0.0,0.0,0.0,0.0,0.0,0.0,0.0,0.0,0.0,0.0,0.0,0.0,0.0,0.0,0.0,0.0,0.0,0.8616,0.8616,0.8616,0.8616,0.8616,0.8616,0.0,0.0,0.0,0.0,0.0,0.0,0.0,0.0,0.0,0.0,0.0,0.0,0.0,0.0,0.0,0.0,0.0,0.0,0.0,0.0,0.0,0.0,0.0,0.0,0.0,0.0,0.0,0.0,0.0,0.0,0.0,0.0,0.0,0.0,0.0,0.0,0.0,0.0,0.0,0.0,0.0,0.0,0.0,0.0,0.0,0.0,0.0,0.0,0.0,0.0,0.0,0.0,0.0,0.0,0.0,0.0,0.0,0.0,0.0,0.0,0.0,0.0,0.0,0.0,0.0,0.0,0.0,0.0,0.0,0.0,0.0,0.0,0.0,0.0,0.0,0.0,0.0,0.0,0.0,0.0,0.0,0.0,0.0,0.0,0.0,0.0,0.0,0.0,0.0,0.0,0.0,0.0,0.0,0.0,0.0,0.0,0.0,0.0,0.0,0.0,0.0,0.0,0.0,0.0,0.0,0.0,0.0,0.0,0.0,0.8684,0.8684,0.8662,0.8662,0.8684,0.8655,0.8616,0.0,0.0,0.0,0.0,0.0,0.0,0.0,0.0,0.0,0.0,0.0,0.0,0.0,0.0,0.0,0.0,0.0,0.0,0.0,0.0,0.0,0.0,0.0,0.0,0.0,0.0,0.0,0.0,0.0,0.0,0.0,0.0,0.0,0.0,0.0,0.0,0.0,0.0,0.0,0.0,0.0,0.0,0.0,0.0,0.0,0.0,0.0,0.0,0.0,0.0,0.0,0.0,0.0,0.0,0.0,0.0,0.0,0.0,0.0,0.0,0.0,0.0,0.0,0.0,0.0,0.0,0.0,0.0,0.0,0.0,0.0,0.0,0.0,0.0,0.0,0.0,0.0,0.0,0.0,0.0,0.0,0.0,0.0,0.0,0.0,0.0,0.0,0.0,0.0,0.0,0.0,0.0,0.0,0.0,0.0,0.0,0.0,0.0,0.0,0.0,0.0,0.0,0.0,0.0,0.0,0.0,0.0,0.0,0.8836,0.8822,0.8826,0.8814,0.8801,0.8724,0.0,0.0,0.0,0.0,0.0,0.0,0.0,0.0,0.0,0.0,0.0,0.0,0.0,0.0,0.0,0.0,0.0,0.0,0.0,0.0,0.0,0.0,0.0,0.0,0.0,0.0,0.0,0.0,0.0,0.0,0.0,0.0,0.0,0.0,0.0,0.0,0.0,0.0,0.0,0.0,0.0,0.0,0.0,0.0,0.0,0.0,0.0,0.0,0.0,0.0,0.0,0.0,0.0,0.0,0.0,0.0,0.0,0.0,0.0,0.0,0.0,0.0,0.0,0.0,0.0,0.0,0.0,0.0,0.0,0.0,0.0,0.0,0.0,0.0,0.0,0.0,0.0,0.0,0.0,0.0,0.0,0.0,0.0,0.0,0.0,0.0,0.0,0.0,0.0,0.0,0.0,0.0,0.0,0.0,0.0,0.0,0.0,0.0,0.0,0.0,0.0,0.0,0.0,0.0,0.0,0.0,0.0,0.0,0.0,0.9023,0.9172,0.9181,0.9027,0.887,0.88,0.0,0.0,0.0,0.0,0.0,0.0,0.0,0.0,0.0,0.0,0.0,0.0,0.0,0.0,0.0,0.0,0.0,0.0,0.0,0.0,0.0,0.0,0.0,0.0,0.0,0.0,0.0,0.0,0.0,0.0,0.0,0.0,0.0,0.0,0.0,0.0,0.0,0.0,0.0,0.0,0.0,0.0,0.0,0.0,0.0,0.0,0.0,0.0,0.0,0.0,0.0,0.0,0.0,0.0,0.0,0.0,0.0,0.0,0.0,0.0,0.0,0.0,0.0,0.0,0.0,0.0,0.0,0.0,0.0,0.0,0.0,0.0,0.0,0.0,0.0,0.0,0.0,0.0,0.0,0.0,0.0,0.0,0.0,0.0,0.0,0.0,0.0,0.0,0.0,0.0,0.0,0.0,0.0,0.0,0.0,0.0,0.0,0.0,0.0,0.0,0.0,0.0,0.0,0.0,0.0,0.0,0.0,0.0,0.8986,0.91,0.9364,0.9421,0.9319,0.9072,0.8874,0.0,0.0,0.0,0.0,0.0,0.0,0.0,0.0,0.0,0.0,0.0,0.0,0.0,0.0,0.0,0.0,0.0,0.0,0.0,0.0,0.0,0.0,0.0,0.0,0.0,0.0,0.0,0.0,0.0,0.0,0.0,0.0,0.0,0.0,0.0,0.0,0.0,0.0,0.0,0.0,0.0,0.0,0.0,0.0,0.0,0.0,0.0,0.0,0.0,0.0,0.0,0.0,0.0,0.0,0.0,0.0,0.0,0.0,0.0,0.0,0.0,0.0,0.0,0.0,0.0,0.0,0.0,0.0,0.0,0.0,0.0,0.0,0.0,0.0,0.0,0.0,0.0,0.0,0.0,0.0,0.0,0.0,0.0,0.0,0.0,0.0,0.0,0.0,0.0,0.0,0.0,0.0,0.0,0.0,0.0,0.0,0.0,0.0,0.0,0.0,0.0,0.0,0.0,0.0,0.0,0.0,0.0,0.0,0.9132,0.9129,0.9429,0.9599,0.9591,0.9283,0.9019,0.0,0.0,0.0,0.0,0.0,0.0,0.0,0.0,0.0,0.0,0.0,0.0,0.0,0.0,0.0,0.0,0.0,0.0,0.0,0.0,0.0,0.0,0.0,0.0,0.0,0.0,0.0,0.0,0.0,0.0,0.0,0.0,0.0,0.0,0.0,0.0,0.0,0.0,0.0,0.0,0.0,0.0,0.0,0.0,0.0,0.0,0.0,0.0,0.0,0.0,0.0,0.0,0.0,0.0,0.0,0.0,0.0,0.0,0.0,0.0,0.0,0.0,0.0,0.0,0.0,0.0,0.0,0.0,0.0,0.0,0.0,0.0,0.0,0.0,0.0,0.0,0.0,0.0,0.0,0.0,0.0,0.0,0.0,0.0,0.0,0.0,0.0,0.0,0.0,0.0,0.0,0.0,0.0,0.0,0.0,0.0,0.0,0.0,0.0,0.0,0.0,0.0,0.0,0.0,0.0,0.0,0.0,0.0,0.9189,0.9327,0.9514,0.9599,0.9599,0.9263,0.908,0.0,0.0,0.0,0.0,0.0,0.0,0.0,0.0,0.0,0.0,0.0,0.0,0.0,0.0,0.0,0.0,0.0,0.0,0.0,0.0,0.0,0.0,0.0,0.0,0.0,0.0,0.0,0.0,0.0,0.0,0.0,0.0,0.0,0.0,0.0,0.0,0.0,0.0,0.0,0.0,0.0,0.0,0.0,0.0,0.0,0.0,0.0,0.0,1.0854,0.0,0.0,0.0,0.0,0.0,0.0,0.0,0.0,0.0,0.0,0.0,0.0,0.0,0.0,0.0,0.0,0.0,0.0,0.0,0.0,0.0,0.0,0.0,0.0,0.0,0.0,0.0,0.0,0.0,0.0,0.0,0.0,0.0,0.0,0.0,0.0,0.0,0.0,0.0,0.0,0.0,0.0,0.0,0.0,0.0,0.0,0.0,0.0,0.0,0.0,0.0,0.0,0.0,0.0,0.0,0.0,0.0,0.0,0.0,0.9201,0.94,0.9535,0.9599,0.9591,0.936,0.9205,0.0,0.0,0.0,0.0,0.0,0.0,0.0,0.0,0.0,0.0,0.0,0.0,0.0,0.0,0.0,0.0,0.0,0.0,0.0,0.0,0.0,0.0,0.0,0.0,0.0,0.0,0.0,0.0,0.0,0.0,0.0,0.0,0.0,0.0,0.0,0.0,0.0,0.0,0.0,0.0,0.0,0.0,0.0,0.0,0.0,0.0,0.0,0.0,0.0,0.0,0.0,0.0,0.0,0.0,0.0,0.0,0.0,0.0,0.0,0.0,0.0,0.0,0.0,0.0,0.0,0.0,0.0,0.0,0.0,0.0,0.0,0.0,0.0,0.0,0.0,0.0,0.0,0.0,0.0,0.0,0.0,0.0,0.0,0.0,0.0,0.0,0.0,0.0,0.0,0.0,0.0,0.0,0.0,0.0,0.0,0.0,0.0,0.0,0.0,0.0,0.0,0.0,0.0,0.0,0.0,0.0,0.0,0.9067,0.9246,0.9417,0.9551,0.9599,0.9599,0.9474,0.9299,0.91,0.0,0.0,0.0,0.0,0.0,0.0,0.0,0.0,0.0,0.0,0.0,0.0,0.0,0.0,0.0,0.0,0.0,0.0,0.0,0.0,0.0,0.0,0.0,0.0,0.0,0.0,0.0,0.0,0.0,0.0,0.0,0.0,0.0,0.0,0.0,0.0,0.0,0.0,0.964,0.9815,0.0,0.0,0.0,0.0,0.0,0.0,0.0,0.0,1.0854,0.0,0.0,0.0,0.0,0.0,0.0,0.0,0.0,0.0,0.0,0.0,0.0,0.0,0.0,0.0,0.0,0.0,0.0,0.0,0.0,0.0,0.0,0.0,0.0,0.0,0.0,0.0,0.0,0.0,0.0,0.0,0.0,0.0,0.0,0.0,0.0,0.0,0.0,0.0,0.0,0.0,0.0,0.0,0.0,0.0,0.0,0.0,0.0,0.0,0.0,0.0,0.0,0.0,0.0,0.0,0.0,0.9051,0.9246,0.9421,0.9579,0.9587,0.9599,0.9595,0.9474,0.9299,0.9096,0.0,0.0,0.0,0.0,0.0,0.0,0.0,0.0,0.0,0.0,0.0,0.0,0.0,0.0,0.0,0.0,0.0,0.0,0.0,0.0,0.0,0.0,0.0,0.0,0.0,0.0,0.0,0.0,0.0,0.0,0.0,0.0,0.0,0.0,0.0,0.0,0.0,0.0,0.0,1.0027,1.0219,0.0,0.0,0.0,0.0,0.0,0.0,0.0,0.0,1.0984,0.0,0.0,0.0,0.0,0.0,0.0,0.0,0.0,0.0,0.0,0.0,0.0,0.0,0.0,0.0,0.0,0.0,0.0,0.0,0.0,0.0,0.0,0.0,0.0,0.0,0.0,0.0,0.0,0.0,0.0,0.0,0.0,0.0,0.0,0.0,0.0,0.0,0.0,0.0,0.0,0.0,0.0,0.0,0.0,0.0,0.0,0.0,0.0,0.0,0.0,0.0,0.0,0.0,0.0,0.0,0.9258,0.9518,0.9698,0.9758,0.9737,0.9692,0.9603,0.9474,0.9299,0.0,0.0,0.0,0.0,0.0,0.0,0.0,0.0,0.0,0.0,0.0,0.0,0.0,0.0,0.0,0.0,0.0,0.0,0.0,0.0,0.0,0.0,0.0,0.0,0.0,0.0,0.0,0.0,0.0,0.0,0.0,0.0,0.0,0.0,0.0,0.0,0.0,0.0,0.0,0.0,1.0184,1.04,1.0676,0.0,0.0,0.0,0.0,0.0,0.0,1.1126,1.1159,0.0,0.0,0.0,0.0,0.0,0.0,0.0,0.0,0.0,0.0,0.0,0.0,0.0,0.0,0.0,0.0,0.0,0.0,0.0,0.0,0.0,0.0,0.0,0.0,0.0,0.0,0.0,0.0,0.0,0.0,0.0,0.0,0.0,0.0,0.0,0.0,0.0,0.0,0.0,0.0,0.0,0.0,0.0,0.0,0.0,0.0,0.0,0.0,0.0,0.0,0.0,0.0,0.0,0.0,0.0,0.9437,0.9787,0.9962,0.9966,0.9966,0.9901,0.9738,0.951,0.9315,0.0,0.0,0.0,0.0,0.0,0.0,0.0,0.0,0.0,0.0,0.0,0.0,0.0,0.0,0.0,0.0,0.0,0.0,0.0,0.0,0.0,0.0,0.0,0.0,0.0,0.0,0.0,0.0,0.0,0.0,0.0,0.0,0.0,0.0,0.0,0.0,0.0,0.0,0.0,0.0,0.0,1.0535,1.0947,1.0996,0.0,0.0,0.0,0.0,1.1219,1.1281,0.0,0.0,0.0,0.0,0.0,0.0,0.0,0.0,0.0,0.0,0.0,0.0,0.0,0.0,0.0,0.0,0.0,0.0,0.0,0.0,0.0,0.0,0.0,0.0,0.0,0.0,0.0,0.0,0.0,0.0,0.0,0.0,0.0,0.0,0.0,0.0,0.0,0.0,0.0,0.0,0.0,0.0,0.0,0.0,0.0,0.0,0.0,0.0,0.0,0.0,0.0,0.0,0.0,0.0,0.0,0.0,0.9579,0.9949,1.0158,1.0158,1.018,1.0145,1.0121,0.9669,0.9392,0.0,0.0,0.0,0.0,0.0,0.0,0.0,0.0,0.0,0.0,0.0,0.0,0.0,0.0,0.0,0.0,0.0,0.0,0.0,0.0,0.0,0.0,0.0,0.0,0.0,0.0,0.0,0.0,0.0,0.0,0.0,0.0,0.0,0.0,0.0,0.0,0.0,0.0,0.0,0.0,0.0,1.0539,1.0947,1.0996,1.1049,0.0,0.0,1.1261,1.1439,1.1468,0.0,0.0,0.0,0.0,0.0,0.0,0.0,0.0,0.0,0.0,0.0,0.0,0.0,0.0,0.0,0.0,0.0,0.0,0.0,0.0,0.0,0.0,0.0,0.0,0.0,0.0,0.0,0.0,0.0,0.0,0.0,0.0,0.0,0.0,0.0,0.0,0.0,0.0,0.0,0.0,0.0,0.0,0.0,0.0,0.0,0.0,0.0,0.0,0.0,0.0,0.0,0.0,0.0,0.0,0.0,0.9596,0.9782,1.0251,1.0443,1.0318,1.0318,1.027,1.019,0.9767,0.9486,0.0,0.0,0.0,0.0,0.0,0.0,0.0,0.0,0.0,0.0,0.0,0.0,0.0,0.0,0.0,0.0,0.0,0.0,0.0,0.0,0.0,0.0,0.0,0.0,0.0,0.0,0.0,0.0,0.0,0.0,0.0,0.0,0.0,0.0,0.0,0.0,0.0,0.0,0.0,0.0,0.0,0.0,1.1078,1.12,0.0,0.0,0.0,1.1411,1.1488,0.0,0.0,0.0,0.0,0.0,0.0,0.0,0.0,0.0,0.0,0.0,0.0,0.0,0.0,0.0,0.0,0.0,0.0,0.0,0.0,0.0,0.0,0.0,0.0,0.0,0.0,0.0,0.0,0.0,0.0,0.0,0.0,0.0,0.0,0.0,0.0,0.0,0.0,0.0,0.0,0.0,0.0,0.0,0.0,0.0,0.0,0.0,0.0,0.0,0.0,0.0,0.0,0.0,0.0,0.0,0.0,0.0,0.9987,1.044,1.0627,1.0505,1.0474,1.0436,1.032,0.9949,0.0,0.0,0.0,0.0,0.0,0.0,0.0,0.0,0.0,0.0,0.0,0.0,0.0,0.0,0.0,0.0,0.0,0.0,0.0,0.0,0.0,0.0,0.0,0.0,0.0,0.0,0.0,0.9341,0.0,0.0,0.0,0.0,0.0,0.0,0.0,0.0,0.0,0.0,0.0,0.0,0.0,0.0,1.1078,1.1261,1.1411,1.1512,0.0,0.0,1.1512,1.1565,1.1717,1.1806,0.0,0.0,0.0,0.0,0.0,0.0,0.0,0.0,0.0,0.0,0.0,0.0,0.0,0.0,0.0,0.0,0.0,0.0,0.0,0.0,0.0,0.0,0.0,0.0,0.0,0.0,0.0,0.0,0.0,0.0,0.0,0.0,0.0,0.0,0.0,0.0,0.0,0.0,0.0,0.0,0.0,0.0,0.0,0.0,0.0,0.0,0.0,0.0,0.0,0.0,0.0,0.0,0.0,0.0,0.9773,1.017,1.0505,1.0684,1.0699,1.0672,1.0672,1.0683,1.0337,0.9965,0.0,0.0,0.0,0.0,0.0,0.0,0.0,0.0,0.0,0.0,0.0,0.0,0.0,0.0,0.0,0.0,0.0,0.0,0.0,0.0,0.0,0.0,0.0,0.0,0.0,0.0,0.0,0.0,0.0,0.0,0.0,0.0,0.0,0.0,0.0,0.0,0.0,0.0,0.0,0.0,0.0,1.1127,1.1435,1.1492,1.1561,0.0,1.1614,1.1557,1.1762,1.1794,1.1806,1.1806,0.0,0.0,0.0,0.0,0.0,0.0,0.0,0.0,0.0,0.0,0.0,0.0,0.0,0.0,0.0,0.0,0.0,0.0,0.0,0.0,0.0,0.0,0.0,0.0,0.0,0.0,0.0,0.0,0.0,0.0,0.0,0.0,0.0,0.0,0.0,0.0,0.0,0.0,0.0,0.0,0.0,0.0,0.0,0.0,0.0,0.0,0.0,0.0,0.0,0.0,0.0,0.0,0.0,0.9803,1.0208,1.0509,1.0719,1.0719,1.0719,1.0719,1.0719,1.0456,1.0156,0.0,0.0,0.0,0.0,0.0,0.0,0.0,0.0,0.0,0.0,0.0,0.0,0.0,0.0,0.0,0.0,0.0,0.0,0.0,0.0,0.0,0.0,0.0,0.0,0.0,0.0,0.0,0.0,0.9705,0.9786,0.9786,0.0,0.0,0.0,0.0,0.0,0.0,0.0,0.0,0.0,0.0,1.1346,1.148,1.1598,0.0,0.0,1.1715,1.1695,1.1794,1.1806,1.1806,1.1806,1.1806,0.0,0.0,0.0,0.0,0.0,0.0,0.0,0.0,0.0,0.0,0.0,0.0,0.0,0.0,0.0,0.0,0.0,0.0,0.0,0.0,0.0,0.0,0.0,0.0,0.0,0.0,0.0,0.0,0.0,0.0,0.0,0.0,0.0,0.0,0.0,0.0,0.0,0.0,0.0,0.0,0.0,0.0,0.0,0.0,0.0,0.0,0.0,0.0,0.0,0.0,0.0,0.0,0.9881,1.0186,1.054,1.0719,1.0719,1.0719,1.0719,1.0715,1.0574,1.0339,0.0,0.0,0.0,0.0,0.0,0.0,0.0,0.0,0.0,0.0,0.0,0.0,0.0,0.0,0.0,0.0,0.0,0.0,0.0,0.0,0.0,0.0,0.0,0.0,0.0,0.0,0.0,0.0,1.004,1.0046,1.005,0.0,0.0,0.0,0.0,0.0,0.0,0.0,0.0,0.0,0.0,1.1524,1.1573,1.1721,1.1806,1.1806,1.1806,1.1806,1.1806,1.1806,1.1806,1.1806,0.0,0.0,0.0,0.0,0.0,0.0,0.0,0.0,0.0,0.0,0.0,0.0,0.0,0.0,0.0,0.0,0.0,0.0,0.0,0.0,0.0,0.0,0.0,0.0,0.0,0.0,0.0,0.91,0.0,0.0,0.9092,0.0,0.0,0.0,0.0,0.0,0.0,0.0,0.0,0.0,0.0,0.0,0.0,0.0,0.0,0.0,0.0,0.0,0.0,0.0,0.0,0.0,0.0,0.9995,1.019,1.054,1.0719,1.0719,1.0719,1.0719,1.0719,1.0715,1.0517,1.019,0.0,0.0,0.0,0.0,0.0,0.0,0.0,0.0,0.0,0.0,0.0,0.0,0.0,0.0,0.0,0.0,0.0,0.0,0.0,0.0,0.0,0.0,0.0,0.0,0.0,0.0,1.0182,1.0292,1.0385,0.0,0.0,0.0,0.0,0.0,0.0,0.0,0.0,0.0,1.1403,1.1496,1.1565,1.1774,1.1806,1.1806,1.1806,1.1806,1.1806,1.1806,1.1806,1.1806,0.0,0.0,0.0,0.0,0.0,0.0,0.0,0.0,0.0,0.0,0.0,0.0,0.0,0.0,0.0,0.0,0.0,0.0,0.0,0.0,0.0,0.0,0.0,0.0,0.0,0.0,0.0,0.9738,0.9616,0.0,0.0,0.0,0.0,0.0,0.0,0.0,0.0,0.0,0.0,0.0,1.0011,1.0068,0.0,0.0,0.0,0.0,0.0,0.0,0.0,0.0,0.0,0.0,0.0,0.0,1.0038,1.0339,1.0574,1.0719,1.0719,1.0719,1.0719,1.0719,1.0719,1.0582,1.0351,0.0,0.0,0.0,0.0,0.0,0.0,0.0,0.0,0.0,0.0,0.0,0.0,0.0,0.0,0.0,0.0,0.0,0.0,0.0,0.0,0.0,0.0,0.0,0.0,0.0,1.0316,0.0,0.0,0.0,0.0,0.0,0.0,0.0,0.0,0.0,0.0,0.0,1.1297,1.1476,1.161,1.1703,1.1768,1.1806,1.1806,0.0,0.0,0.0,0.0,0.0,0.0,0.0,0.0,0.0,0.0,0.0,0.0,0.0,0.0,1.213,1.213,1.213,1.213,1.213,0.0,0.0,0.0,0.0,0.0,0.0,0.0,0.0,0.0,0.0,0.0,0.0,0.0,0.0,1.0117,0.0,0.9864,0.0,0.0,0.0,0.0,0.0,0.0,0.0,0.0,1.0345,1.0373,1.0373,1.0373,1.0406,0.0,1.0467,1.0288,0.0,0.0,0.0,0.0,0.0,0.0,0.0,0.0,1.0197,1.0401,1.0607,1.0719,1.0719,1.0719,1.0719,1.0719,1.0719,1.0639,1.0498,1.0233,0.9994,0.0,0.0,0.0,0.0,0.0,0.0,0.0,0.0,0.0,0.0,0.0,0.0,0.0,0.0,0.0,0.0,0.0,0.0,0.0,0.0,0.0,0.0,0.0,1.0616,0.0,0.0,0.0,0.0,0.0,0.0,0.0,0.0,0.0,1.1001,1.1277,1.1524,1.1585,1.1733,1.1806,1.1806,0.0,0.0,0.0,0.0,0.0,0.0,0.0,1.1902,1.1981,1.2102,1.2259,1.2377,1.2345,1.2328,1.2385,0.0,0.0,1.232,1.2304,1.2304,1.2304,1.2304,1.2304,1.2304,1.2304,1.2304,0.0,0.0,0.0,0.0,0.0,0.0,0.0,0.0,1.0211,1.0206,0.0,1.019,0.0,0.0,0.0,0.0,1.0249,1.0367,0.0,0.0,1.0635,1.0708,1.0708,1.0708,1.0829,1.0996,1.1053,1.1077,1.1044,1.0605,0.0,0.0,0.0,0.0,0.0,0.0,1.0409,1.0426,1.0607,1.0719,1.0719,1.0719,1.0719,1.0719,1.0719,1.0692,1.0684,1.0498,1.0359,1.0211,0.9851,0.0,0.0,0.0,0.0,0.0,0.0,0.0,0.0,0.0,0.0,0.0,0.0,0.0,0.0,0.0,0.0,0.0,0.0,0.0,0.0,1.0907,0.0,0.0,0.0,0.0,0.0,0.0,0.0,0.0,0.0,0.0,1.1492,1.1504,1.1577,1.1752,0.0,0.0,0.0,0.0,1.1806,1.1806,1.1806,1.1811,1.1819,1.1922,1.2001,1.2017,0.0,0.0,1.2604,1.2434,1.2385,1.2572,1.2604,1.2551,1.2365,1.2345,1.2341,1.2337,1.2349,1.2333,1.2297,1.2357,1.2349,1.0565,0.0,0.0,0.0,0.0,1.0542,1.0538,1.0569,1.0538,1.0496,1.0332,1.0355,0.0,0.0,0.0,0.0,0.0,0.0,1.0883,1.0968,1.1049,1.107,1.107,1.107,1.1098,1.1175,1.208,1.2478,1.2526,1.3269,1.2623,1.0762,0.0,0.0,0.0,0.0,1.0708,1.0615,1.0668,1.0719,1.0719,1.0719,1.0719,1.0719,1.0719,1.0719,1.0719,1.0643,1.0595,1.0569,1.0444,0.0,0.0,0.0,0.0,0.0,0.0,0.0,0.0,0.0,0.0,0.0,0.0,0.0,0.0,0.0,0.0,0.0,0.0,0.0,1.1053,1.1236,1.1313,0.0,0.0,0.0,0.0,0.0,0.0,0.0,0.0,0.0,1.1695,1.1729,1.1715,0.0,0.0,1.1806,1.1806,1.1806,1.1806,1.1806,1.1806,0.0,1.1908,1.1969,1.2117,1.2369,1.2605,1.2726,1.2726,1.2682,1.2665,1.2751,1.2759,1.2706,1.2665,1.2653,1.2645,1.2649,1.2653,1.2653,1.2653,1.2653,1.2645,1.0719,1.0719,1.0719,1.0719,1.0719,1.0719,1.0719,1.0724,1.0797,1.0745,1.0651,1.0689,1.0688,1.0586,1.0669,0.0,0.0,0.0,1.1408,1.1967,1.1963,1.2217,1.2694,1.2694,1.2764,1.2842,1.3624,1.4009,1.4104,1.496,1.4535,1.2819,0.0,0.0,1.1758,1.1268,1.0964,1.0927,1.0903,1.0903,1.0903,1.0903,1.0903,1.0903,1.0903,1.0903,1.0903,1.0875,1.0903,1.0899,1.0834,1.0732,0.0,0.0,0.0,0.0,0.0,0.0,0.0,0.0,0.0,0.0,0.0,1.062,1.0647,0.0,0.0,0.0,1.1139,1.1281,1.1423,1.148,0.0,0.0,0.0,0.0,0.0,0.0,0.0,1.161,1.1737,1.1806,1.1806,1.1806,1.1806,1.1806,1.1806,1.1806,1.1806,0.0,1.1801,1.1866,1.1878,1.1939,1.2078,1.2199,1.2341,1.2625,1.2726,1.2737,1.2605,1.2605,1.2605,1.2605,1.2605,1.2605,1.2605,1.2605,1.2671,1.277,1.2803,1.2803,1.2803,1.2803,1.2803,1.0719,1.0719,1.0719,1.0719,1.0724,1.0708,1.0712,1.0733,1.0939,1.1017,1.1029,1.1155,1.1257,1.1384,1.1384,0.0,1.138,1.1409,1.1982,1.3007,1.3093,1.3769,1.4868,1.4987,1.5129,1.5317,1.5433,1.5582,1.5765,1.6101,1.6166,1.5964,1.4304,1.3389,1.3245,1.2131,1.1479,1.1364,1.136,1.1306,1.1191,1.1191,1.1191,1.1191,1.1191,1.1191,1.1191,1.1191,1.1199,1.1211,1.1094,1.1037,1.1029,0.0,0.0,0.0,0.0,0.0,0.0,0.0,0.0,0.0,0.0,0.0,0.0,0.0,0.0,1.1215,1.1411,0.0,1.179,1.1622,0.0,0.0,0.0,1.152,1.152,1.1675,1.1806,1.1806,0.0,0.0,1.1806,1.1806,1.1806,1.1806,1.1806,1.1806,1.1806,1.1823,1.1888,1.2,1.2009,1.2117,1.2296,1.2462,1.2625,1.2755,1.2803,1.2671,1.2375,1.2309,1.2305,1.2243,1.2243,1.2276,1.2276,1.2243,1.2375,1.2638,1.2704,1.2704,1.2737,1.2737,1.2737,1.0719,1.0719,1.0719,1.0719,1.0704,1.087,1.0931,1.0947,1.1086,1.1163,1.1163,1.1208,1.1818,1.2884,1.2884,1.2962,1.3104,1.3108,1.2757,1.2205,1.3113,1.3725,1.404,1.4986,1.5482,1.5566,1.6505,1.7002,1.7097,1.8087,1.8587,1.8465,1.7123,1.5965,1.4949,1.4622,1.3862,1.2646,1.2646,1.2192,1.1249,1.1191,1.1191,1.1191,1.1191,1.1191,1.1191,1.1191,1.126,1.1423,1.1424,1.1374,1.137,1.1065,0.0,0.0,0.0,0.0,0.0,0.0,0.0,0.0,0.0,1.1106,1.1008,0.0,1.1431,0.0,1.1602,1.1727,1.1798,1.1766,0.0,0.0,1.1711,1.1737,1.1745,1.1778,1.1806,1.1806,1.1806,1.1806,1.1806,1.1806,1.1806,1.1806,1.1806,1.1806,1.1811,1.189,1.1953,1.2009,1.2123,1.23,1.2507,1.2653,1.275,1.2799,1.277,1.2675,1.2342,1.2305,1.2243,1.1975,1.1909,1.1912,1.1912,1.1912,1.1945,1.2011,1.2045,1.2111,1.2342,1.2408,1.2474,1.0719,1.0719,1.0719,1.0741,1.0826,1.0956,1.1037,1.1094,1.124,1.1313,1.1375,1.2008,1.2775,1.3529,1.3558,1.3917,1.4495,1.3963,1.3934,1.4386,1.506,1.5682,1.6243,1.6962,1.7291,1.732,1.8023,1.835,1.8379,1.9062,1.9395,1.9395,1.8713,1.7989,1.7204,1.6121,1.5113,1.425,1.3669,1.3004,1.2302,1.1758,1.1431,1.135,1.1346,1.1276,1.1195,1.1191,1.1244,1.137,1.1455,1.15,1.15,1.1338,1.1114,0.0,0.0,0.0,0.0,0.0,0.0,0.0,0.0,0.0,0.0,0.0,1.1622,1.1622,1.1745,1.1806,1.1806,1.1806,1.1806,1.1806,1.1806,1.1806,1.1806,1.1806,1.1806,1.1806,1.1806,1.1839,1.1878,1.189,1.1922,1.2,1.2016,1.1983,1.1922,1.2009,1.2178,1.2255,1.2353,1.2483,1.2657,1.2767,1.2737,1.2605,1.2572,1.2408,1.1912,1.1813,1.1743,1.1582,1.1549,1.1545,1.1549,1.1549,1.1483,1.135,1.1314,1.1512,1.1978,1.2078,1.2144,1.0935,1.0911,1.0907,1.1138,1.1508,1.1508,1.1411,1.1269,1.1628,1.1887,1.2098,1.3237,1.3784,1.3963,1.3934,1.453,1.5515,1.4619,1.5297,1.722,1.7425,1.8081,1.9156,1.9307,1.9395,1.9395,1.9395,1.9395,1.9395,1.9395,1.9395,1.9395,1.9395,1.9395,1.9307,1.7197,1.6018,1.5806,1.4321,1.3575,1.3725,1.2548,1.1837,1.163,1.1589,1.1469,1.1261,1.1224,1.1191,1.1199,1.1399,1.15,1.15,1.15,1.1362,0.0,1.1151,0.0,0.0,0.0,0.0,0.0,0.0,0.0,0.0,1.1697,1.1806,1.1806,1.1806,1.1806,1.1806,1.1806,1.1806,1.1806,1.1806,1.1819,1.1839,1.1839,1.1817,1.1872,1.1876,1.1902,1.204,1.2034,1.2098,1.2224,1.2245,1.2142,1.2056,1.2113,1.2294,1.2483,1.2487,1.2458,1.2554,1.263,1.2539,1.2279,1.2243,1.1978,1.138,1.1247,1.1214,1.1148,1.1148,1.1152,1.1148,1.1148,1.1049,1.082,1.0784,1.0949,1.1516,1.1714,1.1747,1.2096,1.2096,1.2091,1.2883,1.4169,1.4174,1.3107,1.1544,1.2727,1.3846,1.4736,1.4034,1.4262,1.5213,1.5243,1.5362,1.5658,1.642,1.6479,1.5978,1.7015,1.763,1.79,1.8917,1.9395,1.9395,1.9395,1.9395,1.9395,1.9395,1.9395,1.9395,1.9395,1.9395,1.9395,0.0,0.0,0.0,1.4048,1.2976,1.3938,1.305,1.2427,1.2245,1.2031,0.0,1.1611,1.1335,1.1191,1.1199,1.1399,0.0,0.0,0.0,0.0,0.0,0.0,0.0,0.0,0.0,0.0,0.0,1.1733,1.1692,1.152,1.1671,1.1806,1.1806,1.1806,1.1806,1.1806,1.1806,1.1806,1.1806,1.1806,1.1829,1.1924,1.1983,1.2005,1.2186,1.2203,1.2215,1.2243,1.2255,1.2268,1.2293,1.2171,1.2042,1.2014,1.2034,1.2073,1.2112,1.203,1.1966,1.1971,1.2045,1.2011,1.1883,1.1879,1.1714,1.128,1.1181,1.1085,1.0886,1.0787,1.082,1.0784,1.0787,1.082,1.0721,1.0721,1.082,1.1214,1.1317,1.1413,1.3248,1.3193,1.2635,1.3013,0.0,1.4004,1.3481,1.2634,1.3384,1.4053,1.4644,1.4649,1.5362,1.6544,1.6538,1.6903,1.7473,1.749,1.749,1.7525,1.8146,1.8438,1.8467,1.9098,1.9395,1.9395,1.9395,1.9395,1.9395,1.9395,1.9395,1.9395,1.9395,1.9395,1.9395,1.8765,1.8438,1.8438,1.5416,1.4202,1.4768,1.3754,1.2806,1.201,1.2434,0.0,0.0,0.0,0.0,0.0,0.0,0.0,0.0,1.1585,0.0,1.1508,1.15,1.1496,1.1504,1.1585,1.1679,1.1798,1.1806,1.1736,1.1642,1.1754,1.1806,1.1806,1.1806,1.1813,1.189,1.1898,1.1939,1.2028,1.2036,1.2077,1.2119,1.2166,1.2175,1.2284,1.2304,1.2333,1.2454,1.2239,1.2218,1.2266,1.2053,1.1911,1.1878,1.1878,1.1882,1.1911,1.1848,1.1813,1.1817,1.1817,1.1714,1.1582,1.1516,1.135,1.1019,1.0953,1.0886,1.0721,1.0721,1.0721,1.0721,1.0721,1.0721,1.0721,1.0721,1.0754,1.092,1.0949,1.1019,1.4406,1.4352,1.341,1.3395,1.397,1.4037,1.4176,1.4376,1.4376,0.0,0.0,1.5569,1.6509,1.7484,1.7484,1.8081,1.8981,1.8233,1.8409,1.9395,1.9395,1.9395,1.9395,1.9395,1.9395,1.9395,1.9395,1.9395,1.9395,1.9395,1.9395,1.9395,1.9395,1.9395,1.9336,1.835,1.8344,1.922,1.6938,1.5663,1.5628,1.447,1.3159,1.1681,1.2639,1.257,1.1347,1.1224,1.1191,1.1195,1.1399,1.15,1.1504,1.1679,1.1737,1.1569,1.1691,1.1711,1.1561,1.1691,1.1806,1.1806,1.1806,1.1806,1.1806,1.1806,1.1819,1.1847,1.1821,1.189,1.203,1.2046,1.2106,1.2292,1.2304,1.2281,1.225,1.2254,1.2206,1.2234,1.2191,1.2263,1.2398,1.2159,1.2007,1.2134,1.1894,1.1648,1.1615,1.1633,1.163,1.1567,1.1508,1.1582,1.1582,1.1549,1.1483,1.1185,1.1118,1.1016,1.0787,1.0721,1.0721,1.0721,1.0721,1.0721,1.0721,1.0721,1.0721,1.0721,1.0721,1.0721,1.0721,1.0721,1.0717,1.5642,1.5642,1.5482,1.6311,1.7721,1.7749,1.7462,1.6973,1.695,1.7578,1.8532,1.7636,1.7331,1.7484,1.7484,1.7601,1.7812,1.8706,1.9243,1.9395,1.9395,1.9395,1.9395,1.9395,1.9395,1.9395,1.9395,1.9395,1.9395,1.9395,1.9395,1.9395,1.9395,1.9395,1.9395,1.922,1.9243,1.9366,1.7144,1.593,1.593,1.4986,1.3758,1.2367,1.2237,1.2058,1.1635,1.1372,1.1191,1.1199,1.1369,1.15,1.1504,1.1679,1.1798,1.1774,1.179,1.1794,1.177,1.1794,1.1806,1.1806,1.1806,1.1806,1.1806,1.1806,1.1837,1.1944,1.1961,1.2069,1.2239,1.2272,1.228,1.2316,1.2312,1.2234,1.2086,1.2045,1.2027,1.1897,1.1877,1.1903,1.1951,1.1863,1.1801,1.1806,1.1545,1.1218,1.1052,1.1115,1.1148,1.0916,1.085,1.085,1.0953,1.0886,1.0883,1.0787,1.0787,1.0784,1.0721,1.0721,1.0721,1.0721,1.0721,1.0721,1.0721,1.0721,1.0721,1.0721,1.0721,1.0721,1.0721,1.0721,1.0721,1.6823,1.675,1.6154,1.6387,1.7228,1.7553,1.7998,1.8512,1.8532,1.8431,1.8292,1.7747,1.79,1.8532,1.8525,1.8532,1.8554,1.9156,1.9395,1.9395,1.9395,1.9395,1.9395,1.9395,1.9395,1.9395,1.9395,1.9395,1.9395,1.9395,1.9395,1.9395,1.9395,1.9395,1.9395,1.9395,1.9395,1.9366,1.7701,1.6809,1.6785,1.5723,1.4485,1.3147,1.2974,1.2552,1.1761,1.158,1.152,1.1524,1.1602,1.1646,1.1654,1.1762,1.1806,1.1806,1.1806,1.1806,1.1806,1.1806,1.1756,1.1631,1.1639,1.1587,1.1495,1.1756,1.1987,1.2127,1.2147,1.2251,1.2426,1.2446,1.2483,1.2552,1.2564,1.2463,1.2234,1.2155,1.2055,1.1831,1.1817,1.1817,1.1817,1.1615,1.1446,1.1446,1.1148,1.0853,1.0721,1.0817,1.0886,1.0754,1.0721,1.0721,1.0721,1.0721,1.0721,1.0721,1.0721,1.0721,1.0721,1.0721,1.0721,1.0721,1.0721,1.0721,1.0721,1.0721,1.0721,1.0721,1.0721,1.0721,1.0721,1.0721,1.0721,1.7615,1.7503,1.6664,1.6431,1.6701,1.7202,1.8183,1.9359,1.9395,1.8829,1.7994,1.7929,1.8502,1.9366,1.9395,1.9395,1.9395,1.9395,1.9395,1.9395,1.9395,1.9395,1.9395,1.9395,1.9395,1.9395,1.9395,1.9395,1.9395,1.9395,1.9395,1.9395,1.9395,1.9395,1.9395,1.9395,1.9395,1.9336,1.8438,1.7812,1.7484,1.6249,1.5006,1.3814,1.34,1.281,1.1863,1.1806,1.1806,1.1806,1.1806,1.1806,1.1806,1.1806,1.1806,1.1806,1.1806,1.1792,1.1738,1.1647,1.157,1.1456,1.1437,1.1385,1.1311,1.1634,1.1956,1.2087,1.2075,1.2179,1.233,1.2398,1.2458,1.2557,1.2572,1.2392,1.2107,1.2045,1.1912,1.1615,1.1549,1.1516,1.1483,1.1284,1.1115,1.1052,1.0853,1.0721,1.0721,1.0721,1.0721,1.0721,1.0721,1.0721,1.0721,1.0721,1.0721,1.0721,1.0721,1.0721,1.0721,1.0721,1.0721,1.0721,1.0721,1.0721,1.0721,1.0721,1.0721,1.0721,1.0721,1.0698,1.0745,1.0822,1.0806,1.7615,1.7615,1.745,1.7782,1.8229,1.8552,1.8935,1.9381,1.9395,1.9372,1.9156,1.922,1.9249,1.9395,1.9395,1.9395,1.9395,1.9395,1.9395,1.9395,1.9395,1.9395,1.9395,1.9395,1.9395,1.9395,1.9395,1.9395,1.9395,1.9395,1.9395,1.9395,1.9395,1.9395,1.9395,1.9395,1.9395,1.9395,1.9278,1.8648,1.7513,1.6243,1.4976,1.3729,1.2603,1.1923,1.1806,1.1806,1.1806,1.1806,1.1806,1.1806,1.1806,1.1806,1.1806,1.1806,1.1806,1.1716,1.1518,1.1233,1.1153,1.1216,1.1234,1.1269,1.1421,1.149,1.1546,1.1569,1.1573,1.1709,1.183,1.1915,1.1952,1.2004,1.1978,1.1743,1.1446,1.128,1.1185,1.0853,1.0883,1.0787,1.0886,1.082,1.0787,1.082,1.0754,1.0721,1.0721,1.0721,1.0721,1.0721,1.0721,1.0721,1.0721,1.0721,1.0721,1.0721,1.0721,1.0721,1.0721,1.0618,1.0684,1.0283,1.0518,1.0485,1.0552,1.0721,1.0724,1.0755,1.0761,1.0775,1.0863,1.1009,1.104,1.7615,1.7615,1.7615,1.7936,1.8477,1.8624,1.8938,1.9381,1.9395,1.9395,1.9395,1.9395,1.9395,1.9395,1.9395,1.9395,1.9395,1.9395,1.9395,1.9395,1.9395,1.9395,1.9395,1.9395,1.9395,1.9395,1.9395,1.9395,1.9395,1.9395,1.9395,1.9395,1.9395,1.9395,1.9395,1.9395,1.9395,1.9395,1.9395,1.9127,1.8561,1.7367,1.6131,1.4857,1.358,1.2548,1.1893,1.1806,1.1806,1.1806,1.1806,1.1806,1.1806,1.1617,1.1522,1.1496,1.1382,1.131,1.1221,1.1128,1.11,1.107,1.1077,1.1081,1.1002,1.102,1.102,1.1086,1.1414,1.1709,1.1773,1.1817,1.1817,1.1817,1.1817,1.1648,1.1251,1.1181,1.1082,1.0754,1.0721,1.0721,1.0721,1.0721,1.0721,1.0721,1.0721,1.0721,1.0721,1.0721,1.0721,1.0721,1.0721,1.0721,1.0721,1.0721,1.0721,1.0721,1.0721,1.0721,1.0651,0.9881,0.9446,0.948,0.9446,0.9446,0.9377,1.0256,1.0704,1.0642,1.0907,1.1006,1.1063,1.1155,1.1151,1.7615,1.7615,1.7615,1.7963,1.8484,1.8497,1.8824,1.9361,1.9395,1.9395,1.9395,1.9395,1.9395,1.9395,1.9395,1.9395,1.9395,1.9395,1.9395,1.9395,1.9395,1.9395,1.9395,1.9395,1.9395,1.9395,1.9395,1.9395,1.9395,1.9395,1.9395,1.9395,1.9395,1.9395,1.9395,1.9395,1.9395,1.9395,1.9395,1.9395,1.9278,1.8502,1.7255,1.5688,1.4381,1.311,1.1893,1.1806,1.1806,1.1806,1.1806,1.1742,1.1647,1.1428,1.1262,1.1199,1.1047,1.0941,1.0981,1.1003,1.0977,1.0921,1.091,1.0864,1.076,1.0721,1.0721,1.0747,1.1185,1.1479,1.1516,1.1483,1.1483,1.1483,1.1483,1.135,1.1085,1.1052,1.0982,1.0754,1.0721,1.0721,1.0721,1.0721,1.0721,1.0721,1.0721,1.0721,1.0721,1.0721,1.0721,1.0721,1.0721,1.0721,1.0721,1.0721,1.0721,1.0721,1.0721,1.0721,1.0618,0.9513,0.8643,0.8975,0.844,0.803,0.8032,0.8946,0.9618,0.9776,1.0103,1.0471,1.0414,1.0829,1.1296,1.7615,1.7615,1.7615,1.7963,1.8484,1.8497,1.8859,1.9395,1.9395,1.9395,1.9395,1.9395,1.9395,1.9395,1.9395,1.9395,1.9395,1.9395,1.9395,1.9395,1.9395,1.9395,1.9395,1.9395,1.9395,1.9395,1.9395,1.9395,1.9395,1.9395,1.9395,1.9395,1.9395,1.9395,1.9395,1.9395,1.9395,1.9395,1.9395,1.9395,1.9395,1.9336,1.8058,1.5723,1.4411,1.3195,1.1953,1.1806,1.1806,1.1806,1.1776,1.1621,1.1363,1.1281,1.1172,1.0989,1.0874,1.0838,1.0916,1.0729,1.0606,1.0706,1.0723,1.0707,1.0714,1.0721,1.0721,1.0721,1.0787,1.0817,1.0853,1.0886,1.085,1.0817,1.0787,1.0787,1.0754,1.0787,1.0754,1.0721,1.0721,1.0721,1.0721,1.0721,1.0721,1.0721,1.0721,1.0721,1.0721,1.0721,1.0721,1.0721,1.0721,1.0721,1.0721,1.0721,1.0721,1.0416,1.025,1.0416,1.015,0.9712,0.8911,0.8146,0.7187,0.6617,0.6605,0.6787,0.7099,0.759,0.8596,0.9014,0.9668,1.0714,1.1269,1.7615,1.7615,1.7615,1.7963,1.847,1.8497,1.8853,1.9381,1.9395,1.9395,1.9395,1.9395,1.9395,1.9395,1.9395,1.9395,1.9395,1.9395,1.9395,1.9395,1.9395,1.9395,1.9395,1.9395,1.9395,1.9395,1.9395,1.9395,1.9395,1.9395,1.9395,1.9395,1.9395,1.9395,1.9395,1.9395,1.9395,1.9395,1.9395,1.9395,1.9395,1.9395,1.8087,1.5475,1.5065,1.3814,1.1549,1.1458,1.1371,1.1186,1.1156,1.1095,1.0982,1.0863,1.0718,1.0598,1.059,1.0629,1.0688,1.0651,1.066,1.0707,1.0721,1.0721,1.0721,1.0721,1.0721,1.0721,1.0721,1.0721,1.0721,1.0721,1.0721,1.0721,1.0721,1.0721,1.0721,1.0721,1.0721,1.0721,1.0721,1.0721,1.0721,1.0721,1.0721,1.0721,1.0721,1.0721,1.0721,1.0721,1.0721,1.0721,1.0721,1.0721,1.0721,1.0721,1.0518,0.9679,0.9241,0.864,0.8271,0.7116,0.6182,0.6201,0.5435,0.5179,0.5165,0.5726,0.5861,0.6391,0.7322,0.7931,0.9044,0.9916,1.0662,1.7615,1.7615,1.7615,1.7876,1.8309,1.845,1.8792,1.9247,1.9354,1.9395,1.9395,1.9395,1.9395,1.9395,1.9395,1.933,1.9272,1.9336,1.9395,1.9395,1.9395,1.9395,1.9395,1.9395,1.9395,1.9395,1.9395,1.9395,1.9395,1.9395,1.9395,1.9395,1.9395,1.9395,1.9395,1.9395,1.9395,1.9395,1.9395,1.9395,1.9395,1.9395,1.8029,1.5618,1.5327,1.4108,1.1299,1.1152,1.1031,1.0853,1.0837,1.0832,1.0803,1.061,1.0461,1.0383,1.0487,1.0568,1.0575,1.0663,1.0717,1.0721,1.0721,1.0721,1.0721,1.0721,1.0721,1.0721,1.0721,1.0721,1.0721,1.0721,1.0721,1.0721,1.0721,1.0721,1.0721,1.0721,1.0721,1.0721,1.0721,1.0721,1.0721,1.0721,1.0721,1.0721,1.0721,1.0721,1.0721,1.0721,1.0721,1.0721,1.0721,1.0721,1.0721,1.0721,1.015,0.9313,0.8673,0.7769,0.6518,0.5121,0.4262,0.4171,0.3996,0.3761,0.3982,0.4608,0.5034,0.5377,0.5831,0.6291,0.7571,0.8953,0.987,1.7615,1.7615,1.7615,1.7776,1.8076,1.8377,1.8657,1.8971,1.9252,1.9395,1.9395,1.9395,1.9336,1.9366,1.9307,1.9185,1.8997,1.9156,1.9278,1.9307,1.9307,1.9307,1.9301,1.9336,1.9336,1.9366,1.9395,1.9395,1.9366,1.9395,1.9395,1.9395,1.9395,1.9395,1.9395,1.9395,1.9366,1.9249,1.9185,1.9278,1.9366,1.9098,1.7695,1.5356,1.4966,1.3605,1.0917,1.0793,1.0762,1.0758,1.0853,1.0926,1.0753,1.0606,1.0512,1.0504,1.0629,1.0671,1.0707,1.0681,1.0721,1.0721,1.0721,1.0721,1.0721,1.0721,1.0721,1.0721,1.0721,1.0721,1.0721,1.0721,1.0721,1.0721,1.0721,1.0721,1.0721,1.0721,1.0721,1.0721,1.0721,1.0721,1.0721,1.0721,1.0721,1.0721,1.0721,1.0721,1.0721,1.0721,1.0721,1.0721,1.0721,1.0721,1.0721,1.0618,0.9785,0.9014,0.8443,0.7674,0.6108,0.4678,0.3862,0.357,0.2987,0.2737,0.2557,0.3094,0.289,0.3227,0.3855,0.4725,0.5993,0.7404,0.9183,1.7615,1.7615,1.7615,1.7756,1.8022,1.8357,1.8657,1.8916,1.9239,1.9395,1.9366,1.9149,1.9062,1.9004,1.8829,1.8655,1.8567,1.8655,1.8713,1.8713,1.8719,1.8719,1.8771,1.8946,1.9062,1.9084,1.9307,1.9272,1.912,1.9278,1.9395,1.9395,1.9395,1.9395,1.9395,1.9395,1.9039,1.8169,1.8075,1.811,1.7958,1.7015,1.586,1.4812,1.371,1.2186,1.0423,1.0395,1.0361,1.0279,1.027,1.0381,1.0539,1.0531,1.057,1.0639,1.0654,1.0721,1.0721,1.0721,1.0721,1.0721,1.0721,1.0721,1.0721,1.0721,1.0721,1.0721,1.0721,1.0721,1.0721,1.0721,1.0721,1.0721,1.0721,1.0721,1.0721,1.0721,1.0721,1.0721,1.0721,1.0721,1.0721,1.0721,1.0721,1.0721,1.0721,1.0721,1.0721,1.0721,1.0721,1.0721,1.0721,1.0721,1.0721,1.0651,1.0148,0.9038,0.8223,0.7168,0.5612,0.4221,0.3457,0.2896,0.2295,0.189,0.1697,0.1526,0.153,0.1532,0.2223,0.3276,0.4397,0.5882,0.7551,1.7615,1.7615,1.7615,1.7682,1.7903,1.8303,1.8584,1.8783,1.9106,1.9207,1.9149,1.8852,1.8729,1.8671,1.8473,1.8369,1.8246,1.8252,1.8194,1.8129,1.8327,1.8392,1.845,1.8735,1.8823,1.8794,1.9033,1.9091,1.891,1.8981,1.9098,1.9185,1.9214,1.9127,1.9068,1.9127,1.8706,1.79,1.7396,1.7367,1.7343,1.5919,1.4753,1.4257,1.3035,1.1562,1.016,1.0191,1.0253,1.0159,1.015,1.0334,1.0548,1.0582,1.0622,1.0694,1.0717,1.0721,1.0721,1.0721,1.0721,1.0721,1.0721,1.0721,1.0721,1.0721,1.0721,1.0721,1.0721,1.0721,1.0721,1.0721,1.0721,1.0721,1.0721,1.0721,1.0721,1.0721,1.0721,1.0721,1.0721,1.0721,1.0721,1.0721,1.0721,1.0721,1.0721,1.0721,1.0721,1.0721,1.0721,1.0721,1.0721,1.0721,1.0724,1.0608,1.044,0.9266,0.8013,0.6564,0.5028,0.359,0.2569,0.2382,0.1905,0.1729,0.1491,0.1165,0.1022,0.1022,0.1131,0.2186,0.3454,0.4216,0.5774,1.7615,1.7615,1.7615,1.7589,1.7656,1.8182,1.8421,1.8479,1.8761,1.8881,1.8794,1.8538,1.8392,1.8357,1.8275,1.8135,1.7995,1.7966,1.7843,1.7778,1.8035,1.8275,1.8363,1.8619,1.859,1.8444,1.8706,1.8823,1.8735,1.8596,1.8561,1.8852,1.8881,1.8735,1.8596,1.8735,1.8619,1.7941,1.705,1.7103,1.773,1.5618,1.4267,1.3888,1.2691,1.1433,1.0343,1.0267,1.0329,1.0342,1.0412,1.0548,1.068,1.0721,1.0677,1.0721,1.0721,1.0721,1.0721,1.0721,1.0721,1.0721,1.0721,1.0721,1.0721,1.0721,1.0721,1.0721,1.0721,1.0721,1.0721,1.0721,1.0721,1.0721,1.0721,1.0721,1.0721,1.0721,1.0721,1.0721,1.0721,1.0721,1.0721,1.0721,1.0721,1.0721,1.0721,1.0721,1.0721,1.0721,1.0721,1.0727,1.0741,1.0752,1.0772,1.0874,1.071,1.0166,0.8705,0.6973,0.5067,0.3536,0.2072,0.1877,0.167,0.1493,0.0,0.0,0.0,0.073,0.113,0.1712,0.2293,0.3019,0.4435,1.7615,1.7615,1.7615,1.7483,1.7384,1.7895,1.8006,1.7916,1.8352,1.8512,1.848,1.8223,1.8112,1.8083,1.7866,1.769,1.7661,1.7631,1.7608,1.7543,1.7631,1.7895,1.8083,1.82,1.82,1.8165,1.8392,1.8421,1.8252,1.834,1.8415,1.8532,1.8532,1.8502,1.8421,1.8473,1.7941,1.7138,1.6721,1.609,1.544,1.3874,1.2867,1.2725,1.1472,1.0664,1.0358,1.0524,1.0544,1.0456,1.0578,1.067,1.0681,1.0721,1.0721,1.0721,1.0721,1.0721,1.0721,1.0721,1.0721,1.0721,1.0721,1.0721,1.0721,1.0721,1.0721,1.0721,1.0721,1.0721,1.0721,1.0721,1.0721,1.0721,1.0721,1.0721,1.0721,1.0721,1.0721,1.0721,1.0721,1.0721,1.0721,1.0721,1.0721,1.0721,1.0721,1.0721,1.0721,1.0721,1.0721,1.0735,1.0765,1.0826,1.0894,1.1033,1.1038,1.0912,0.9701,0.8048,0.6006,0.4015,0.2566,0.153,0.1384,0.1203,0.0,0.0,0.0,0.0,0.0,0.0,0.0,0.1712,0.342,1.7536,1.743,1.743,1.7246,1.7066,1.7492,1.7633,1.7665,1.7925,1.8145,1.814,1.7931,1.7784,1.7755,1.7608,1.7485,1.7485,1.7485,1.7485,1.7485,1.7514,1.7602,1.7784,1.7914,1.7937,1.782,1.8112,1.8142,1.8025,1.8048,1.81,1.8223,1.8223,1.8158,1.8006,1.8129,1.783,1.6903,1.6007,1.5114,1.4882,1.2518,1.1872,1.182,1.0928,1.0354,1.0568,1.0673,1.0673,1.0622,1.067,1.0721,1.0721,1.0721,1.0721,1.0721,1.0721,1.0721,1.0721,1.0721,1.0721,1.0721,1.0721,1.0721,1.0721,1.0721,1.0721,1.0721,1.0721,1.0721,1.0721,1.0721,1.0721,1.0721,1.0721,1.0721,1.0721,1.0721,1.0721,1.0721,1.0721,1.0721,1.0721,1.0721,1.0721,1.0721,1.0721,1.0721,1.0721,1.0724,1.0761,1.0799,1.086,1.0924,1.1029,1.1175,1.1281,1.1154,1.0371,0.8774,0.6648,0.4485,0.2905,0.1677,0.1277,0.0,0.0,0.0,0.0,0.0,0.0,0.0,0.0,0.1275,0.2912,1.7404,1.7206,1.7146,1.6955,1.6721,1.7014,1.7285,1.7474,1.7537,1.7718,1.7829,1.7631,1.7543,1.7485,1.7514,1.7485,1.7485,1.7485,1.7485,1.7485,1.7485,1.7514,1.7573,1.779,1.7755,1.7608,1.7849,1.7908,1.7849,1.7661,1.7696,1.7872,1.7937,1.7784,1.769,1.7813,1.7784,1.7091,1.5421,1.4709,1.455,1.2346,1.1197,1.142,1.1041,1.057,1.0663,1.0721,1.0711,1.0717,1.0721,1.0721,1.0721,1.0721,1.0721,1.0721,1.0721,1.0721,1.0721,1.0721,1.0721,1.0721,1.0721,1.0721,1.0721,1.0721,1.0721,1.0721,1.0721,1.0721,1.0721,1.0721,1.0721,1.0721,1.0721,1.0721,1.0721,1.0721,1.0721,1.0721,1.0721,1.0721,1.0721,1.0721,1.0721,1.0721,1.0727,1.0751,1.0772,1.0769,1.0836,1.0965,1.1019,1.1067,1.1189,1.1318,1.1375,1.1344,1.059,0.9178,0.6975,0.4936,0.3236,0.2005,0.1167,0.0,0.0,0.0,0.0,0.0,0.0,0.0,0.1712,0.1821,0.2838,1.7252,1.7173,1.6895,1.663,1.6447,1.669,1.6833,1.6908,1.7143,1.737,1.756,1.7514,1.7485,1.7485,1.7485,1.7485,1.7485,1.7485,1.7485,1.7485,1.7485,1.7485,1.7485,1.7602,1.7573,1.7514,1.7573,1.7602,1.7573,1.7573,1.7514,1.7602,1.7661,1.7573,1.7543,1.7573,1.7602,1.7244,1.5871,1.4735,1.4075,1.2545,1.1162,1.1002,1.0725,1.0696,1.0707,1.0721,1.0721,1.0721,1.0721,1.0721,1.0721,1.0721,1.0721,1.0721,1.0721,1.0721,1.0721,1.0721,1.0721,1.0721,1.0721,1.0721,1.0721,1.0721,1.0721,1.0721,1.0721,1.0721,1.0721,1.0721,1.0721,1.0721,1.0721,1.0721,1.0721,1.0721,1.0721,1.0721,1.0721,1.0721,1.0721,1.0721,1.0721,1.0721,1.0751,1.0785,1.0796,1.0846,1.0955,1.1097,1.1168,1.1226,1.1289,1.1362,1.1261,1.1258,1.0595,0.9546,0.7372,0.5779,0.4183,0.244,0.0803,0.0,0.0,0.0,0.0,0.0,0.0,0.0,0.2366,0.2439,0.3492,1.7047,1.6755,1.6583,1.6344,1.6156,1.6264,1.6469,1.667,1.6845,1.7123,1.7424,1.7485,1.7485,1.7485,1.7485,1.7485,1.7485,1.7485,1.7485,1.7485,1.7485,1.7485,1.7485,1.7485,1.7485,1.7485,1.7485,1.7485,1.7485,1.7485,1.7485,1.7485,1.7485,1.7514,1.7485,1.7485,1.7514,1.7091,1.5634,1.439,1.3777,1.2101,1.1145,1.0704,1.0644,1.0721,1.0721,1.0721,1.0721,1.0721,1.0721,1.0721,1.0721,1.0721,1.0721,1.0721,1.0721,1.0721,1.0721,1.0721,1.0721,1.0721,1.0721,1.0721,1.0721,1.0721,1.0721,1.0721,1.0721,1.0721,1.0721,1.0721,1.0721,1.0721,1.0721,1.0721,1.0721,1.0721,1.0721,1.0721,1.0721,1.0721,1.0721,1.0721,1.0694,1.0701,1.0806,1.0843,1.0887,1.0948,1.1124,1.1233,1.1314,1.1392,1.1406,1.1327,1.1103,1.0969,1.0653,0.9474,0.7808,0.6503,0.5271,0.3602,0.2003,0.1458,0.0,0.0,0.0583,0.0,0.0,0.0,0.3529,0.4545,0.5851,1.6749,1.6297,1.6244,1.6105,1.5918,1.5924,1.6202,1.6592,1.6688,1.6984,1.737,1.7455,1.7485,1.7485,1.7485,1.7485,1.7485,1.7485,1.7485,1.7485,1.7485,1.7485,1.7514,1.7543,1.7573,1.7514,1.7485,1.7485,1.7485,1.7485,1.7485,1.7485,1.7485,1.7485,1.7485,1.7485,1.7485,1.7214,1.555,1.4233,1.3731,1.1988,1.1056,1.0679,1.0711,1.0721,1.0721,1.0721,1.0721,1.0721,1.0721,1.0721,1.0721,1.0721,1.0721,1.0721,1.0721,1.0721,1.0721,1.0721,1.0721,1.0721,1.0721,1.0721,1.0721,1.0721,1.0721,1.0721,1.0721,1.0721,1.0721,1.0721,1.0721,1.0721,1.0721,1.0721,1.0721,1.0721,1.0721,1.0721,1.0721,1.0721,1.0721,1.0721,1.0701,1.0738,1.085,1.0948,1.0999,1.1073,1.1253,1.1365,1.1447,1.1303,1.1301,1.1253,1.1002,1.0711,1.0488,0.9585,0.8425,0.781,0.6723,0.5017,0.371,0.3093,0.2585,0.2258,0.2258,0.2547,0.3019,0.3747,0.5091,0.6725,0.7779,1.6377,1.6271,1.6078,1.5945,1.5885,1.5885,1.6072,1.6362,1.661,1.6869,1.7171,1.7411,1.7485,1.7485,1.7485,1.7485,1.7485,1.7485,1.7485,1.7485,1.7485,1.7485,1.7514,1.7696,1.7719,1.7543,1.7514,1.7543,1.7485,1.7485,1.7485,1.7485,1.7485,1.7485,1.7485,1.7485,1.7485,1.7338,1.6071,1.5054,1.4096,1.2847,1.1492,1.0869,1.0721,1.0721,1.0721,1.0721,1.0721,1.0721,1.0721,1.0721,1.0721,1.0721,1.0721,1.0721,1.0721,1.0721,1.0721,1.0721,1.0721,1.0721,1.0721,1.0721,1.0721,1.0721,1.0721,1.0721,1.0721,1.0721,1.0721,1.0721,1.0721,1.0721,1.0721,1.0721,1.0721,1.0721,1.0721,1.0721,1.0721,1.0721,1.0724,1.0751,1.0769,1.0833,1.0948,1.1087,1.1191,1.1297,1.1399,1.1494,1.1579,1.1338,1.1106,1.1031,1.0861,1.0494,1.0236,1.0023,0.9227,0.9193,0.8174,0.6505,0.5272,0.4511,0.4075,0.3748,0.3894,0.4146,0.451,0.491,0.6326,0.767,0.7996,1.6563,1.6297,1.6137,1.6025,1.5918,1.5912,1.6036,1.6329,1.6573,1.6845,1.7105,1.7352,1.7485,1.7485,1.7485,1.7485,1.7485,1.7485,1.7485,1.7485,1.7485,1.7485,1.7485,1.7696,1.7755,1.7726,1.7755,1.7661,1.7514,1.7485,1.7514,1.7485,1.7485,1.7485,1.7485,1.7485,1.7485,1.7268,1.6532,1.5768,1.4985,1.3618,1.208,1.1087,1.0721,1.0721,1.0721,1.0721,1.0721,1.0721,1.0721,1.0721,1.0721,1.0721,1.0721,1.0721,1.0721,1.0721,1.0721,1.0721,1.0721,1.0721,1.0721,1.0721,1.0721,1.0721,1.0721,1.0721,1.0721,1.0721,1.0721,1.0721,1.0721,1.0721,1.0721,1.0721,1.0721,1.0721,1.0721,1.0721,1.0721,1.0724,1.0708,1.0752,1.083,1.0931,1.1046,1.1229,1.1385,1.1457,1.1518,1.1555,1.1577,1.1364,1.1077,1.0861,1.0681,1.0314,0.9984,0.9735,0.959,0.9374,0.8977,0.796,0.6944,0.5963,0.5492,0.5165,0.5419,0.5709,0.5963,0.6435,0.7523,0.8396,0.8649,1.6755,1.6297,1.6244,1.6105,1.5918,1.5885,1.6027,1.6257,1.6483,1.6754,1.7032,1.7274,1.7454,1.7502,1.7485,1.7485,1.7485,1.7485,1.7485,1.7485,1.7485,1.7485,1.7514,1.7608,1.7726,1.7784,1.8018,1.7931,1.7778,1.7661,1.7631,1.7602,1.7573,1.7485,1.7485,1.7485,1.752,1.7333,1.6941,1.6466,1.5511,1.3944,1.2128,1.0886,1.0721,1.0721,1.0721,1.0721,1.0721,1.0721,1.0721,1.0721,1.0721,1.0721,1.0721,1.0721,1.0721,1.0721,1.0721,1.0721,1.0721,1.0721,1.0721,1.0721,1.0721,1.0721,1.0721,1.0721,1.0721,1.0721,1.0721,1.0721,1.0721,1.0721,1.0721,1.0721,1.0721,1.0721,1.0721,1.0721,1.0721,1.0727,1.0711,1.0809,1.089,1.106,1.1175,1.1324,1.147,1.1535,1.1586,1.156,1.1544,1.1364,1.1077,1.0714,1.0462,1.0098,0.9771,0.9482,0.941,0.9302,0.8941,0.8649,0.8288,0.7381,0.6944,0.6727,0.7053,0.7306,0.7417,0.7779,0.8504,0.8832,0.9013,1.6357,1.6297,1.6051,1.5918,1.5885,1.5885,1.5903,1.6009,1.6269,1.6483,1.6761,1.7038,1.7309,1.7443,1.7485,1.7485,1.7485,1.7485,1.7485,1.7485,1.7485,1.7485,1.7543,1.7813,1.7726,1.7784,1.8135,1.8334,1.8181,1.7989,1.7908,1.7878,1.7696,1.7514,1.7573,1.7573,1.7635,1.7823,1.7876,1.6983,1.5193,1.3602,1.2121,1.1078,1.0721,1.0721,1.0721,1.0721,1.0721,1.0721,1.0721,1.0721,1.0721,1.0721,1.0721,1.0721,1.0721,1.0721,1.0721,1.0721,1.0721,1.0721,1.0721,1.0721,1.0721,1.0721,1.0721,1.0721,1.0721,1.0721,1.0721,1.0721,1.0721,1.0721,1.0721,1.0721,1.0721,1.0721,1.0721,1.0721,1.0721,1.0734,1.0751,1.084,1.0961,1.1134,1.1277,1.1426,1.1496,1.1481,1.1476,1.144,1.1293,1.1109,1.093,1.0603,1.0314,0.9915,0.9627,0.9304,0.9304,0.9304,0.9304,0.9049,0.8796,0.8688,0.8324,0.8285,0.8649,0.8649,0.8432,0.8685,0.9121,0.9304,0.9304,1.653,1.6497,1.6238,1.6025,1.5885,1.5885,1.5885,1.5946,1.6196,1.6371,1.6531,1.6917,1.7237,1.7443,1.7485,1.7485,1.7485,1.7485,1.7485,1.7485,1.7485,1.7485,1.7514,1.7661,1.7631,1.7843,1.8025,1.8223,1.8275,1.8275,1.8165,1.8025,1.7989,1.7924,1.7784,1.7784,1.7825,1.7757,1.7434,1.6488,1.4989,1.3534,1.2161,1.0784,1.0717,1.0721,1.0721,1.0721,1.0721,1.0721,1.0721,1.0721,1.0721,1.0721,1.0721,1.0721,1.0721,1.0721,1.0721,1.0721,1.0721,1.0721,1.0721,1.0721,1.0721,1.0721,1.0721,1.0721,1.0721,1.0721,1.0721,1.0721,1.0721,1.0721,1.0721,1.0721,1.0721,1.0721,1.0721,1.0721,1.0727,1.0758,1.0816,1.0962,1.1077,1.1182,1.1345,1.1475,1.1435,1.1315,1.126,1.1224,1.1038,1.0818,1.0603,1.0347,1.0167,0.9843,0.9557,0.9341,0.9304,0.9304,0.9304,0.9304,0.9121,0.9157,0.9304,0.923,0.9049,0.9157,0.9302,0.9304,0.9304,0.9304,0.9304,1.665,1.6577,1.6318,1.6084,1.5885,1.5885,1.5885,1.5942,1.6112,1.6245,1.6444,1.6845,1.7237,1.7436,1.7485,1.7485,1.7485,1.7485,1.7485,1.7485,1.7485,1.7485,1.7514,1.7543,1.7631,1.7878,1.7972,1.8018,1.8129,1.8275,1.8252,1.8112,1.8135,1.8135,1.8054,1.805,1.8115,1.8119,1.7758,1.661,1.5047,1.396,1.2421,1.1277,1.0721,1.0721,1.0721,1.0721,1.0721,1.0721,1.0721,1.0721,1.0721,1.0721,1.0721,1.0721,1.0721,1.0721,1.0721,1.0721,1.0721,1.0721,1.0721,1.0721,1.0721,1.0721,1.0721,1.0721,1.0721,1.0721,1.0721,1.0721,1.0721,1.0721,1.0721,1.0721,1.0721,1.0721,1.0721,1.0721,1.0744,1.0779,1.0863,1.1091,1.1203,1.1281,1.1399,1.1514,1.1332,1.108,1.0969,1.0894,1.0786,1.0599,1.0455,1.0239,1.0023,0.9771,0.9485,0.9341,0.9304,0.9304,0.9304,0.9304,0.9304,0.9304,0.9304,0.9304,0.9304,0.9304,0.9304,0.9304,0.9304,0.9304,0.9304,1.6551,1.6297,1.6051,1.5918,1.5885,1.5885,1.5885,1.5885,1.5916,1.6105,1.6365,1.6821,1.723,1.7442,1.7467,1.7485,1.7485,1.7485,1.7485,1.7485,1.7485,1.7485,1.7485,1.7485,1.7514,1.7631,1.7784,1.7784,1.7778,1.81,1.8275,1.8392,1.8282,1.8112,1.8091,1.8219,1.8348,1.8423,1.8264,1.707,1.5516,1.4287,1.3173,1.1244,1.0721,1.0721,1.0721,1.0721,1.0721,1.0721,1.0721,1.0721,1.0721,1.0721,1.0721,1.0721,1.0721,1.0721,1.0721,1.0721,1.0721,1.0721,1.0721,1.0721,1.0721,1.0721,1.0721,1.0721,1.0721,1.0721,1.0721,1.0721,1.0721,1.0721,1.0721,1.0721,1.0721,1.0721,1.0721,1.0721,1.0688,1.0675,1.0688,1.083,1.1185,1.1269,1.1259,1.1368,1.1002,1.075,1.0603,1.0491,1.0491,1.0416,1.038,1.0164,0.9807,0.9663,0.9482,0.9374,0.9304,0.9304,0.9304,0.9304,0.9304,0.9304,0.9304,0.9304,0.9304,0.9304,0.9304,0.9304,0.9304,0.9304,0.9304,1.6624,1.653,1.6078,1.5885,1.5885,1.5885,1.5885,1.5885,1.5891,1.603,1.6329,1.6682,1.6996,1.7254,1.746,1.7485,1.7485,1.7485,1.7485,1.7485,1.7485,1.7485,1.7485,1.7485,1.7485,1.7514,1.7631,1.7661,1.7602,1.7837,1.7989,1.8106,1.834,1.8398,1.8391,1.8281,1.8379,1.8287,1.7989,1.6753,1.5298,1.3862,1.2684,1.0982,1.0721,1.0721,1.0721,1.0721,1.0721,1.0721,1.0721,1.0721,1.0721,1.0721,1.0721,1.0721,1.0721,1.0721,1.0721,1.0721,1.0721,1.0721,1.0721,1.0721,1.0721,1.0721,1.0721,1.0721,1.0721,1.0721,1.0721,1.0721,1.0721,1.0721,1.0721,1.0721,1.0688,1.0688,1.0621,1.0588,1.0478,1.0421,1.0451,1.0522,1.0907,1.1256,1.1219,1.1113,1.075,1.0386,1.0203,1.0059,1.0059,0.9951,0.9915,0.9735,0.9557,0.9482,0.941,0.9374,0.9304,0.9304,0.9304,0.9304,0.9304,0.9304,0.9304,0.9304,0.9304,0.9304,0.9304,0.9304,0.9304,0.9304,0.9304,1.6657,1.6524,1.6072,1.5885,1.5885,1.5885,1.5885,1.5885,1.5885,1.6042,1.6323,1.6573,1.6845,1.7111,1.7358,1.7479,1.7485,1.7485,1.7485,1.7485,1.7485,1.7485,1.7485,1.7485,1.7485,1.7485,1.7485,1.7485,1.7514,1.7485,1.7726,1.8054,1.8369,1.8369,1.8319,1.8293,1.8318,1.8223,1.79,1.691,1.5586,1.4254,1.2914,1.1538,1.1049,1.0721,1.0721,1.0721,1.0721,1.0721,1.0721,1.0721,1.0721,1.0721,1.0721,1.0721,1.0721,1.0721,1.0721,1.0721,1.0721,1.0721,1.0721,1.0721,1.0721,1.0721,1.0721,1.0721,1.0721,1.0721,1.0721,1.0721,1.0721,1.0721,1.0721,1.0721,1.0621,1.0588,1.0522,1.0455,1.0319,1.0114,1.0212,1.0288,1.0531,1.0793,1.0671,1.0567,1.035,1.0026,0.9774,0.9665,0.9557,0.9449,0.9338,0.9377,0.9449,0.9413,0.9374,0.9338,0.9304,0.9304,0.9304,0.9304,0.9304,0.9304,0.9304,0.9304,0.9304,0.9304,0.9304,0.9304,0.9304,0.9304,0.9304,1.6577,1.6297,1.6025,1.5912,1.5885,1.5885,1.5885,1.5885,1.5918,1.6045,1.6287,1.6543,1.6809,1.7062,1.7304,1.743,1.7485,1.7485,1.7485,1.7485,1.7485,1.7485,1.7485,1.7485,1.7485,1.7485,1.7485,1.7485,1.7485,1.7485,1.7696,1.7849,1.8025,1.8083,1.8016,1.8203,1.8417,1.8662,1.8769,1.791,1.6462,1.507,1.3829,1.2161,1.1178,1.0721,1.0721,1.0721,1.0721,1.0721,1.0721,1.0721,1.0721,1.0721,1.0721,1.0721,1.0721,1.0721,1.0721,1.0721,1.0721,1.0721,1.0721,1.0721,1.0721,1.0721,1.0721,1.0721,1.0721,1.0721,1.0721,1.0721,1.0721,1.0721,1.0721,1.0621,1.0555,1.0455,1.0389,1.019,0.994,0.9753,0.9924,1.0061,1.0209,1.026,1.0105,0.9987,0.9879,0.9738,0.9521,0.9449,0.9377,0.9341,0.9304,0.9304,0.9341,0.9304,0.9304,0.9304,0.9304,0.9304,0.9304,0.9304,0.9304,0.9304,0.9304,0.9304,0.9304,0.9304,0.9304,0.9304,0.9304,0.9304,0.9304,1.6849,1.6551,1.6291,1.6057,1.5912,1.5885,1.5885,1.5885,1.5924,1.5972,1.606,1.6308,1.6573,1.6839,1.7117,1.7322,1.7467,1.7485,1.7485,1.7485,1.7485,1.7485,1.7485,1.7485,1.7485,1.7485,1.7485,1.7485,1.7485,1.7485,1.7543,1.7661,1.7726,1.779,1.7929,1.8075,1.8167,1.8428,1.8444,1.7851,1.5891,1.507,1.3862,1.1699,1.1016,1.0721,1.0721,1.0721,1.0721,1.0721,1.0721,1.0721,1.0721,1.0721,1.0721,1.0721,1.0721,1.0721,1.0721,1.0721,1.0721,1.0721,1.0721,1.0721,1.0721,1.0721,1.0721,1.0721,1.0721,1.0721,1.0721,1.0721,1.0721,1.0721,1.0688,1.0522,1.0422,1.0326,1.0193,0.9857,0.9567,0.9329,0.9322,0.9535,0.9666,0.985,0.9727,0.9646,0.959,0.9518,0.9377,0.9377,0.9341,0.9304,0.9304,0.9304,0.9304,0.9304,0.9304,0.9304,0.9304,0.9304,0.9304,0.9304,0.9304,0.9304,0.9304,0.9304,0.9304,0.9304,0.9304,0.9304,0.9304,0.9304,0.9304,1.7008,1.6677,1.6424,1.6344,1.6285,1.6019,1.5885,1.5885,1.5885,1.5885,1.5952,1.6175,1.6447,1.6718,1.6972,1.726,1.7467,1.7485,1.7485,1.7485,1.7485,1.7485,1.7485,1.7485,1.7485,1.7485,1.7485,1.7485,1.7485,1.7485,1.7514,1.7514,1.7485,1.7631,1.7776,1.7882,1.8058,1.8318,1.8421,1.7863,1.6238,1.5005,1.3829,1.2095,1.1078,1.0721,1.0721,1.0721,1.0721,1.0721,1.0721,1.0721,1.0721,1.0721,1.0721,1.0721,1.0721,1.0721,1.0721,1.0721,1.0721,1.0721,1.0721,1.0721,1.0721,1.0721,1.0721,1.0721,1.0721,1.0721,1.0721,1.0721,1.0717,1.0717,1.0555,1.0389,1.019,1.0093,0.9755,0.9455,0.9201,0.8968,0.8838,0.8923,0.9103,0.9227,0.9344,0.9333,0.9357,0.9335,0.9302,0.9304,0.9304,0.9304,0.9304,0.9304,0.9304,0.9304,0.9304,0.9304,0.9304,0.9304,0.9304,0.9304,0.9304,0.9304,0.9304,0.9304,0.9304,0.9304,0.9304,0.9304,0.9304,0.9304,0.9304,1.7093,1.6736,1.6504,1.6789,1.7041,1.6465,1.6099,1.5965,1.5912,1.5885,1.591,1.6163,1.6416,1.6706,1.696,1.7242,1.7466,1.7479,1.7485,1.7485,1.7485,1.7485,1.7485,1.7485,1.7485,1.7485,1.7485,1.7485,1.7485,1.7485,1.7485,1.7485,1.7485,1.7543,1.7622,1.7755,1.798,1.8221,1.837,1.7785,1.6556,1.5446,1.4287,1.2816,1.1637,1.1049,1.0916,1.0883,1.075,1.0721,1.0721,1.0721,1.0721,1.0721,1.0721,1.0721,1.0721,1.0721,1.0721,1.0721,1.0721,1.0721,1.0721,1.0721,1.0721,1.0721,1.0721,1.0721,1.0721,1.0721,1.0721,1.0684,1.0684,1.0555,1.0389,1.019,0.999,0.9688,0.9319,0.9017,0.882,0.8703,0.8738,0.8783,0.8848,0.8967,0.9114,0.916,0.9193,0.9294,0.9296,0.9304,0.9304,0.9304,0.9304,0.9304,0.9304,0.9304,0.9304,0.9304,0.9304,0.9304,0.9304,0.9304,0.9304,0.9304,0.9304,0.9304,0.9304,0.9304,0.9304,0.9304,0.9304,0.9304,0.9304,1.8232,1.772,1.8375,1.8427,1.8048,1.7786,1.7364,1.6809,1.6205,1.5912,1.5897,1.597,1.6272,1.6688,1.6785,1.7092,1.7334,1.7485,1.7485,1.7485,1.7485,1.7485,1.7485,1.7485,1.7485,1.7485,1.7485,1.7485,1.7485,1.7485,1.7485,1.7485,1.7485,1.7485,1.7509,1.7593,1.7798,1.804,1.8287,1.7741,1.6823,1.5647,1.4744,1.3796,1.2128,1.1608,1.1769,1.1178,1.0949,1.0721,1.0721,1.0721,1.0721,1.0721,1.0721,1.0721,1.0721,1.0721,1.0721,1.0721,1.0721,1.0721,1.0721,1.0721,1.0721,1.0721,1.0721,1.0721,1.0721,1.0721,1.0688,1.0654,1.0555,1.0389,1.019,0.9891,0.9655,0.9353,0.8984,0.8817,0.862,0.8634,0.8668,0.8723,0.8788,0.8845,0.8913,0.8965,0.9063,0.9163,0.9266,0.9269,0.9304,0.9304,0.9304,0.9304,0.9304,0.9304,0.9304,0.9304,0.9304,0.9304,0.9304,0.9304,0.9304,0.9304,0.9304,0.9304,0.9304,0.9304,0.9304,0.9304,0.9304,0.9304,0.9304,1.9124,1.9053,1.9627,1.9635,1.925,1.9023,1.8598,1.8015,1.6915,1.6258,1.5912,1.5891,1.6154,1.6495,1.6664,1.693,1.7292,1.7436,1.7485,1.7485,1.7514,1.7485,1.7485,1.7514,1.7485,1.7485,1.7485,1.7485,1.7485,1.7485,1.7485,1.7485,1.7485,1.7485,1.7491,1.7509,1.7593,1.7835,1.7894,1.7512,1.6782,1.5973,1.5589,1.4744,1.2947,1.2849,1.2717,1.1835,1.1409,1.085,1.0721,1.0721,1.0721,1.0721,1.0721,1.0721,1.0721,1.0721,1.0721,1.0721,1.0721,1.0721,1.0721,1.0721,1.0721,1.0721,1.0721,1.0721,1.0721,1.0688,1.0654,1.0555,1.0389,1.0223,0.9888,0.9588,0.9286,0.902,0.882,0.8687,0.862,0.862,0.8656,0.871,0.8706,0.8731,0.8783,0.8861,0.8976,0.9065,0.9136,0.9171,0.9261,0.9304,0.9294,0.9275,0.9283,0.9285,0.9304,0.9304,0.9302,0.9304,0.9304,0.9304,0.9304,0.9304,0.9304,0.9304,0.9304,0.9304,0.9304,0.9304,0.9304,0.9304,0.9304,1.9878,2.0487,2.0487,2.0511,2.0431,1.9983,1.9732,1.9543,1.8068,1.6889,1.6205,1.6045,1.6204,1.6411,1.6585,1.6845,1.7194,1.7434,1.7543,1.7514,1.769,1.769,1.7631,1.7573,1.769,1.7602,1.7543,1.7573,1.7514,1.7485,1.7485,1.7485,1.7485,1.7485,1.7485,1.7485,1.7521,1.7641,1.7865,1.7782,1.7163,1.6722,1.6474,1.5619,1.4842,1.439,1.3571,1.2882,1.2355,1.1538,1.0949,1.1049,1.0717,1.0721,1.0721,1.0721,1.0721,1.0721,1.0721,1.0721,1.0721,1.0721,1.0721,1.0721,1.0721,1.0721,1.0721,1.0654,1.0654,1.0555,1.0489,1.0256,1.0057,0.9854,0.9552,0.9253,0.902,0.882,0.872,0.862,0.862,0.862,0.8626,0.8675,0.868,0.8672,0.8666,0.8776,0.8829,0.8965,0.9011,0.9071,0.9117,0.919,0.9198,0.9193,0.9239,0.9258,0.9269,0.9299,0.9299,0.9299,0.9304,0.9304,0.9304,0.9304,0.9304,0.9302,0.9299,0.9304,0.9304,0.9304,0.9302,0.9291,0.9304,2.1591,2.1371,2.1395,2.1182,2.0806,2.066,2.0248,1.9672,1.9309,1.8251,1.7067,1.6855,1.6656,1.6457,1.6565,1.6803,1.7109,1.7501,1.7666,1.7778,1.7895,1.7983,1.796,1.8012,1.8018,1.7937,1.7849,1.7719,1.7543,1.7485,1.7485,1.7485,1.7485,1.7485,1.7485,1.7485,1.7497,1.7538,1.7709,1.7991,1.7748,1.7233,1.677,1.6776,1.6592,1.5749,1.5066,1.4772,1.4418,1.3862,1.2783,1.1864,1.0784,1.075,1.0721,1.0721,1.0721,1.0721,1.0721,1.0721,1.0721,1.0721,1.0721,1.0721,1.0721,1.0721,1.0688,1.0621,1.0522,1.0422,1.0223,0.9957,0.9724,0.9452,0.9217,0.8984,0.8753,0.8687,0.862,0.862,0.862,0.862,0.862,0.862,0.862,0.8626,0.86,0.8641,0.8682,0.8783,0.8883,0.8911,0.896,0.8995,0.9027,0.9057,0.9095,0.9122,0.9128,0.9179,0.9239,0.925,0.9223,0.928,0.9304,0.9258,0.9245,0.9291,0.9291,0.9258,0.9247,0.9223,0.9245,0.9211,0.9277,2.2619,2.2769,2.2501,2.2097,2.1623,2.1369,2.0865,2.0308,2.0248,1.9509,1.8251,1.7575,1.6999,1.6626,1.6612,1.6704,1.7027,1.7535,1.7743,1.7887,1.8129,1.8223,1.8311,1.8369,1.8282,1.82,1.8031,1.7849,1.7573,1.7485,1.7485,1.7485,1.7485,1.7485,1.7485,1.7485,1.7485,1.7491,1.7654,1.7847,1.8137,1.7843,1.7805,1.8047,1.7825,1.7049,1.6462,1.6106,1.5591,1.4712,1.3436,1.2062,1.1078,1.0721,1.0721,1.0721,1.0721,1.0721,1.0721,1.0721,1.0754,1.082,1.0684,1.0684,1.0455,1.0422,1.0422,1.0356,1.0359,1.0256,0.9924,0.9661,0.9455,0.9217,0.8984,0.8753,0.8687,0.8653,0.862,0.862,0.862,0.862,0.862,0.862,0.862,0.862,0.8623,0.859,0.8619,0.8638,0.8728,0.8799,0.8822,0.8892,0.8954,0.8971,0.8976,0.9,0.9019,0.9044,0.9076,0.909,0.9141,0.9163,0.9163,0.909,0.9098,0.9144,0.9122,0.9063,0.9071,0.9087,0.9119,0.9138,0.9119,2.3263,2.3969,2.3479,2.2929,2.2375,2.1903,2.1369,2.0917,2.0873,2.0506,1.9672,1.8225,1.7536,1.7032,1.6833,1.6738,1.6949,1.7631,1.7856,1.8073,1.8415,1.8538,1.8567,1.8567,1.8567,1.8421,1.8223,1.7937,1.7638,1.7638,1.7608,1.7514,1.7485,1.7485,1.7485,1.7485,1.7485,1.7485,1.7563,1.763,1.7974,1.8342,1.8498,1.8685,1.879,1.8372,1.7613,1.7082,1.65,1.5489,1.4184,1.2425,1.1244,1.0721,1.0721,1.0721,1.0721,1.0721,1.0721,1.0721,1.0886,1.0982,1.0817,1.0618,1.0386,1.019,1.019,1.0024,1.0024,0.9924,0.9591,0.9325,0.912,0.8984,0.8787,0.862,0.862,0.862,0.862,0.862,0.862,0.862,0.862,0.862,0.862,0.862,0.862,0.862,0.8626,0.8637,0.8649,0.8701,0.8747,0.8786,0.8843,0.8849,0.8832,0.8878,0.8895,0.8903,0.8924,0.8979,0.8995,0.8965,0.8954,0.8965,0.8965,0.8992,0.8952,0.893,0.8971,0.9006,0.8998,0.9,0.8946,2.3712,2.3454,2.3329,2.2753,2.1954,2.1751,2.1402,2.095,2.0899,2.0796,2.0403,1.9646,1.8598,1.7265,1.7608,1.7603,1.7415,1.7906,1.8164,1.8383,1.8823,1.8917,1.8917,1.8952,1.8968,1.8765,1.848,1.8188,1.7931,1.7878,1.7755,1.7537,1.7543,1.7514,1.7485,1.7485,1.7485,1.7485,1.7485,1.7539,1.7599,1.7968,1.8312,1.8536,1.8728,1.8732,1.8643,1.8708,1.8553,1.7668,1.5749,1.3309,1.1736,1.0817,1.0721,1.0721,1.0721,1.0721,1.0721,1.0949,1.1211,1.1571,1.1339,1.0909,1.0581,1.012,0.9921,0.9416,0.9353,0.9353,0.912,0.892,0.8753,0.8753,0.862,0.862,0.862,0.862,0.862,0.862,0.862,0.862,0.862,0.862,0.862,0.862,0.862,0.862,0.862,0.862,0.862,0.8622,0.866,0.8633,0.8655,0.8698,0.8706,0.8761,0.881,0.8823,0.883,0.8908,0.8911,0.8846,0.8865,0.8897,0.8892,0.8841,0.8868,0.8862,0.8906,0.893,0.8906,0.8868,0.8816]},{"header":{"parameterUnit":"m.s-1","parameterCategory":1,"la1":31.0,"la2":29.5877,"lo1":-88.7671,"lo2":-86.6584,"dy":0.0162,"dx":0.0185,"nx":115,"ny":88,"refTime":"2023-09-23T12:00:00:Z","depth":0,"parameterNumber":3,"parameterNumberName":"V-component_of_WINDS"},"data":[0.0,0.0,0.0,0.0,0.0,0.0,0.0,0.0,0.0,0.0,0.0,0.0,0.0,0.0,0.0,0.0,0.0,0.0,0.0,0.0,0.0,0.0,0.0,0.0,0.0,0.0,0.0,0.0,0.0,0.0,0.0,0.0,0.0,0.0,0.0,0.0,0.0,0.0,0.0,0.0,0.0,0.0,0.0,0.0,0.0,0.0,0.0,0.0,0.0,0.0,0.0,0.0,0.0,0.0,0.0,0.0,0.0,0.0,0.0,0.0,0.0,0.0,0.0,0.0,0.0,0.0,0.0,0.0,0.0,0.0,0.0,0.0,0.0,0.0,0.0,0.0,0.0,0.0,0.0,0.0,0.0,0.0,0.0,0.0,0.0,0.0,0.0,0.0,0.0,0.0,0.0,0.0,0.0,0.0,0.0,0.0,0.0,0.0,0.0,0.0,0.0,0.0,0.0,0.0,0.0,0.0,0.0,0.0,0.0,0.0,0.0,0.0,0.0,0.0,0.0,0.0,0.0,0.0,0.0,0.0,0.0,0.0,0.0,0.0,0.0,0.0,0.0,0.0,0.0,0.0,0.0,0.0,0.0,0.0,0.0,0.0,0.0,0.0,0.0,0.0,0.0,0.0,0.0,0.0,0.0,0.0,0.0,0.0,0.0,0.0,0.0,0.0,0.0,0.0,0.0,0.0,0.0,0.0,0.0,0.0,0.0,0.0,0.0,0.0,0.0,0.0,0.0,0.0,0.0,0.0,0.0,0.0,0.0,0.0,0.0,0.0,0.0,0.0,0.0,0.0,0.0,0.0,0.0,0.0,0.0,0.0,0.0,0.0,0.0,0.0,0.0,0.0,0.0,0.0,0.0,0.0,0.0,0.0,0.0,0.0,0.0,0.0,0.0,0.0,0.0,0.0,0.0,0.0,0.0,0.0,0.0,0.0,0.0,0.0,0.0,0.0,0.0,0.0,0.0,0.0,0.0,0.0,0.0,0.0,0.0,0.0,0.0,0.0,0.0,0.0,0.0,0.0,0.0,0.0,0.0,0.0,0.0,0.0,0.0,0.0,0.0,0.0,0.0,0.0,0.0,0.0,0.0,0.0,0.0,0.0,0.0,0.0,0.0,0.0,0.0,0.0,0.0,0.0,0.0,0.0,0.0,0.0,0.0,0.0,0.0,0.0,0.0,0.0,0.0,0.0,0.0,0.0,0.0,0.0,0.0,0.0,0.0,0.0,0.0,0.0,0.0,0.0,0.0,0.0,0.0,0.0,0.0,0.0,0.0,0.0,0.0,0.0,0.0,0.0,0.0,0.0,0.0,0.0,0.0,0.0,0.0,0.0,0.0,0.0,0.0,0.0,0.0,0.0,0.0,0.0,0.0,0.0,0.0,0.0,0.0,0.0,0.0,0.0,0.0,0.0,0.0,0.0,0.0,0.0,0.0,0.0,0.0,0.0,0.0,0.0,0.0,0.0,0.0,0.0,0.0,0.0,0.0,0.0,0.0,0.0,0.0,0.0,0.0,0.0,0.0,0.0,0.0,0.0,0.0,0.0,0.0,0.0,0.0,0.0,0.0,0.0,0.0,0.0,0.0,0.0,0.0,0.0,0.0,0.0,0.0,0.0,0.0,0.0,0.0,0.0,0.0,0.0,0.0,0.0,0.0,0.0,0.0,0.0,0.0,0.0,0.0,0.0,0.0,0.0,0.0,0.0,0.0,0.0,0.0,0.0,0.0,0.0,0.0,0.0,0.0,0.0,0.0,0.0,0.0,0.0,0.0,0.0,0.0,0.0,0.0,0.0,0.0,0.0,0.0,0.0,0.0,0.0,0.0,0.0,0.0,0.0,0.0,0.0,0.0,0.0,0.0,0.0,0.0,0.0,0.0,0.0,0.0,0.0,0.0,0.0,0.0,0.0,0.0,0.0,0.0,0.0,0.0,0.0,0.0,0.0,0.0,0.0,0.0,0.0,0.0,0.0,0.0,0.0,0.0,0.0,0.0,0.0,0.0,0.0,0.0,0.0,0.0,0.0,0.0,0.0,0.0,0.0,0.0,0.0,0.0,0.0,0.0,0.0,0.0,0.0,0.0,0.0,0.0,0.0,0.0,0.0,0.0,0.0,0.0,0.0,0.0,0.0,0.0,0.0,0.0,0.0,0.0,0.0,0.0,0.0,0.0,0.0,0.0,0.0,0.0,0.0,0.0,0.0,0.0,0.0,0.0,0.0,0.0,0.0,0.0,0.0,0.0,0.0,0.0,0.0,0.0,0.0,0.0,0.0,0.0,0.0,0.0,0.0,0.0,0.0,0.0,0.0,0.0,0.0,0.0,0.0,0.0,0.0,0.0,0.0,0.0,0.0,0.0,0.0,0.0,0.0,0.0,0.0,0.0,0.0,0.0,0.0,0.0,0.0,0.0,0.0,0.0,0.0,0.0,0.0,0.0,0.0,0.0,0.0,0.0,0.0,0.0,0.0,0.0,0.0,0.0,0.0,0.0,0.0,0.0,0.0,0.0,0.0,0.0,0.0,0.0,0.0,0.0,0.0,0.0,0.0,0.0,0.0,0.0,0.0,0.0,0.0,0.0,0.0,0.0,0.0,0.0,0.0,0.0,0.0,0.0,0.0,0.0,0.0,0.0,0.0,0.0,0.0,0.0,0.0,0.0,0.0,0.0,0.0,0.0,0.0,0.0,0.0,0.0,0.0,0.0,0.0,0.0,0.0,0.0,0.0,0.0,0.0,0.0,0.0,0.0,0.0,0.0,0.0,0.0,0.0,0.0,0.0,0.0,0.0,0.0,0.0,0.0,0.0,0.0,0.0,0.0,0.0,0.0,0.0,0.0,0.0,0.0,0.0,0.0,0.0,0.0,0.0,0.0,0.0,0.0,0.0,0.0,0.0,0.0,0.0,0.0,0.0,0.0,0.0,0.0,0.0,0.0,0.0,0.0,0.0,0.0,0.0,0.0,0.0,0.0,0.0,0.0,0.0,0.0,0.0,0.0,0.0,0.0,0.0,0.0,0.0,0.0,0.0,0.0,0.0,0.0,0.0,0.0,0.0,0.0,0.0,0.0,0.0,0.0,0.0,0.0,0.0,0.0,0.0,0.0,0.0,0.0,0.0,0.0,0.0,0.0,0.0,0.0,0.0,0.0,0.0,0.0,0.0,0.0,0.0,0.0,0.0,0.0,0.0,0.0,0.0,0.0,0.0,0.0,0.0,0.0,0.0,0.0,0.0,0.0,0.0,0.0,0.0,0.0,0.0,0.0,0.0,0.0,0.0,0.0,0.0,0.0,0.0,0.0,0.0,0.0,0.0,0.0,0.0,0.0,0.0,0.0,0.0,0.0,0.0,0.0,0.0,0.0,0.0,0.0,0.0,0.0,0.0,0.0,0.0,0.0,0.0,0.0,0.0,0.0,0.0,0.0,0.0,0.0,0.0,0.0,0.0,0.0,0.0,0.0,0.0,0.0,0.0,0.0,0.0,0.0,0.0,0.0,0.0,0.0,0.0,0.0,0.0,0.0,0.0,0.0,0.0,0.0,0.0,0.0,0.0,0.0,0.0,0.0,0.0,0.0,0.0,0.0,0.0,0.0,0.0,0.0,0.0,0.0,0.0,0.0,0.0,0.0,0.0,0.0,0.0,0.0,0.0,0.0,0.0,0.0,0.0,0.0,0.0,0.0,0.0,0.0,0.0,0.0,0.0,0.0,0.0,0.0,0.0,0.0,0.0,0.0,0.0,0.0,0.0,0.0,0.0,0.0,0.0,0.0,0.0,0.0,0.0,0.0,0.0,0.0,0.0,0.0,0.0,0.0,0.0,0.0,0.0,0.0,0.0,0.0,0.0,0.0,0.0,0.0,0.0,0.0,0.0,0.0,0.0,0.0,0.0,0.0,0.0,0.0,0.0,0.0,0.0,0.0,0.0,0.0,0.0,0.0,0.0,0.0,0.0,0.0,0.0,0.0,0.0,0.0,0.0,0.0,0.0,0.0,0.0,0.0,0.0,0.0,0.0,0.0,0.0,0.0,0.0,0.0,0.0,0.0,0.0,0.0,0.0,0.0,0.0,0.0,0.0,0.0,0.0,0.0,0.0,0.0,0.0,0.0,0.0,0.0,0.0,0.0,0.0,0.0,0.0,0.0,0.0,0.0,0.0,0.0,0.0,0.0,0.0,0.0,0.0,0.0,0.0,0.0,0.0,0.0,0.0,0.0,0.0,0.0,0.0,0.0,0.0,0.0,0.0,0.0,0.0,0.0,0.0,0.0,0.0,0.0,0.0,3.8918,0.0,0.0,0.0,0.0,0.0,0.0,0.0,0.0,0.0,0.0,0.0,0.0,0.0,0.0,0.0,0.0,0.0,0.0,0.0,0.0,0.0,0.0,0.0,0.0,0.0,0.0,0.0,0.0,0.0,0.0,0.0,0.0,0.0,0.0,0.0,0.0,0.0,0.0,0.0,0.0,0.0,0.0,0.0,0.0,0.0,0.0,0.0,0.0,0.0,0.0,0.0,0.0,0.0,0.0,0.0,0.0,0.0,0.0,0.0,0.0,0.0,0.0,0.0,0.0,0.0,0.0,0.0,0.0,0.0,0.0,0.0,0.0,0.0,0.0,0.0,0.0,0.0,0.0,0.0,0.0,0.0,0.0,0.0,0.0,0.0,0.0,0.0,0.0,0.0,0.0,0.0,0.0,0.0,0.0,0.0,0.0,0.0,0.0,0.0,0.0,0.0,0.0,0.0,0.0,0.0,0.0,0.0,0.0,0.0,0.0,4.0225,4.0253,4.0229,4.0034,3.9662,0.0,0.0,0.0,0.0,0.0,0.0,0.0,0.0,0.0,0.0,0.0,0.0,0.0,0.0,0.0,0.0,0.0,0.0,0.0,0.0,0.0,0.0,0.0,0.0,0.0,0.0,0.0,0.0,0.0,0.0,0.0,0.0,0.0,0.0,0.0,0.0,0.0,0.0,0.0,0.0,0.0,0.0,0.0,0.0,0.0,0.0,0.0,0.0,0.0,0.0,0.0,0.0,0.0,0.0,0.0,0.0,0.0,0.0,0.0,0.0,0.0,0.0,0.0,0.0,0.0,0.0,0.0,0.0,0.0,0.0,0.0,0.0,0.0,0.0,0.0,0.0,0.0,0.0,0.0,0.0,0.0,0.0,0.0,0.0,0.0,0.0,0.0,0.0,0.0,0.0,0.0,0.0,0.0,0.0,0.0,0.0,0.0,0.0,0.0,0.0,0.0,0.0,0.0,0.0,0.0,0.0,0.0,0.0,0.0,0.0,0.0,0.0,4.032,4.0115,3.9694,0.0,0.0,0.0,0.0,0.0,0.0,0.0,0.0,0.0,0.0,0.0,0.0,0.0,0.0,0.0,0.0,0.0,0.0,0.0,0.0,0.0,0.0,0.0,0.0,0.0,0.0,0.0,0.0,0.0,0.0,0.0,0.0,0.0,0.0,0.0,0.0,0.0,0.0,0.0,0.0,0.0,0.0,0.0,0.0,0.0,0.0,0.0,0.0,0.0,0.0,0.0,0.0,0.0,0.0,0.0,0.0,0.0,0.0,0.0,0.0,0.0,0.0,0.0,0.0,0.0,0.0,0.0,0.0,0.0,0.0,0.0,0.0,0.0,0.0,0.0,0.0,0.0,0.0,0.0,0.0,0.0,0.0,0.0,0.0,0.0,0.0,0.0,0.0,0.0,0.0,0.0,0.0,0.0,0.0,0.0,0.0,0.0,0.0,0.0,0.0,0.0,0.0,0.0,0.0,0.0,0.0,0.0,0.0,0.0,0.0,4.032,4.032,4.032,0.0,3.8056,0.0,0.0,0.0,0.0,0.0,0.0,0.0,0.0,0.0,0.0,0.0,0.0,0.0,0.0,0.0,0.0,0.0,0.0,0.0,0.0,0.0,0.0,0.0,0.0,0.0,0.0,0.0,0.0,0.0,0.0,0.0,0.0,0.0,0.0,0.0,0.0,0.0,0.0,0.0,0.0,0.0,0.0,0.0,0.0,0.0,0.0,0.0,0.0,0.0,0.0,0.0,0.0,0.0,0.0,0.0,0.0,0.0,0.0,0.0,0.0,0.0,0.0,0.0,0.0,0.0,0.0,0.0,0.0,0.0,0.0,0.0,0.0,0.0,0.0,0.0,0.0,0.0,0.0,0.0,0.0,0.0,0.0,0.0,0.0,0.0,0.0,0.0,0.0,0.0,0.0,0.0,0.0,0.0,0.0,0.0,0.0,0.0,0.0,0.0,0.0,0.0,0.0,0.0,0.0,0.0,0.0,0.0,0.0,0.0,0.0,4.032,4.032,4.032,3.9737,0.0,0.0,0.0,0.0,0.0,0.0,0.0,0.0,0.0,0.0,0.0,0.0,0.0,0.0,0.0,0.0,0.0,0.0,0.0,0.0,0.0,0.0,0.0,0.0,0.0,0.0,0.0,0.0,0.0,0.0,0.0,0.0,0.0,0.0,0.0,0.0,0.0,0.0,0.0,0.0,0.0,0.0,0.0,0.0,0.0,0.0,0.0,0.0,0.0,0.0,0.0,0.0,0.0,0.0,0.0,0.0,0.0,0.0,0.0,0.0,0.0,0.0,0.0,0.0,0.0,0.0,0.0,0.0,0.0,0.0,0.0,0.0,0.0,0.0,0.0,0.0,0.0,0.0,0.0,0.0,0.0,0.0,0.0,0.0,0.0,0.0,0.0,0.0,0.0,0.0,0.0,0.0,0.0,0.0,0.0,0.0,0.0,0.0,0.0,0.0,0.0,0.0,0.0,0.0,0.0,0.0,0.0,0.0,0.0,0.0,4.032,4.032,4.032,4.032,3.9904,3.903,0.0,0.0,0.0,0.0,0.0,0.0,0.0,0.0,0.0,0.0,0.0,0.0,0.0,0.0,0.0,0.0,0.0,0.0,0.0,0.0,0.0,0.0,0.0,0.0,0.0,0.0,0.0,0.0,0.0,0.0,0.0,0.0,0.0,0.0,0.0,0.0,0.0,0.0,0.0,0.0,0.0,0.0,0.0,0.0,0.0,0.0,0.0,0.0,0.0,0.0,0.0,0.0,0.0,0.0,0.0,0.0,0.0,0.0,0.0,0.0,0.0,0.0,0.0,0.0,0.0,0.0,0.0,0.0,0.0,0.0,0.0,0.0,0.0,0.0,0.0,0.0,0.0,0.0,0.0,0.0,0.0,0.0,0.0,0.0,0.0,0.0,0.0,0.0,0.0,0.0,0.0,0.0,0.0,0.0,0.0,0.0,0.0,0.0,0.0,0.0,0.0,0.0,0.0,0.0,0.0,0.0,0.0,0.0,4.032,4.032,4.032,4.032,4.032,3.9904,0.0,0.0,0.0,0.0,0.0,0.0,0.0,0.0,0.0,0.0,0.0,0.0,0.0,0.0,0.0,0.0,0.0,0.0,0.0,0.0,0.0,0.0,0.0,0.0,0.0,0.0,0.0,0.0,0.0,0.0,0.0,0.0,0.0,0.0,0.0,0.0,0.0,0.0,0.0,0.0,0.0,0.0,0.0,0.0,0.0,0.0,0.0,0.0,0.0,0.0,0.0,0.0,0.0,0.0,0.0,0.0,0.0,0.0,0.0,0.0,0.0,0.0,0.0,0.0,0.0,0.0,0.0,0.0,0.0,0.0,0.0,0.0,0.0,0.0,0.0,0.0,0.0,0.0,0.0,0.0,0.0,0.0,0.0,0.0,0.0,0.0,0.0,0.0,0.0,0.0,0.0,0.0,0.0,0.0,0.0,0.0,0.0,0.0,0.0,0.0,0.0,0.0,0.0,0.0,0.0,0.0,0.0,0.0,0.0,4.032,4.032,4.032,4.032,4.032,4.0153,0.0,0.0,0.0,0.0,0.0,0.0,0.0,0.0,0.0,0.0,0.0,0.0,0.0,0.0,0.0,0.0,0.0,0.0,0.0,0.0,0.0,0.0,0.0,0.0,0.0,0.0,0.0,0.0,0.0,0.0,0.0,0.0,0.0,0.0,0.0,0.0,0.0,0.0,0.0,0.0,0.0,0.0,0.0,0.0,0.0,0.0,0.0,0.0,0.0,0.0,0.0,0.0,0.0,0.0,0.0,0.0,0.0,0.0,0.0,0.0,0.0,0.0,0.0,0.0,0.0,0.0,0.0,0.0,0.0,0.0,0.0,0.0,0.0,0.0,0.0,0.0,0.0,0.0,0.0,0.0,0.0,0.0,0.0,0.0,0.0,0.0,0.0,0.0,0.0,0.0,0.0,0.0,0.0,0.0,0.0,0.0,0.0,0.0,0.0,0.0,0.0,0.0,0.0,0.0,0.0,0.0,0.0,0.0,0.0,4.032,0.0,4.032,4.032,4.032,4.032,0.0,0.0,0.0,0.0,0.0,0.0,0.0,0.0,0.0,0.0,0.0,0.0,0.0,0.0,0.0,0.0,0.0,0.0,0.0,0.0,0.0,0.0,0.0,0.0,0.0,0.0,0.0,0.0,0.0,0.0,0.0,0.0,0.0,0.0,0.0,0.0,0.0,0.0,0.0,0.0,0.0,0.0,0.0,0.0,0.0,0.0,0.0,0.0,0.0,0.0,0.0,0.0,0.0,0.0,0.0,0.0,0.0,0.0,0.0,0.0,0.0,0.0,0.0,0.0,0.0,0.0,0.0,0.0,0.0,0.0,0.0,0.0,0.0,0.0,0.0,0.0,0.0,0.0,0.0,0.0,0.0,0.0,0.0,0.0,0.0,0.0,0.0,0.0,0.0,0.0,0.0,0.0,0.0,0.0,0.0,0.0,0.0,0.0,0.0,0.0,0.0,0.0,0.0,0.0,0.0,0.0,0.0,0.0,4.032,4.032,4.032,4.032,4.032,4.032,4.032,0.0,0.0,0.0,0.0,0.0,0.0,0.0,0.0,0.0,0.0,0.0,0.0,0.0,0.0,0.0,0.0,0.0,0.0,0.0,0.0,0.0,0.0,0.0,0.0,0.0,0.0,0.0,0.0,0.0,0.0,0.0,0.0,0.0,0.0,0.0,0.0,0.0,0.0,0.0,0.0,0.0,0.0,0.0,0.0,0.0,0.0,0.0,0.0,0.0,0.0,0.0,0.0,0.0,0.0,0.0,0.0,0.0,0.0,0.0,0.0,0.0,0.0,0.0,0.0,0.0,0.0,0.0,0.0,0.0,0.0,0.0,0.0,0.0,0.0,0.0,0.0,0.0,0.0,0.0,0.0,0.0,0.0,0.0,0.0,0.0,0.0,0.0,0.0,0.0,0.0,0.0,0.0,0.0,0.0,0.0,0.0,0.0,0.0,0.0,0.0,0.0,0.0,0.0,0.0,0.0,0.0,0.0,0.0,0.0,4.032,4.032,4.032,4.032,4.032,4.032,0.0,0.0,0.0,0.0,0.0,0.0,0.0,0.0,0.0,0.0,0.0,0.0,0.0,0.0,0.0,0.0,0.0,0.0,0.0,0.0,0.0,0.0,0.0,0.0,0.0,0.0,0.0,0.0,0.0,0.0,0.0,0.0,0.0,0.0,0.0,0.0,0.0,0.0,0.0,0.0,0.0,0.0,0.0,0.0,0.0,0.0,0.0,0.0,0.0,0.0,0.0,0.0,0.0,0.0,0.0,0.0,0.0,0.0,0.0,0.0,0.0,0.0,0.0,0.0,0.0,0.0,0.0,0.0,0.0,0.0,0.0,0.0,0.0,0.0,0.0,0.0,0.0,0.0,0.0,0.0,0.0,0.0,0.0,0.0,0.0,0.0,0.0,0.0,0.0,0.0,0.0,0.0,0.0,0.0,0.0,0.0,0.0,0.0,0.0,0.0,0.0,0.0,0.0,0.0,0.0,0.0,0.0,0.0,0.0,4.0745,4.0745,4.075,4.075,4.0745,4.0611,4.032,0.0,0.0,0.0,0.0,0.0,0.0,0.0,0.0,0.0,0.0,0.0,0.0,0.0,0.0,0.0,0.0,0.0,0.0,0.0,0.0,0.0,0.0,0.0,0.0,0.0,0.0,0.0,0.0,0.0,0.0,0.0,0.0,0.0,0.0,0.0,0.0,0.0,0.0,0.0,0.0,0.0,0.0,0.0,0.0,0.0,0.0,0.0,0.0,0.0,0.0,0.0,0.0,0.0,0.0,0.0,0.0,0.0,0.0,0.0,0.0,0.0,0.0,0.0,0.0,0.0,0.0,0.0,0.0,0.0,0.0,0.0,0.0,0.0,0.0,0.0,0.0,0.0,0.0,0.0,0.0,0.0,0.0,0.0,0.0,0.0,0.0,0.0,0.0,0.0,0.0,0.0,0.0,0.0,0.0,0.0,0.0,0.0,0.0,0.0,0.0,0.0,0.0,0.0,0.0,0.0,0.0,0.0,0.0,4.1571,4.1614,4.1633,4.1576,4.1519,4.1156,0.0,0.0,0.0,0.0,0.0,0.0,0.0,0.0,0.0,0.0,0.0,0.0,0.0,0.0,0.0,0.0,0.0,0.0,0.0,0.0,0.0,0.0,0.0,0.0,0.0,0.0,0.0,0.0,0.0,0.0,0.0,0.0,0.0,0.0,0.0,0.0,0.0,0.0,0.0,0.0,0.0,0.0,0.0,0.0,0.0,0.0,0.0,0.0,0.0,0.0,0.0,0.0,0.0,0.0,0.0,0.0,0.0,0.0,0.0,0.0,0.0,0.0,0.0,0.0,0.0,0.0,0.0,0.0,0.0,0.0,0.0,0.0,0.0,0.0,0.0,0.0,0.0,0.0,0.0,0.0,0.0,0.0,0.0,0.0,0.0,0.0,0.0,0.0,0.0,0.0,0.0,0.0,0.0,0.0,0.0,0.0,0.0,0.0,0.0,0.0,0.0,0.0,0.0,0.0,0.0,0.0,0.0,0.0,0.0,4.245,4.3037,4.3075,4.2469,4.1843,4.1399,0.0,0.0,0.0,0.0,0.0,0.0,0.0,0.0,0.0,0.0,0.0,0.0,0.0,0.0,0.0,0.0,0.0,0.0,0.0,0.0,0.0,0.0,0.0,0.0,0.0,0.0,0.0,0.0,0.0,0.0,0.0,0.0,0.0,0.0,0.0,0.0,0.0,0.0,0.0,0.0,0.0,0.0,0.0,0.0,0.0,0.0,0.0,0.0,0.0,0.0,0.0,0.0,0.0,0.0,0.0,0.0,0.0,0.0,0.0,0.0,0.0,0.0,0.0,0.0,0.0,0.0,0.0,0.0,0.0,0.0,0.0,0.0,0.0,0.0,0.0,0.0,0.0,0.0,0.0,0.0,0.0,0.0,0.0,0.0,0.0,0.0,0.0,0.0,0.0,0.0,0.0,0.0,0.0,0.0,0.0,0.0,0.0,0.0,0.0,0.0,0.0,0.0,0.0,0.0,0.0,0.0,0.0,0.0,4.2278,4.2813,4.3935,4.4322,4.3845,4.2679,4.1863,0.0,0.0,0.0,0.0,0.0,0.0,0.0,0.0,0.0,0.0,0.0,0.0,0.0,0.0,0.0,0.0,0.0,0.0,0.0,0.0,0.0,0.0,0.0,0.0,0.0,0.0,0.0,0.0,0.0,0.0,0.0,0.0,0.0,0.0,0.0,0.0,0.0,0.0,0.0,0.0,0.0,0.0,0.0,0.0,0.0,0.0,0.0,0.0,0.0,0.0,0.0,0.0,0.0,0.0,0.0,0.0,0.0,0.0,0.0,0.0,0.0,0.0,0.0,0.0,0.0,0.0,0.0,0.0,0.0,0.0,0.0,0.0,0.0,0.0,0.0,0.0,0.0,0.0,0.0,0.0,0.0,0.0,0.0,0.0,0.0,0.0,0.0,0.0,0.0,0.0,0.0,0.0,0.0,0.0,0.0,0.0,0.0,0.0,0.0,0.0,0.0,0.0,0.0,0.0,0.0,0.0,0.0,0.0,4.2846,4.2947,4.448,4.5283,4.5244,4.3673,4.2431,0.0,0.0,0.0,0.0,0.0,0.0,0.0,0.0,0.0,0.0,0.0,0.0,0.0,0.0,0.0,0.0,0.0,0.0,0.0,0.0,0.0,0.0,0.0,0.0,0.0,0.0,0.0,0.0,0.0,0.0,0.0,0.0,0.0,0.0,0.0,0.0,0.0,0.0,0.0,0.0,0.0,0.0,0.0,0.0,0.0,0.0,0.0,0.0,0.0,0.0,0.0,0.0,0.0,0.0,0.0,0.0,0.0,0.0,0.0,0.0,0.0,0.0,0.0,0.0,0.0,0.0,0.0,0.0,0.0,0.0,0.0,0.0,0.0,0.0,0.0,0.0,0.0,0.0,0.0,0.0,0.0,0.0,0.0,0.0,0.0,0.0,0.0,0.0,0.0,0.0,0.0,0.0,0.0,0.0,0.0,0.0,0.0,0.0,0.0,0.0,0.0,0.0,0.0,0.0,0.0,0.0,0.0,0.0,4.3114,4.3763,4.4762,4.5283,4.5283,4.3697,4.2717,0.0,0.0,0.0,0.0,0.0,0.0,0.0,0.0,0.0,0.0,0.0,0.0,0.0,0.0,0.0,0.0,0.0,0.0,0.0,0.0,0.0,0.0,0.0,0.0,0.0,0.0,0.0,0.0,0.0,0.0,0.0,0.0,0.0,0.0,0.0,0.0,0.0,0.0,0.0,0.0,0.0,0.0,0.0,0.0,0.0,0.0,0.0,0.0,5.0926,0.0,0.0,0.0,0.0,0.0,0.0,0.0,0.0,0.0,0.0,0.0,0.0,0.0,0.0,0.0,0.0,0.0,0.0,0.0,0.0,0.0,0.0,0.0,0.0,0.0,0.0,0.0,0.0,0.0,0.0,0.0,0.0,0.0,0.0,0.0,0.0,0.0,0.0,0.0,0.0,0.0,0.0,0.0,0.0,0.0,0.0,0.0,0.0,0.0,0.0,0.0,0.0,0.0,0.0,0.0,0.0,0.0,0.0,0.0,4.3171,4.3987,4.4857,4.5283,4.5244,4.4036,4.319,0.0,0.0,0.0,0.0,0.0,0.0,0.0,0.0,0.0,0.0,0.0,0.0,0.0,0.0,0.0,0.0,0.0,0.0,0.0,0.0,0.0,0.0,0.0,0.0,0.0,0.0,0.0,0.0,0.0,0.0,0.0,0.0,0.0,0.0,0.0,0.0,0.0,0.0,0.0,0.0,0.0,0.0,0.0,0.0,0.0,0.0,0.0,0.0,0.0,0.0,0.0,0.0,0.0,0.0,0.0,0.0,0.0,0.0,0.0,0.0,0.0,0.0,0.0,0.0,0.0,0.0,0.0,0.0,0.0,0.0,0.0,0.0,0.0,0.0,0.0,0.0,0.0,0.0,0.0,0.0,0.0,0.0,0.0,0.0,0.0,0.0,0.0,0.0,0.0,0.0,0.0,0.0,0.0,0.0,0.0,0.0,0.0,0.0,0.0,0.0,0.0,0.0,0.0,0.0,0.0,0.0,0.0,4.2541,4.3381,4.4183,4.4934,4.5283,4.5283,4.4451,4.3629,4.2813,0.0,0.0,0.0,0.0,0.0,0.0,0.0,0.0,0.0,0.0,0.0,0.0,0.0,0.0,0.0,0.0,0.0,0.0,0.0,0.0,0.0,0.0,0.0,0.0,0.0,0.0,0.0,0.0,0.0,0.0,0.0,0.0,0.0,0.0,0.0,0.0,0.0,0.0,4.5474,4.6175,0.0,0.0,0.0,0.0,0.0,0.0,0.0,0.0,5.1066,0.0,0.0,0.0,0.0,0.0,0.0,0.0,0.0,0.0,0.0,0.0,0.0,0.0,0.0,0.0,0.0,0.0,0.0,0.0,0.0,0.0,0.0,0.0,0.0,0.0,0.0,0.0,0.0,0.0,0.0,0.0,0.0,0.0,0.0,0.0,0.0,0.0,0.0,0.0,0.0,0.0,0.0,0.0,0.0,0.0,0.0,0.0,0.0,0.0,0.0,0.0,0.0,0.0,0.0,0.0,0.0,4.2584,4.3381,4.4202,4.5067,4.5225,4.5283,4.5264,4.4451,4.3629,4.2794,0.0,0.0,0.0,0.0,0.0,0.0,0.0,0.0,0.0,0.0,0.0,0.0,0.0,0.0,0.0,0.0,0.0,0.0,0.0,0.0,0.0,0.0,0.0,0.0,0.0,0.0,0.0,0.0,0.0,0.0,0.0,0.0,0.0,0.0,0.0,0.0,0.0,0.0,0.0,4.7049,4.7946,0.0,0.0,0.0,0.0,0.0,0.0,0.0,0.0,5.1677,0.0,0.0,0.0,0.0,0.0,0.0,0.0,0.0,0.0,0.0,0.0,0.0,0.0,0.0,0.0,0.0,0.0,0.0,0.0,0.0,0.0,0.0,0.0,0.0,0.0,0.0,0.0,0.0,0.0,0.0,0.0,0.0,0.0,0.0,0.0,0.0,0.0,0.0,0.0,0.0,0.0,0.0,0.0,0.0,0.0,0.0,0.0,0.0,0.0,0.0,0.0,0.0,0.0,0.0,0.0,4.3438,4.4661,4.5501,4.5908,4.5932,4.5722,4.5302,4.4451,4.3629,0.0,0.0,0.0,0.0,0.0,0.0,0.0,0.0,0.0,0.0,0.0,0.0,0.0,0.0,0.0,0.0,0.0,0.0,0.0,0.0,0.0,0.0,0.0,0.0,0.0,0.0,0.0,0.0,0.0,0.0,0.0,0.0,0.0,0.0,0.0,0.0,0.0,0.0,0.0,0.0,4.7914,4.8926,5.0225,0.0,0.0,0.0,0.0,0.0,0.0,5.2486,5.2499,0.0,0.0,0.0,0.0,0.0,0.0,0.0,0.0,0.0,0.0,0.0,0.0,0.0,0.0,0.0,0.0,0.0,0.0,0.0,0.0,0.0,0.0,0.0,0.0,0.0,0.0,0.0,0.0,0.0,0.0,0.0,0.0,0.0,0.0,0.0,0.0,0.0,0.0,0.0,0.0,0.0,0.0,0.0,0.0,0.0,0.0,0.0,0.0,0.0,0.0,0.0,0.0,0.0,0.0,0.0,4.4279,4.5922,4.6743,4.6762,4.6762,4.6457,4.5812,4.4623,4.3706,0.0,0.0,0.0,0.0,0.0,0.0,0.0,0.0,0.0,0.0,0.0,0.0,0.0,0.0,0.0,0.0,0.0,0.0,0.0,0.0,0.0,0.0,0.0,0.0,0.0,0.0,0.0,0.0,0.0,0.0,0.0,0.0,0.0,0.0,0.0,0.0,0.0,0.0,0.0,0.0,0.0,4.9696,5.1366,5.1595,0.0,0.0,0.0,0.0,5.2925,5.3072,0.0,0.0,0.0,0.0,0.0,0.0,0.0,0.0,0.0,0.0,0.0,0.0,0.0,0.0,0.0,0.0,0.0,0.0,0.0,0.0,0.0,0.0,0.0,0.0,0.0,0.0,0.0,0.0,0.0,0.0,0.0,0.0,0.0,0.0,0.0,0.0,0.0,0.0,0.0,0.0,0.0,0.0,0.0,0.0,0.0,0.0,0.0,0.0,0.0,0.0,0.0,0.0,0.0,0.0,0.0,0.0,4.5187,4.6806,4.766,4.766,4.7635,4.7603,4.7488,4.5248,4.3949,0.0,0.0,0.0,0.0,0.0,0.0,0.0,0.0,0.0,0.0,0.0,0.0,0.0,0.0,0.0,0.0,0.0,0.0,0.0,0.0,0.0,0.0,0.0,0.0,0.0,0.0,0.0,0.0,0.0,0.0,0.0,0.0,0.0,0.0,0.0,0.0,0.0,0.0,0.0,0.0,0.0,4.9715,5.1366,5.1595,5.1843,0.0,0.0,5.2977,5.3817,5.3951,0.0,0.0,0.0,0.0,0.0,0.0,0.0,0.0,0.0,0.0,0.0,0.0,0.0,0.0,0.0,0.0,0.0,0.0,0.0,0.0,0.0,0.0,0.0,0.0,0.0,0.0,0.0,0.0,0.0,0.0,0.0,0.0,0.0,0.0,0.0,0.0,0.0,0.0,0.0,0.0,0.0,0.0,0.0,0.0,0.0,0.0,0.0,0.0,0.0,0.0,0.0,0.0,0.0,0.0,0.0,4.5144,4.6023,4.8099,4.8997,4.8544,4.8544,4.8315,4.7813,4.5826,4.4508,0.0,0.0,0.0,0.0,0.0,0.0,0.0,0.0,0.0,0.0,0.0,0.0,0.0,0.0,0.0,0.0,0.0,0.0,0.0,0.0,0.0,0.0,0.0,0.0,0.0,0.0,0.0,0.0,0.0,0.0,0.0,0.0,0.0,0.0,0.0,0.0,0.0,0.0,0.0,0.0,0.0,0.0,5.2117,5.269,0.0,0.0,0.0,5.3683,5.4046,0.0,0.0,0.0,0.0,0.0,0.0,0.0,0.0,0.0,0.0,0.0,0.0,0.0,0.0,0.0,0.0,0.0,0.0,0.0,0.0,0.0,0.0,0.0,0.0,0.0,0.0,0.0,0.0,0.0,0.0,0.0,0.0,0.0,0.0,0.0,0.0,0.0,0.0,0.0,0.0,0.0,0.0,0.0,0.0,0.0,0.0,0.0,0.0,0.0,0.0,0.0,0.0,0.0,0.0,0.0,0.0,0.0,4.6858,4.9117,4.9996,4.9423,4.941,4.9098,4.8424,4.6806,0.0,0.0,0.0,0.0,0.0,0.0,0.0,0.0,0.0,0.0,0.0,0.0,0.0,0.0,0.0,0.0,0.0,0.0,0.0,0.0,0.0,0.0,0.0,0.0,0.0,0.0,0.0,4.1281,0.0,0.0,0.0,0.0,0.0,0.0,0.0,0.0,0.0,0.0,0.0,0.0,0.0,0.0,5.1977,5.2977,5.3683,5.4161,0.0,0.0,5.4161,5.4409,5.4976,5.5396,0.0,0.0,0.0,0.0,0.0,0.0,0.0,0.0,0.0,0.0,0.0,0.0,0.0,0.0,0.0,0.0,0.0,0.0,0.0,0.0,0.0,0.0,0.0,0.0,0.0,0.0,0.0,0.0,0.0,0.0,0.0,0.0,0.0,0.0,0.0,0.0,0.0,0.0,0.0,0.0,0.0,0.0,0.0,0.0,0.0,0.0,0.0,0.0,0.0,0.0,0.0,0.0,0.0,0.0,4.6104,4.7717,4.9423,5.0264,5.0201,5.0206,5.0206,5.0124,4.85,4.6882,0.0,0.0,0.0,0.0,0.0,0.0,0.0,0.0,0.0,0.0,0.0,0.0,0.0,0.0,0.0,0.0,0.0,0.0,0.0,0.0,0.0,0.0,0.0,0.0,0.0,0.0,0.0,0.0,0.0,0.0,0.0,0.0,0.0,0.0,0.0,0.0,0.0,0.0,0.0,0.0,0.0,5.2206,5.3798,5.4065,5.439,0.0,5.4639,5.4371,5.5186,5.5339,5.5396,5.5396,0.0,0.0,0.0,0.0,0.0,0.0,0.0,0.0,0.0,0.0,0.0,0.0,0.0,0.0,0.0,0.0,0.0,0.0,0.0,0.0,0.0,0.0,0.0,0.0,0.0,0.0,0.0,0.0,0.0,0.0,0.0,0.0,0.0,0.0,0.0,0.0,0.0,0.0,0.0,0.0,0.0,0.0,0.0,0.0,0.0,0.0,0.0,0.0,0.0,0.0,0.0,0.0,0.0,4.6118,4.7769,4.9442,5.0296,5.0296,5.0296,5.0296,5.0296,4.9194,4.778,0.0,0.0,0.0,0.0,0.0,0.0,0.0,0.0,0.0,0.0,0.0,0.0,0.0,0.0,0.0,0.0,0.0,0.0,0.0,0.0,0.0,0.0,0.0,0.0,0.0,0.0,0.0,0.0,4.566,4.6042,4.6042,0.0,0.0,0.0,0.0,0.0,0.0,0.0,0.0,0.0,0.0,5.3378,5.4008,5.4562,0.0,0.0,5.5116,5.5021,5.5339,5.5396,5.5396,5.5396,5.5396,0.0,0.0,0.0,0.0,0.0,0.0,0.0,0.0,0.0,0.0,0.0,0.0,0.0,0.0,0.0,0.0,0.0,0.0,0.0,0.0,0.0,0.0,0.0,0.0,0.0,0.0,0.0,0.0,0.0,0.0,0.0,0.0,0.0,0.0,0.0,0.0,0.0,0.0,0.0,0.0,0.0,0.0,0.0,0.0,0.0,0.0,0.0,0.0,0.0,0.0,0.0,0.0,4.6361,4.7794,4.9456,5.0296,5.0296,5.0296,5.0296,5.0277,4.9748,4.864,0.0,0.0,0.0,0.0,0.0,0.0,0.0,0.0,0.0,0.0,0.0,0.0,0.0,0.0,0.0,0.0,0.0,0.0,0.0,0.0,0.0,0.0,0.0,0.0,0.0,0.0,0.0,0.0,4.7106,4.7264,4.7283,0.0,0.0,0.0,0.0,0.0,0.0,0.0,0.0,0.0,0.0,5.4218,5.4448,5.4995,5.5396,5.5396,5.5396,5.5396,5.5396,5.5396,5.5396,5.5396,0.0,0.0,0.0,0.0,0.0,0.0,0.0,0.0,0.0,0.0,0.0,0.0,0.0,0.0,0.0,0.0,0.0,0.0,0.0,0.0,0.0,0.0,0.0,0.0,0.0,0.0,0.0,4.2813,0.0,0.0,4.2775,0.0,0.0,0.0,0.0,0.0,0.0,0.0,0.0,0.0,0.0,0.0,0.0,0.0,0.0,0.0,0.0,0.0,0.0,0.0,0.0,0.0,0.0,4.6896,4.7813,4.9456,5.0296,5.0296,5.0296,5.0296,5.0296,5.0277,4.948,4.7813,0.0,0.0,0.0,0.0,0.0,0.0,0.0,0.0,0.0,0.0,0.0,0.0,0.0,0.0,0.0,0.0,0.0,0.0,0.0,0.0,0.0,0.0,0.0,0.0,0.0,0.0,4.7775,4.855,4.8989,0.0,0.0,0.0,0.0,0.0,0.0,0.0,0.0,0.0,5.3645,5.4085,5.4409,5.5244,5.5396,5.5396,5.5396,5.5396,5.5396,5.5396,5.5396,5.5396,0.0,0.0,0.0,0.0,0.0,0.0,0.0,0.0,0.0,0.0,0.0,0.0,0.0,0.0,0.0,0.0,0.0,0.0,0.0,0.0,0.0,0.0,0.0,0.0,0.0,0.0,0.0,4.5812,4.5239,0.0,0.0,0.0,0.0,0.0,0.0,0.0,0.0,0.0,0.0,0.0,4.6972,4.724,0.0,0.0,0.0,0.0,0.0,0.0,0.0,0.0,0.0,0.0,0.0,0.0,4.7226,4.864,4.9748,5.0296,5.0296,5.0296,5.0296,5.0296,5.0296,4.9786,4.8697,0.0,0.0,0.0,0.0,0.0,0.0,0.0,0.0,0.0,0.0,0.0,0.0,0.0,0.0,0.0,0.0,0.0,0.0,0.0,0.0,0.0,0.0,0.0,0.0,0.0,4.8665,0.0,0.0,0.0,0.0,0.0,0.0,0.0,0.0,0.0,0.0,0.0,5.3148,5.3989,5.4619,5.5059,5.5365,5.5396,5.5396,0.0,0.0,0.0,0.0,0.0,0.0,0.0,0.0,0.0,0.0,0.0,0.0,0.0,0.0,5.7065,5.7065,5.7065,5.7065,5.7065,0.0,0.0,0.0,0.0,0.0,0.0,0.0,0.0,0.0,0.0,0.0,0.0,0.0,0.0,4.7469,0.0,4.6405,0.0,0.0,0.0,0.0,0.0,0.0,0.0,0.0,4.8539,4.8672,4.8672,4.8672,4.8825,0.0,4.9112,4.8271,0.0,0.0,0.0,0.0,0.0,0.0,0.0,0.0,4.7971,4.9066,4.9901,5.0296,5.0296,5.0296,5.0296,5.0296,5.0296,5.0054,4.9524,4.8143,4.7016,0.0,0.0,0.0,0.0,0.0,0.0,0.0,0.0,0.0,0.0,0.0,0.0,0.0,0.0,0.0,0.0,0.0,0.0,0.0,0.0,0.0,0.0,0.0,5.0078,0.0,0.0,0.0,0.0,0.0,0.0,0.0,0.0,0.0,5.1754,5.3053,5.4218,5.4505,5.5052,5.5396,5.5396,0.0,0.0,0.0,0.0,0.0,0.0,0.0,5.5995,5.6517,5.7091,5.7676,5.823,5.8077,5.8001,5.8268,0.0,0.0,5.7963,5.7886,5.7886,5.7886,5.7886,5.7886,5.7886,5.7886,5.7886,0.0,0.0,0.0,0.0,0.0,0.0,0.0,0.0,4.7908,4.7889,0.0,4.7813,0.0,0.0,0.0,0.0,4.796,4.8774,0.0,0.0,5.0034,5.0378,5.0378,5.0378,5.0812,5.1595,5.1583,5.1558,5.1405,4.9102,0.0,0.0,0.0,0.0,0.0,0.0,4.9104,4.918,4.9901,5.0296,5.0296,5.0296,5.0296,5.0296,5.0296,5.0302,5.0264,4.9524,4.8735,4.7908,4.6347,0.0,0.0,0.0,0.0,0.0,0.0,0.0,0.0,0.0,0.0,0.0,0.0,0.0,0.0,0.0,0.0,0.0,0.0,0.0,0.0,5.1175,0.0,0.0,0.0,0.0,0.0,0.0,0.0,0.0,0.0,0.0,5.4065,5.4123,5.4467,5.5288,0.0,0.0,0.0,0.0,5.5396,5.5396,5.5396,5.5415,5.5454,5.6091,5.6613,5.6689,0.0,0.0,5.914,5.8498,5.8268,5.8988,5.914,5.8892,5.8173,5.8077,5.8058,5.8039,5.8096,5.802,5.8008,5.8135,5.8096,4.957,0.0,0.0,0.0,0.0,4.9595,4.9576,4.9589,4.9576,4.9245,4.8741,4.8716,0.0,0.0,0.0,0.0,0.0,0.0,5.12,5.1741,5.1983,5.2079,5.2079,5.2079,5.2212,5.2435,5.2194,5.2101,5.2049,5.1078,4.9933,4.8668,0.0,0.0,0.0,0.0,4.932,4.9939,5.0187,5.0296,5.0296,5.0296,5.0296,5.0296,5.0296,5.0296,5.0296,5.0073,4.9843,4.9589,4.9137,0.0,0.0,0.0,0.0,0.0,0.0,0.0,0.0,0.0,0.0,0.0,0.0,0.0,0.0,0.0,0.0,0.0,0.0,0.0,5.2002,5.2862,5.3225,0.0,0.0,0.0,0.0,0.0,0.0,0.0,0.0,0.0,5.5021,5.5033,5.5116,0.0,0.0,5.5396,5.5396,5.5396,5.5396,5.5396,5.5396,0.0,5.6173,5.646,5.7008,5.8192,5.93,6.0033,6.0033,5.9823,5.9746,5.9988,6.0026,5.9937,5.9746,5.9689,5.9651,5.967,5.9689,5.9689,5.9689,5.9689,5.9651,5.0296,5.0296,5.0296,5.0296,5.0296,5.0296,5.0296,5.0315,5.0659,5.055,5.0111,5.0422,5.0283,4.9805,5.0327,0.0,0.0,0.0,5.2266,5.2621,5.2602,5.2524,5.237,5.237,5.2534,5.2857,5.2681,5.2741,5.31,5.2825,5.197,5.0589,0.0,0.0,5.0304,5.0436,5.0763,5.127,5.1295,5.1295,5.1295,5.1295,5.1295,5.1295,5.1295,5.1295,5.1295,5.1301,5.1295,5.1276,5.0971,5.0353,0.0,0.0,0.0,0.0,0.0,0.0,0.0,0.0,0.0,0.0,0.0,5.0098,5.0092,0.0,0.0,0.0,5.2403,5.2932,5.3741,5.4008,0.0,0.0,0.0,0.0,0.0,0.0,0.0,5.4619,5.5072,5.5396,5.5396,5.5396,5.5396,5.5396,5.5396,5.5396,5.5396,0.0,5.5517,5.5823,5.588,5.6167,5.6976,5.739,5.8058,5.9396,6.0033,6.041,6.0438,6.0438,6.0438,6.0438,6.0438,6.0438,6.0438,6.0438,6.0424,6.0403,6.0396,6.0396,6.0396,6.0396,6.0396,5.0296,5.0296,5.0296,5.0296,5.0315,5.0378,5.0397,5.0493,5.1328,5.1691,5.1748,5.248,5.2818,5.285,5.285,0.0,5.2971,5.2965,5.2818,5.2535,5.2513,5.23,5.1957,5.1944,5.2329,5.3088,5.3055,5.3459,5.4199,5.4141,5.3714,5.2938,5.2581,5.2358,5.2274,5.2544,5.273,5.2755,5.2736,5.2767,5.2792,5.2792,5.2792,5.2792,5.2792,5.2792,5.2792,5.2792,5.283,5.2887,5.2193,5.1786,5.1748,0.0,0.0,0.0,0.0,0.0,0.0,0.0,0.0,0.0,0.0,0.0,0.0,0.0,0.0,5.2906,5.3683,0.0,5.532,5.4677,0.0,0.0,0.0,5.4199,5.4199,5.4925,5.5396,5.5396,0.0,0.0,5.5396,5.5396,5.5396,5.5396,5.5396,5.5396,5.5396,5.5473,5.5778,5.6454,5.6651,5.7008,5.7848,5.8631,5.9396,6.0167,6.0396,6.0424,6.0485,6.0499,6.048,6.0512,6.0512,6.0505,6.0505,6.0512,6.0485,6.0431,6.0417,6.0417,6.041,6.041,6.041,5.0296,5.0296,5.0296,5.0296,5.0359,5.1003,5.1289,5.1366,5.2155,5.2518,5.2518,5.2728,5.3035,5.3409,5.3409,5.3732,5.4321,5.434,5.4443,5.463,5.4359,5.4167,5.4046,5.3811,5.3772,5.3952,5.3672,5.3619,5.3814,5.3572,5.3318,5.3154,5.3293,5.2836,5.1812,5.1845,5.2073,5.2422,5.2422,5.2549,5.2779,5.2792,5.2792,5.2792,5.2792,5.2792,5.2792,5.2792,5.3116,5.3741,5.3601,5.3511,5.3492,5.192,0.0,0.0,0.0,0.0,0.0,0.0,0.0,0.0,0.0,5.2251,5.1652,0.0,5.3779,0.0,5.4581,5.5174,5.5358,5.5205,0.0,0.0,5.5097,5.5072,5.511,5.5263,5.5396,5.5396,5.5396,5.5396,5.5396,5.5396,5.5396,5.5396,5.5396,5.5396,5.5415,5.5938,5.6384,5.6651,5.7186,5.7867,5.8682,5.9529,6.0148,6.0377,6.0403,6.0443,6.0492,6.048,6.0512,6.0546,6.0559,6.0578,6.0578,6.0578,6.0571,6.0558,6.0552,6.0539,6.0492,6.0479,6.0465,5.0296,5.0296,5.0296,5.0531,5.0932,5.1404,5.1786,5.2193,5.3021,5.3365,5.3372,5.3613,5.3857,5.4136,5.4128,5.43,5.4572,5.4731,5.4739,5.4642,5.4419,5.4243,5.4078,5.3898,5.3814,5.3804,5.3573,5.3482,5.3472,5.3274,5.3196,5.3196,5.3398,5.309,5.2363,5.2625,5.2923,5.3182,5.3335,5.3521,5.3687,5.3868,5.3779,5.3397,5.3378,5.3193,5.2811,5.2792,5.304,5.3492,5.3894,5.4104,5.4104,5.32,5.2149,0.0,0.0,0.0,0.0,0.0,0.0,0.0,0.0,0.0,0.0,0.0,5.4677,5.4677,5.511,5.5396,5.5396,5.5396,5.5396,5.5396,5.5396,5.5396,5.5396,5.5396,5.5396,5.5396,5.5396,5.5549,5.588,5.5938,5.6091,5.6454,5.653,5.6377,5.6091,5.6651,5.7294,5.7657,5.8116,5.8727,5.9548,6.0064,6.041,6.0438,6.0444,6.0479,6.0578,6.0597,6.0591,6.0642,6.0648,6.0629,6.0648,6.0648,6.0661,6.0686,6.0673,6.0635,6.0565,6.0545,6.0532,5.023,5.0255,5.0236,5.0765,5.1643,5.1643,5.2145,5.3015,5.3837,5.418,5.4153,5.461,5.4776,5.4731,5.4739,5.4583,5.4332,5.456,5.4353,5.3795,5.3729,5.3553,5.3261,5.3227,5.3196,5.3196,5.3196,5.3196,5.3196,5.3196,5.3196,5.3196,5.3196,5.3196,5.3227,5.3823,5.4186,5.4228,5.4639,5.4829,5.4791,5.5173,5.495,5.4136,5.4085,5.3671,5.2837,5.2805,5.2792,5.283,5.3626,5.4104,5.4104,5.4104,5.3454,0.0,5.2461,0.0,0.0,0.0,0.0,0.0,0.0,0.0,0.0,5.4881,5.5396,5.5396,5.5396,5.5396,5.5396,5.5396,5.5396,5.5396,5.5396,5.5454,5.5549,5.5549,5.5594,5.5702,5.5721,5.5995,5.6645,5.6766,5.7071,5.7664,5.7919,5.7741,5.718,5.7607,5.8308,5.9046,5.9225,5.957,6.0189,6.0392,6.0451,6.0525,6.0512,6.0565,6.066,6.0685,6.0691,6.0703,6.0703,6.0723,6.0703,6.0703,6.0722,6.0783,6.0769,6.074,6.0655,6.0617,6.061,4.9903,4.9903,4.9884,5.0612,5.1748,5.1766,5.257,5.3875,5.445,5.4519,5.4285,5.4632,5.4654,5.4397,5.4389,5.4355,5.4271,5.4024,5.4006,5.4157,5.3861,5.3662,5.3594,5.3326,5.3196,5.3196,5.3196,5.3196,5.3196,5.3196,5.3196,5.3196,5.3196,5.3196,5.3196,0.0,0.0,0.0,5.4689,5.4974,5.4758,5.5016,5.478,5.398,5.3988,0.0,5.2781,5.2761,5.2792,5.283,5.3626,0.0,0.0,0.0,0.0,0.0,0.0,0.0,0.0,0.0,0.0,0.0,5.5052,5.4861,5.4199,5.4906,5.5396,5.5396,5.5396,5.5396,5.5396,5.5396,5.5396,5.5396,5.5396,5.5651,5.625,5.6377,5.6632,5.7332,5.7409,5.7466,5.76,5.7657,5.7714,5.7989,5.8513,5.8859,5.8725,5.8821,5.9012,5.9203,5.9798,6.0329,6.0527,6.0552,6.0558,6.0604,6.0584,6.0617,6.0679,6.0697,6.0735,6.0771,6.0788,6.0783,6.0769,6.0788,6.0783,6.08,6.08,6.0783,6.0691,6.0692,6.0654,4.9549,4.9563,4.9749,5.066,0.0,5.2035,5.2959,5.4452,5.4695,5.4708,5.4533,5.4552,5.4355,5.4007,5.3988,5.3916,5.3775,5.3729,5.3729,5.3738,5.3552,5.3452,5.3442,5.3282,5.3196,5.3196,5.3196,5.3196,5.3196,5.3196,5.3196,5.3196,5.3196,5.3196,5.3196,5.3359,5.3452,5.3452,5.432,5.467,5.452,5.4784,5.4652,5.4033,5.3857,0.0,0.0,0.0,0.0,0.0,0.0,0.0,0.0,5.4505,0.0,5.4142,5.4104,5.4085,5.4123,5.4505,5.4944,5.5358,5.5396,5.5212,5.4772,5.5148,5.5396,5.5396,5.5396,5.5575,5.5938,5.5976,5.6167,5.6587,5.6625,5.6816,5.7167,5.7237,5.7434,5.7791,5.7886,5.802,5.8434,5.8519,5.8743,5.9132,5.9574,5.9881,5.9888,5.9888,5.9907,5.9881,6.0252,6.0597,6.0617,6.0617,6.0617,6.0642,6.0655,6.0686,6.0747,6.0759,6.0771,6.08,6.08,6.08,6.08,6.08,6.08,6.08,6.08,6.0794,6.0765,6.074,6.0747,4.9224,4.924,4.9505,5.054,5.2024,5.2046,5.302,5.4604,5.4604,0.0,0.0,5.4296,5.3997,5.371,5.371,5.3553,5.3324,5.3522,5.3462,5.3196,5.3196,5.3196,5.3196,5.3196,5.3196,5.3196,5.3196,5.3196,5.3196,5.3196,5.3196,5.3196,5.3196,5.3196,5.3217,5.3482,5.3464,5.3259,5.3926,5.4289,5.4279,5.4599,5.4548,5.4085,5.3809,5.3384,5.2818,5.2805,5.2792,5.2811,5.3626,5.4104,5.4123,5.4944,5.5072,5.4428,5.5002,5.5097,5.439,5.5002,5.5396,5.5396,5.5396,5.5396,5.5396,5.5396,5.5454,5.5587,5.5613,5.5938,5.6747,5.6823,5.711,5.7829,5.7886,5.7931,5.8097,5.8117,5.8206,5.834,5.8449,5.8634,5.9284,5.9433,5.9683,6.0315,6.0482,6.0629,6.0636,6.0553,6.0533,6.0565,6.0616,6.0642,6.0642,6.0648,6.0661,6.0717,6.0729,6.0728,6.0788,6.08,6.08,6.08,6.08,6.08,6.08,6.08,6.08,6.08,6.08,6.08,6.08,6.08,6.0781,4.8866,4.8866,4.8917,4.9737,5.1013,5.1004,5.2093,5.3833,5.3861,5.37,5.344,5.3681,5.3739,5.371,5.371,5.3672,5.3623,5.338,5.323,5.3196,5.3196,5.3196,5.3196,5.3196,5.3196,5.3196,5.3196,5.3196,5.3196,5.3196,5.3196,5.3196,5.3196,5.3196,5.3196,5.3259,5.323,5.3206,5.3861,5.4212,5.4212,5.45,5.4421,5.3972,5.3942,5.3562,5.2755,5.2793,5.2792,5.283,5.3632,5.4104,5.4123,5.4944,5.5358,5.5244,5.532,5.5339,5.5224,5.5339,5.5396,5.5396,5.5396,5.5396,5.5396,5.5396,5.5689,5.6345,5.6422,5.6778,5.7581,5.7734,5.7772,5.7944,5.7925,5.8181,5.891,5.9038,5.928,5.9984,6.0227,6.0182,6.0252,6.0329,6.0361,6.0559,6.0629,6.071,6.0741,6.071,6.0703,6.0746,6.0757,6.0757,6.0759,6.0771,6.0752,6.0788,6.0788,6.0769,6.08,6.08,6.08,6.08,6.08,6.08,6.08,6.08,6.08,6.08,6.08,6.08,6.08,6.08,6.08,4.8513,4.8559,4.872,4.9424,5.0481,5.134,5.2364,5.3385,5.344,5.3434,5.3502,5.3624,5.3594,5.344,5.3422,5.344,5.3412,5.3261,5.3196,5.3196,5.3196,5.3196,5.3196,5.3196,5.3196,5.3196,5.3196,5.3196,5.3196,5.3196,5.3196,5.3196,5.3196,5.3196,5.3196,5.3196,5.3196,5.3206,5.368,5.3925,5.3953,5.4272,5.4414,5.437,5.4432,5.437,5.4167,5.4187,5.4199,5.4218,5.4581,5.4791,5.483,5.5186,5.5396,5.5396,5.5396,5.5396,5.5396,5.5396,5.5607,5.6072,5.611,5.632,5.6817,5.6365,5.6396,5.7205,5.7301,5.7638,5.8459,5.8555,5.8727,5.9211,5.9269,5.943,5.9796,5.9912,6.0092,6.0514,6.0617,6.0617,6.0617,6.0636,6.0648,6.0648,6.0703,6.0777,6.08,6.0763,6.0771,6.0794,6.08,6.08,6.08,6.08,6.08,6.08,6.08,6.08,6.08,6.08,6.08,6.08,6.08,6.08,6.08,6.08,6.08,6.08,6.08,6.08,6.08,6.08,6.08,4.8315,4.8335,4.8568,4.9286,5.037,5.1788,5.2714,5.3188,5.3196,5.3357,5.3583,5.3584,5.3451,5.3206,5.3196,5.3196,5.3196,5.3196,5.3196,5.3196,5.3196,5.3196,5.3196,5.3196,5.3196,5.3196,5.3196,5.3196,5.3196,5.3196,5.3196,5.3196,5.3196,5.3196,5.3196,5.3196,5.3196,5.3217,5.3452,5.3623,5.371,5.4097,5.4455,5.4769,5.4892,5.5073,5.5364,5.5396,5.5396,5.5396,5.5396,5.5396,5.5396,5.5396,5.5396,5.5396,5.5396,5.5479,5.567,5.569,5.6085,5.6945,5.7009,5.7397,5.8188,5.7666,5.7481,5.8112,5.8214,5.8551,5.9278,5.9443,5.973,6.0368,6.0444,6.0402,6.052,6.0552,6.0578,6.0636,6.0648,6.0655,6.0661,6.0698,6.071,6.0741,6.0777,6.08,6.08,6.08,6.08,6.08,6.08,6.08,6.08,6.08,6.08,6.08,6.08,6.08,6.08,6.08,6.08,6.08,6.08,6.08,6.08,6.08,6.08,6.08,6.08,6.0864,6.1133,6.1377,6.1281,4.8315,4.8315,4.8354,4.9272,5.0772,5.1673,5.2469,5.3159,5.3196,5.3225,5.3261,5.3259,5.3248,5.3196,5.3196,5.3196,5.3196,5.3196,5.3196,5.3196,5.3196,5.3196,5.3196,5.3196,5.3196,5.3196,5.3196,5.3196,5.3196,5.3196,5.3196,5.3196,5.3196,5.3196,5.3196,5.3196,5.3196,5.3196,5.3238,5.34,5.3701,5.4078,5.4463,5.481,5.514,5.5351,5.5396,5.5396,5.5396,5.5396,5.5396,5.5396,5.5396,5.5396,5.5396,5.5396,5.5396,5.5715,5.6454,5.6631,5.7045,5.7868,5.7964,5.8315,5.9102,5.9108,5.9057,5.9172,5.9192,5.9543,6.0335,6.0418,6.0431,6.052,6.0565,6.0591,6.0648,6.0679,6.0717,6.0777,6.0752,6.0788,6.0771,6.0783,6.0788,6.0783,6.0794,6.08,6.08,6.08,6.08,6.08,6.08,6.08,6.08,6.08,6.08,6.08,6.08,6.08,6.08,6.0798,6.0787,6.0836,6.0816,6.0821,6.081,6.08,6.0819,6.0993,6.1031,6.1108,6.1806,6.2435,6.2608,4.8315,4.8315,4.8315,4.9279,5.0765,5.1169,5.2032,5.3159,5.3196,5.3196,5.3196,5.3196,5.3196,5.3196,5.3196,5.3196,5.3196,5.3196,5.3196,5.3196,5.3196,5.3196,5.3196,5.3196,5.3196,5.3196,5.3196,5.3196,5.3196,5.3196,5.3196,5.3196,5.3196,5.3196,5.3196,5.3196,5.3196,5.3196,5.3196,5.3272,5.343,5.3748,5.4132,5.4495,5.4848,5.5173,5.5358,5.5396,5.5396,5.5396,5.5396,5.5396,5.5396,5.5396,5.5396,5.5422,5.5944,5.6377,5.6733,5.7249,5.795,5.8831,5.8869,5.9246,6.0095,6.0191,6.0191,6.0179,6.0117,6.024,6.0565,6.0617,6.0617,6.0617,6.0617,6.0629,6.0704,6.0697,6.0716,6.0794,6.08,6.08,6.08,6.08,6.08,6.08,6.08,6.08,6.08,6.08,6.08,6.08,6.08,6.08,6.08,6.08,6.08,6.08,6.08,6.08,6.0793,6.0883,6.0932,6.0927,6.0932,6.0932,6.0923,6.088,6.0902,6.133,6.2056,6.2416,6.2743,6.3064,6.3243,4.8315,4.8315,4.8315,4.9269,5.0784,5.082,5.172,5.3104,5.3196,5.3196,5.3196,5.3196,5.3196,5.3196,5.3196,5.3196,5.3196,5.3196,5.3196,5.3196,5.3196,5.3196,5.3196,5.3196,5.3196,5.3196,5.3196,5.3196,5.3196,5.3196,5.3196,5.3196,5.3196,5.3196,5.3196,5.3196,5.3196,5.3196,5.3196,5.3196,5.3238,5.3451,5.3805,5.4262,5.4623,5.5002,5.5358,5.5396,5.5396,5.5396,5.5396,5.539,5.539,5.5396,5.551,5.5821,5.6667,5.7285,5.7496,5.8128,5.8868,5.9653,5.9774,6.008,6.0635,6.08,6.08,6.0756,6.0717,6.0642,6.0655,6.0661,6.0661,6.0661,6.0661,6.0686,6.0735,6.0741,6.0734,6.0794,6.08,6.08,6.08,6.08,6.08,6.08,6.08,6.08,6.08,6.08,6.08,6.08,6.08,6.08,6.08,6.08,6.08,6.08,6.08,6.08,6.0798,6.0922,6.1012,6.0964,6.102,6.1253,6.1529,6.1462,6.1597,6.2383,6.3122,6.3636,6.3725,6.3854,6.4269,4.8315,4.8315,4.8315,4.9269,5.0784,5.082,5.1728,5.3196,5.3196,5.3196,5.3196,5.3196,5.3196,5.3196,5.3196,5.3196,5.3196,5.3196,5.3196,5.3196,5.3196,5.3196,5.3196,5.3196,5.3196,5.3196,5.3196,5.3196,5.3196,5.3196,5.3196,5.3196,5.3196,5.3196,5.3196,5.3196,5.3196,5.3196,5.3196,5.3196,5.3196,5.3217,5.3582,5.4272,5.4615,5.4962,5.5345,5.5396,5.5396,5.5396,5.5403,5.5416,5.5389,5.5446,5.5847,5.6699,5.7616,5.8477,5.9078,5.9331,5.9769,6.0525,6.0621,6.0723,6.0762,6.08,6.08,6.08,6.0788,6.0763,6.0777,6.0771,6.0757,6.0763,6.0788,6.0788,6.0794,6.0788,6.0794,6.08,6.08,6.08,6.08,6.08,6.08,6.08,6.08,6.08,6.08,6.08,6.08,6.08,6.08,6.08,6.08,6.08,6.08,6.0814,6.0842,6.0814,6.0858,6.089,6.0993,6.11,6.1299,6.1658,6.2189,6.2602,6.2921,6.3532,6.4212,6.4648,6.4692,6.5338,6.5582,4.8315,4.8315,4.8315,4.9269,5.0747,5.082,5.1709,5.3159,5.3196,5.3196,5.3196,5.3196,5.3196,5.3196,5.3196,5.3196,5.3196,5.3196,5.3196,5.3196,5.3196,5.3196,5.3196,5.3196,5.3196,5.3196,5.3196,5.3196,5.3196,5.3196,5.3196,5.3196,5.3196,5.3196,5.3196,5.3196,5.3196,5.3196,5.3196,5.3196,5.3196,5.3196,5.3572,5.4303,5.4438,5.4769,5.5371,5.539,5.5427,5.5445,5.5451,5.5463,5.5526,5.6047,5.679,5.7707,5.8562,5.915,5.9477,6.0019,6.0454,6.0723,6.08,6.08,6.08,6.08,6.08,6.08,6.08,6.08,6.08,6.08,6.08,6.08,6.08,6.08,6.08,6.08,6.08,6.08,6.08,6.08,6.08,6.08,6.08,6.08,6.08,6.08,6.08,6.08,6.08,6.08,6.08,6.08,6.08,6.08,6.0816,6.0896,6.0924,6.0993,6.1024,6.1268,6.1389,6.1583,6.1734,6.2324,6.2992,6.3845,6.4166,6.4528,6.5215,6.5478,6.5649,6.5859,6.5921,4.8315,4.8315,4.8315,4.9114,5.039,5.0692,5.1544,5.2792,5.3086,5.3196,5.3196,5.3196,5.3196,5.3196,5.3196,5.3198,5.322,5.3217,5.3196,5.3196,5.3196,5.3196,5.3196,5.3196,5.3196,5.3196,5.3196,5.3196,5.3196,5.3196,5.3196,5.3196,5.3196,5.3196,5.3196,5.3196,5.3196,5.3196,5.3196,5.3196,5.3196,5.3196,5.3591,5.4242,5.4345,5.4674,5.5382,5.5432,5.5456,5.5511,5.5753,5.6053,5.6396,5.7248,5.8029,5.8698,5.9473,5.9935,5.9973,6.0473,6.0781,6.08,6.08,6.08,6.08,6.08,6.08,6.08,6.08,6.08,6.08,6.08,6.08,6.08,6.08,6.08,6.08,6.08,6.08,6.08,6.08,6.08,6.08,6.08,6.08,6.08,6.08,6.08,6.08,6.08,6.08,6.08,6.08,6.08,6.08,6.08,6.0858,6.0953,6.0988,6.107,6.1373,6.1623,6.1924,6.2086,6.2529,6.3189,6.3958,6.4875,6.5334,6.5581,6.5816,6.6088,6.613,6.6056,6.6044,4.8315,4.8315,4.8315,4.8838,4.9747,5.049,5.1261,5.2123,5.2894,5.3196,5.3196,5.3196,5.3217,5.3206,5.3227,5.3251,5.3277,5.3261,5.3238,5.3227,5.3227,5.3227,5.3209,5.3217,5.3217,5.3206,5.3196,5.3196,5.3206,5.3196,5.3196,5.3196,5.3196,5.3196,5.3196,5.3196,5.3206,5.3248,5.3251,5.3238,5.3206,5.3282,5.3662,5.4336,5.4425,5.4821,5.5519,5.5523,5.5529,5.5669,5.6327,5.7208,5.8016,5.8837,5.9429,5.9569,6.0281,6.071,6.0723,6.0768,6.08,6.08,6.08,6.08,6.08,6.08,6.08,6.08,6.08,6.08,6.08,6.08,6.08,6.08,6.08,6.08,6.08,6.08,6.08,6.08,6.08,6.08,6.08,6.08,6.08,6.08,6.08,6.08,6.08,6.08,6.08,6.08,6.08,6.08,6.08,6.0798,6.0918,6.0998,6.104,6.1122,6.1671,6.2031,6.2576,6.2867,6.3641,6.4297,6.5086,6.5904,6.6187,6.6425,6.6607,6.6531,6.641,6.6267,6.6123,4.8315,4.8315,4.8315,4.8783,4.9601,5.0435,5.1261,5.206,5.2858,5.3196,5.3206,5.3243,5.3274,5.3295,5.3357,5.3418,5.3449,5.3418,5.3398,5.3398,5.3416,5.3416,5.3378,5.3316,5.3274,5.3246,5.3227,5.322,5.3254,5.3238,5.3196,5.3196,5.3196,5.3196,5.3196,5.3196,5.3303,5.3524,5.3535,5.3543,5.3574,5.3861,5.4192,5.4447,5.4735,5.5394,5.6408,5.5917,5.5903,5.6494,5.6794,5.7587,5.8829,5.9346,5.9756,6.0339,6.0614,6.08,6.08,6.08,6.08,6.08,6.08,6.08,6.08,6.08,6.08,6.08,6.08,6.08,6.08,6.08,6.08,6.08,6.08,6.08,6.08,6.08,6.08,6.08,6.08,6.08,6.08,6.08,6.08,6.08,6.08,6.08,6.08,6.08,6.08,6.08,6.08,6.08,6.08,6.0991,6.1255,6.1389,6.1425,6.1714,6.2189,6.2827,6.3324,6.3938,6.4705,6.5363,6.617,6.6584,6.6779,6.6857,6.6779,6.6677,6.6534,6.64,6.627,4.8315,4.8315,4.8315,4.8581,4.9187,5.0288,5.1059,5.1693,5.276,5.3222,5.3243,5.3328,5.3351,5.3371,5.3461,5.3538,5.3559,5.3578,5.3598,5.3599,5.3511,5.3509,5.3489,5.3369,5.3339,5.3349,5.3285,5.3264,5.3308,5.3324,5.3282,5.3251,5.3241,5.3272,5.3293,5.3272,5.338,5.3594,5.3739,5.3748,5.3776,5.4174,5.4463,5.4635,5.5221,5.6046,5.6893,5.6709,5.6876,5.7429,5.7747,5.8607,5.9819,6.0012,6.0242,6.0646,6.0781,6.08,6.08,6.08,6.08,6.08,6.08,6.08,6.08,6.08,6.08,6.08,6.08,6.08,6.08,6.08,6.08,6.08,6.08,6.08,6.08,6.08,6.08,6.08,6.08,6.08,6.08,6.08,6.08,6.08,6.08,6.08,6.08,6.08,6.08,6.08,6.08,6.08,6.0819,6.1137,6.1562,6.177,6.1905,6.2449,6.3003,6.3844,6.4499,6.5152,6.589,6.6012,6.6682,6.6747,6.6887,6.6887,6.6885,6.6761,6.661,6.6546,6.6409,4.8315,4.8315,4.8315,4.8324,4.8591,5.0124,5.0869,5.1118,5.2614,5.3318,5.3349,5.3459,5.3509,5.3501,5.3549,5.3617,5.3685,5.3695,5.3716,5.3716,5.361,5.3549,5.3519,5.341,5.342,5.3471,5.338,5.3339,5.3369,5.3439,5.343,5.3328,5.3318,5.3369,5.3439,5.3369,5.341,5.3621,5.387,5.3833,5.367,5.4242,5.4673,5.4811,5.5802,5.6671,5.7376,5.8044,5.839,5.8467,5.905,5.9819,6.0569,6.08,6.0748,6.08,6.08,6.08,6.08,6.08,6.08,6.08,6.08,6.08,6.08,6.08,6.08,6.08,6.08,6.08,6.08,6.08,6.08,6.08,6.08,6.08,6.08,6.08,6.08,6.08,6.08,6.08,6.08,6.08,6.08,6.08,6.08,6.08,6.08,6.08,6.08,6.0839,6.0916,6.1172,6.1287,6.1864,6.2329,6.2855,6.2936,6.3348,6.394,6.4767,6.5475,6.6165,6.6561,6.6741,6.6855,6.6875,6.6894,6.689,6.6846,6.6775,6.6718,6.665,6.6551,4.8315,4.8315,4.8315,4.8363,4.8668,5.0186,5.0934,5.1214,5.2738,5.3385,5.3479,5.3588,5.3646,5.3656,5.3687,5.3745,5.3755,5.3765,5.3793,5.3793,5.3765,5.3678,5.3656,5.3616,5.3616,5.3608,5.3509,5.3499,5.3578,5.3548,5.3481,5.344,5.344,5.3451,5.3499,5.3461,5.3621,5.3842,5.3953,5.4103,5.4292,5.4754,5.532,5.5954,5.6543,5.7536,5.8742,5.9685,5.98,5.93,5.9992,6.0512,6.0768,6.08,6.08,6.08,6.08,6.08,6.08,6.08,6.08,6.08,6.08,6.08,6.08,6.08,6.08,6.08,6.08,6.08,6.08,6.08,6.08,6.08,6.08,6.08,6.08,6.08,6.08,6.08,6.08,6.08,6.08,6.08,6.08,6.08,6.08,6.08,6.08,6.08,6.08,6.1075,6.1248,6.1595,6.1979,6.257,6.3203,6.3919,6.4193,6.4382,6.4977,6.5639,6.622,6.6799,6.6743,6.6844,6.6875,6.6894,6.6894,6.6894,6.6875,6.6836,6.6816,6.6775,6.665,4.8343,4.8382,4.8382,4.8448,4.8698,4.9914,5.0672,5.1302,5.243,5.3263,5.3534,5.3686,5.3735,5.3745,5.3793,5.3813,5.3813,5.3813,5.3813,5.3813,5.3803,5.3774,5.3735,5.3733,5.3705,5.3744,5.3646,5.3636,5.3675,5.3647,5.3609,5.3588,5.3588,5.3589,5.362,5.3599,5.3678,5.3916,5.4148,5.4384,5.4468,5.546,5.6001,5.6671,5.7387,5.8723,5.9935,6.0531,6.0531,6.0242,6.0512,6.08,6.08,6.08,6.08,6.08,6.08,6.08,6.08,6.08,6.08,6.08,6.08,6.08,6.08,6.08,6.08,6.08,6.08,6.08,6.08,6.08,6.08,6.08,6.08,6.08,6.08,6.08,6.08,6.08,6.08,6.08,6.08,6.08,6.08,6.08,6.08,6.08,6.08,6.0819,6.1031,6.1441,6.1787,6.2153,6.2749,6.3378,6.3775,6.4492,6.5018,6.5272,6.566,6.6215,6.6538,6.6834,6.6863,6.6894,6.6894,6.6894,6.6894,6.6894,6.6894,6.6855,6.6816,6.6804,6.6694,4.8391,4.8503,4.8504,4.855,4.8735,4.9501,5.0379,5.1202,5.2129,5.2954,5.3576,5.3765,5.3793,5.3813,5.3803,5.3813,5.3813,5.3813,5.3813,5.3813,5.3813,5.3803,5.3784,5.3754,5.3745,5.3793,5.3734,5.3715,5.3734,5.3755,5.3764,5.3706,5.3705,5.3735,5.3745,5.3725,5.3735,5.3898,5.4338,5.4657,5.4901,5.5979,5.6777,5.741,5.8677,5.9756,6.0473,6.08,6.0742,6.0781,6.08,6.08,6.08,6.08,6.08,6.08,6.08,6.08,6.08,6.08,6.08,6.08,6.08,6.08,6.08,6.08,6.08,6.08,6.08,6.08,6.08,6.08,6.08,6.08,6.08,6.08,6.08,6.08,6.08,6.08,6.08,6.08,6.08,6.08,6.08,6.08,6.0839,6.0973,6.1089,6.1268,6.1652,6.2185,6.2493,6.2762,6.3455,6.4185,6.4512,6.4954,6.5477,6.5828,6.6019,6.6418,6.662,6.6806,6.6865,6.6894,6.6894,6.6894,6.6894,6.6894,6.6894,6.6816,6.6755,6.6752,6.6678,4.8466,4.8494,4.855,4.8642,4.889,4.9611,5.0491,5.1371,5.2178,5.2967,5.3644,5.3803,5.3813,5.3813,5.3813,5.3813,5.3813,5.3813,5.3813,5.3813,5.3813,5.3813,5.3813,5.3774,5.3784,5.3803,5.3784,5.3774,5.3784,5.3784,5.3803,5.3774,5.3755,5.3784,5.3793,5.3784,5.3774,5.387,5.4229,5.4872,5.5549,5.6295,5.7421,5.8645,5.9867,6.0467,6.0723,6.08,6.08,6.08,6.08,6.08,6.08,6.08,6.08,6.08,6.08,6.08,6.08,6.08,6.08,6.08,6.08,6.08,6.08,6.08,6.08,6.08,6.08,6.08,6.08,6.08,6.08,6.08,6.08,6.08,6.08,6.08,6.08,6.08,6.08,6.08,6.08,6.08,6.08,6.08,6.0973,6.1166,6.1422,6.171,6.2326,6.2935,6.3339,6.3666,6.423,6.4852,6.5107,6.5306,6.5733,6.6091,6.631,6.6468,6.6607,6.6752,6.689,6.6894,6.6855,6.6894,6.6894,6.6894,6.6875,6.6777,6.6716,6.6713,6.6627,4.8559,4.8661,4.8678,4.8759,4.8904,4.9321,5.022,5.1305,5.1844,5.2698,5.3627,5.3813,5.3813,5.3813,5.3813,5.3813,5.3813,5.3813,5.3813,5.3813,5.3813,5.3813,5.3813,5.3813,5.3813,5.3813,5.3813,5.3813,5.3813,5.3813,5.3813,5.3813,5.3813,5.3803,5.3813,5.3813,5.3803,5.3898,5.4298,5.5024,5.5905,5.6931,5.818,5.9752,6.0556,6.08,6.08,6.08,6.08,6.08,6.08,6.08,6.08,6.08,6.08,6.08,6.08,6.08,6.08,6.08,6.08,6.08,6.08,6.08,6.08,6.08,6.08,6.08,6.08,6.08,6.08,6.08,6.08,6.08,6.08,6.08,6.08,6.08,6.08,6.08,6.08,6.08,6.08,6.08,6.0845,6.0883,6.1479,6.1691,6.1941,6.2287,6.3089,6.3705,6.4166,6.4609,6.5102,6.5492,6.5689,6.5771,6.5863,6.6102,6.628,6.6401,6.651,6.6641,6.6767,6.68,6.6797,6.6836,6.6853,6.6797,6.6758,6.6699,6.6645,6.6564,6.6462,4.8642,4.8796,4.8813,4.8839,4.89,4.8919,4.9773,5.1063,5.1361,5.2271,5.346,5.372,5.3813,5.3813,5.3813,5.3813,5.3813,5.3813,5.3813,5.3813,5.3813,5.3813,5.3803,5.3793,5.3784,5.3803,5.3813,5.3813,5.3813,5.3813,5.3813,5.3813,5.3813,5.3813,5.3813,5.3813,5.3813,5.3879,5.4566,5.5408,5.6379,5.7634,5.9112,6.0371,6.0742,6.08,6.08,6.08,6.08,6.08,6.08,6.08,6.08,6.08,6.08,6.08,6.08,6.08,6.08,6.08,6.08,6.08,6.08,6.08,6.08,6.08,6.08,6.08,6.08,6.08,6.08,6.08,6.08,6.08,6.08,6.08,6.08,6.08,6.08,6.08,6.08,6.08,6.08,6.08,6.0883,6.1095,6.1729,6.2287,6.2576,6.2999,6.382,6.4455,6.4916,6.514,6.5556,6.5703,6.5964,6.5992,6.5988,6.6105,6.6224,6.6299,6.6399,6.653,6.6615,6.6666,6.6708,6.6739,6.6739,6.6689,6.665,6.6633,6.6544,6.6418,6.6342,4.8769,4.8804,4.8848,4.8891,4.889,4.889,4.9466,5.0358,5.1119,5.1918,5.2847,5.3487,5.3813,5.3813,5.3813,5.3813,5.3813,5.3813,5.3813,5.3813,5.3813,5.3813,5.3803,5.3764,5.3736,5.3793,5.3803,5.3793,5.3813,5.3813,5.3813,5.3813,5.3813,5.3813,5.3813,5.3813,5.3813,5.3962,5.4801,5.5818,5.6933,5.8248,5.9466,6.0675,6.08,6.08,6.08,6.08,6.08,6.08,6.08,6.08,6.08,6.08,6.08,6.08,6.08,6.08,6.08,6.08,6.08,6.08,6.08,6.08,6.08,6.08,6.08,6.08,6.08,6.08,6.08,6.08,6.08,6.08,6.08,6.08,6.08,6.08,6.08,6.08,6.08,6.08,6.0819,6.0973,6.1268,6.1633,6.2287,6.3076,6.3672,6.407,6.4647,6.5186,6.5667,6.5768,6.5926,6.5919,6.6007,6.6027,6.6027,6.608,6.6176,6.62,6.6275,6.642,6.653,6.6605,6.6633,6.6652,6.6644,6.659,6.6586,6.6557,6.6457,6.6355,6.6316,4.8706,4.8796,4.8849,4.8865,4.89,4.8881,4.9355,5.0163,5.1008,5.1844,5.2642,5.3404,5.3813,5.3813,5.3813,5.3813,5.3813,5.3813,5.3813,5.3813,5.3813,5.3813,5.3813,5.3764,5.3745,5.3754,5.3745,5.3755,5.3803,5.3813,5.3803,5.3813,5.3813,5.3813,5.3813,5.3813,5.3813,5.4047,5.4929,5.6026,5.717,5.8695,6.0047,6.0556,6.08,6.08,6.08,6.08,6.08,6.08,6.08,6.08,6.08,6.08,6.08,6.08,6.08,6.08,6.08,6.08,6.08,6.08,6.08,6.08,6.08,6.08,6.08,6.08,6.08,6.08,6.08,6.08,6.08,6.08,6.08,6.08,6.08,6.08,6.08,6.08,6.08,6.0819,6.0921,6.1172,6.1614,6.2191,6.2845,6.3685,6.457,6.4974,6.532,6.5532,6.5865,6.5922,6.5971,6.6007,6.6036,6.6055,6.6066,6.6123,6.6144,6.6175,6.623,6.6321,6.6415,6.6491,6.6531,6.6558,6.6537,6.6513,6.6491,6.6447,6.6352,6.6287,6.6254,4.8661,4.8796,4.8813,4.8839,4.89,4.889,4.9234,4.994,5.0729,5.1565,5.2419,5.3162,5.3617,5.3766,5.3813,5.3813,5.3813,5.3813,5.3813,5.3813,5.3813,5.3813,5.3803,5.3793,5.3754,5.3735,5.3657,5.3686,5.3716,5.3755,5.3765,5.3774,5.3784,5.3813,5.3813,5.3813,5.3822,5.4354,5.509,5.6151,5.7637,5.922,6.0455,6.0771,6.08,6.08,6.08,6.08,6.08,6.08,6.08,6.08,6.08,6.08,6.08,6.08,6.08,6.08,6.08,6.08,6.08,6.08,6.08,6.08,6.08,6.08,6.08,6.08,6.08,6.08,6.08,6.08,6.08,6.08,6.08,6.08,6.08,6.08,6.08,6.08,6.08,6.0839,6.0941,6.1499,6.196,6.2724,6.3378,6.4224,6.5051,6.5416,6.5705,6.5769,6.5891,6.5922,6.5971,6.6011,6.6052,6.6088,6.6118,6.616,6.617,6.6185,6.6235,6.6254,6.63,6.6388,6.6415,6.6438,6.6404,6.6376,6.6384,6.6342,6.6273,6.625,6.6225,4.8796,4.8796,4.8856,4.89,4.889,4.889,4.8946,4.9179,4.9977,5.0729,5.1584,5.2438,5.3172,5.3683,5.3813,5.3813,5.3813,5.3813,5.3813,5.3813,5.3813,5.3813,5.3793,5.3725,5.3754,5.3735,5.3617,5.3529,5.3561,5.3667,5.3715,5.3724,5.3764,5.3803,5.3784,5.3784,5.4174,5.4853,5.5739,5.722,5.9013,5.9961,6.0417,6.0696,6.08,6.08,6.08,6.08,6.08,6.08,6.08,6.08,6.08,6.08,6.08,6.08,6.08,6.08,6.08,6.08,6.08,6.08,6.08,6.08,6.08,6.08,6.08,6.08,6.08,6.08,6.08,6.08,6.08,6.08,6.08,6.08,6.08,6.08,6.08,6.08,6.08,6.0877,6.0973,6.1672,6.2364,6.3147,6.3955,6.4801,6.5404,6.5743,6.5923,6.5929,6.5934,6.5946,6.5976,6.6009,6.6055,6.6096,6.6139,6.6205,6.6205,6.6205,6.6205,6.622,6.6254,6.6269,6.6296,6.6281,6.6254,6.6254,6.6282,6.6249,6.621,6.6205,6.6205,4.8697,4.8687,4.8795,4.8865,4.889,4.889,4.889,4.9076,4.9754,5.0293,5.0878,5.2067,5.3051,5.3683,5.3813,5.3813,5.3813,5.3813,5.3813,5.3813,5.3813,5.3813,5.3803,5.3755,5.3765,5.3716,5.3675,5.3588,5.3549,5.3549,5.3608,5.3675,5.3667,5.3668,5.3735,5.3735,5.4256,5.5161,5.6472,5.8096,5.9428,6.0116,6.0449,6.0769,6.0781,6.08,6.08,6.08,6.08,6.08,6.08,6.08,6.08,6.08,6.08,6.08,6.08,6.08,6.08,6.08,6.08,6.08,6.08,6.08,6.08,6.08,6.08,6.08,6.08,6.08,6.08,6.08,6.08,6.08,6.08,6.08,6.08,6.08,6.08,6.08,6.0839,6.1012,6.1339,6.2166,6.282,6.3416,6.4339,6.5288,6.5692,6.5851,6.596,6.5966,6.5958,6.5974,6.6009,6.603,6.6058,6.6107,6.6169,6.62,6.6205,6.6205,6.6205,6.6205,6.621,6.6205,6.6205,6.6195,6.622,6.6205,6.6185,6.6205,6.6205,6.6205,6.6205,4.8614,4.866,4.8768,4.8866,4.889,4.889,4.889,4.8974,4.9494,4.9903,5.0516,5.1844,5.3051,5.3664,5.3813,5.3813,5.3813,5.3813,5.3813,5.3813,5.3813,5.3813,5.3803,5.3793,5.3765,5.3724,5.3714,5.3657,5.3599,5.3549,5.3578,5.3646,5.3617,5.3617,5.3666,5.3749,5.414,5.5455,5.7189,5.865,5.9655,6.0019,6.0376,6.066,6.08,6.08,6.08,6.08,6.08,6.08,6.08,6.08,6.08,6.08,6.08,6.08,6.08,6.08,6.08,6.08,6.08,6.08,6.08,6.08,6.08,6.08,6.08,6.08,6.08,6.08,6.08,6.08,6.08,6.08,6.08,6.08,6.08,6.08,6.08,6.08,6.0935,6.1325,6.1806,6.2698,6.3333,6.3775,6.4647,6.5718,6.5947,6.599,6.5989,6.5982,6.5999,6.599,6.6013,6.6047,6.608,6.6118,6.6179,6.62,6.6205,6.6205,6.6205,6.6205,6.6205,6.6205,6.6205,6.6205,6.6205,6.6205,6.6205,6.6205,6.6205,6.6205,6.6205,4.8669,4.8796,4.8856,4.89,4.889,4.889,4.889,4.889,4.8983,4.9476,5.0274,5.1769,5.293,5.358,5.3757,5.3813,5.3813,5.3813,5.3813,5.3813,5.3813,5.3813,5.3813,5.3813,5.3803,5.3765,5.3735,5.3735,5.3716,5.3609,5.3549,5.3509,5.3568,5.3646,5.3777,5.396,5.4638,5.5972,5.7706,5.8925,5.9595,5.9942,6.0196,6.0666,6.08,6.08,6.08,6.08,6.08,6.08,6.08,6.08,6.08,6.08,6.08,6.08,6.08,6.08,6.08,6.08,6.08,6.08,6.08,6.08,6.08,6.08,6.08,6.08,6.08,6.08,6.08,6.08,6.08,6.08,6.08,6.08,6.08,6.08,6.08,6.08,6.1004,6.1324,6.1996,6.2823,6.3634,6.4115,6.489,6.5941,6.5964,6.6005,6.6009,6.6007,6.6007,6.5999,6.6005,6.6039,6.6112,6.6134,6.616,6.6175,6.6205,6.6205,6.6205,6.6205,6.6205,6.6205,6.6205,6.6205,6.6205,6.6205,6.6205,6.6205,6.6205,6.6205,6.6205,4.8623,4.8697,4.8848,4.889,4.889,4.889,4.889,4.889,4.8909,4.9336,5.0163,5.1342,5.2308,5.3004,5.3636,5.3813,5.3813,5.3813,5.3813,5.3813,5.3813,5.3813,5.3813,5.3813,5.3813,5.3803,5.3765,5.3755,5.3774,5.3697,5.3667,5.3627,5.3548,5.3528,5.3696,5.4537,5.5534,5.6386,5.7935,5.9279,5.9692,6.0042,6.0321,6.0734,6.08,6.08,6.08,6.08,6.08,6.08,6.08,6.08,6.08,6.08,6.08,6.08,6.08,6.08,6.08,6.08,6.08,6.08,6.08,6.08,6.08,6.08,6.08,6.08,6.08,6.08,6.08,6.08,6.08,6.08,6.08,6.08,6.0806,6.0806,6.0818,6.0823,6.0981,6.1249,6.2036,6.2876,6.3682,6.4454,6.5293,6.5965,6.6005,6.6044,6.6052,6.6074,6.6074,6.6091,6.6096,6.6123,6.6169,6.616,6.617,6.6175,6.6205,6.6205,6.6205,6.6205,6.6205,6.6205,6.6205,6.6205,6.6205,6.6205,6.6205,6.6205,6.6205,6.6205,6.6205,4.8633,4.8678,4.8829,4.889,4.889,4.889,4.889,4.889,4.889,4.9373,5.0144,5.1008,5.1844,5.2661,5.3423,5.3794,5.3813,5.3813,5.3813,5.3813,5.3813,5.3813,5.3813,5.3813,5.3813,5.3813,5.3813,5.3813,5.3803,5.3813,5.3754,5.3666,5.3538,5.3538,5.3967,5.5274,5.6273,5.6715,5.7983,5.9215,5.9597,5.995,6.0272,6.0591,6.0722,6.08,6.08,6.08,6.08,6.08,6.08,6.08,6.08,6.08,6.08,6.08,6.08,6.08,6.08,6.08,6.08,6.08,6.08,6.08,6.08,6.08,6.08,6.08,6.08,6.08,6.08,6.08,6.08,6.08,6.08,6.08,6.0818,6.0823,6.0835,6.0846,6.1048,6.126,6.2274,6.3171,6.422,6.4929,6.5523,6.6015,6.6049,6.6099,6.6137,6.6153,6.6169,6.6184,6.618,6.6194,6.6184,6.6189,6.6175,6.618,6.6205,6.6205,6.6205,6.6205,6.6205,6.6205,6.6205,6.6205,6.6205,6.6205,6.6205,6.6205,6.6205,6.6205,6.6205,4.866,4.8796,4.8865,4.8881,4.889,4.889,4.889,4.889,4.89,4.929,5.0033,5.0915,5.1732,5.2512,5.3255,5.3645,5.3813,5.3813,5.3813,5.3813,5.3813,5.3813,5.3813,5.3813,5.3813,5.3813,5.3813,5.3813,5.3813,5.3813,5.3764,5.3734,5.3675,5.3656,5.3843,5.5407,5.6159,5.6386,5.7872,5.8695,5.9361,5.975,6.0049,6.0449,6.0678,6.08,6.08,6.08,6.08,6.08,6.08,6.08,6.08,6.08,6.08,6.08,6.08,6.08,6.08,6.08,6.08,6.08,6.08,6.08,6.08,6.08,6.08,6.08,6.08,6.08,6.08,6.08,6.08,6.08,6.08,6.0818,6.0829,6.0846,6.0858,6.0891,6.1032,6.1359,6.2439,6.3524,6.4687,6.547,6.589,6.6085,6.6102,6.6142,6.6174,6.6184,6.6194,6.62,6.6205,6.6205,6.62,6.6205,6.6205,6.6205,6.6205,6.6205,6.6205,6.6205,6.6205,6.6205,6.6205,6.6205,6.6205,6.6205,6.6205,6.6205,6.6205,6.6205,6.6205,4.8587,4.8669,4.8777,4.8875,4.8881,4.889,4.889,4.889,4.8919,4.9067,4.9429,5.019,5.1008,5.1825,5.2679,5.3311,5.3757,5.3813,5.3813,5.3813,5.3813,5.3813,5.3813,5.3813,5.3813,5.3813,5.3813,5.3813,5.3813,5.3813,5.3793,5.3755,5.3754,5.3754,5.3975,5.4914,5.5603,5.6299,5.7403,5.8387,5.9436,5.975,6.0042,6.054,6.0728,6.08,6.08,6.08,6.08,6.08,6.08,6.08,6.08,6.08,6.08,6.08,6.08,6.08,6.08,6.08,6.08,6.08,6.08,6.08,6.08,6.08,6.08,6.08,6.08,6.08,6.08,6.08,6.08,6.08,6.0806,6.0835,6.0852,6.0888,6.0911,6.0946,6.1052,6.1503,6.2374,6.3092,6.4198,6.5178,6.5571,6.6018,6.6144,6.6155,6.6194,6.6194,6.62,6.6205,6.6205,6.6205,6.6205,6.6205,6.6205,6.6205,6.6205,6.6205,6.6205,6.6205,6.6205,6.6205,6.6205,6.6205,6.6205,6.6205,6.6205,6.6205,6.6205,6.6205,6.6205,4.8532,4.8605,4.8732,4.8759,4.8759,4.8847,4.889,4.889,4.889,4.889,4.9094,4.9782,5.0618,5.1454,5.2234,5.3023,5.3757,5.3813,5.3813,5.3813,5.3813,5.3813,5.3813,5.3813,5.3813,5.3813,5.3813,5.3813,5.3813,5.3813,5.3803,5.3803,5.3813,5.3765,5.4005,5.4628,5.5475,5.6273,5.7225,5.8199,5.918,5.9766,6.0049,6.0462,6.0696,6.08,6.08,6.08,6.08,6.08,6.08,6.08,6.08,6.08,6.08,6.08,6.08,6.08,6.08,6.08,6.08,6.08,6.08,6.08,6.08,6.08,6.08,6.08,6.08,6.08,6.08,6.08,6.0781,6.0781,6.0829,6.0858,6.0891,6.0927,6.0943,6.099,6.1108,6.1616,6.2148,6.2747,6.3511,6.4381,6.5193,6.5629,6.6059,6.6161,6.6185,6.6205,6.6205,6.6205,6.6205,6.6205,6.6205,6.6205,6.6205,6.6205,6.6205,6.6205,6.6205,6.6205,6.6205,6.6205,6.6205,6.6205,6.6205,6.6205,6.6205,6.6205,6.6205,6.6205,6.6205,4.8522,4.8605,4.8706,4.8587,4.8458,4.8678,4.882,4.8864,4.8881,4.889,4.8964,4.9745,5.0525,5.1416,5.2197,5.2967,5.3654,5.3794,5.3813,5.3813,5.3813,5.3813,5.3813,5.3813,5.3813,5.3813,5.3813,5.3813,5.3813,5.3813,5.3813,5.3813,5.3813,5.3793,5.4035,5.4443,5.5233,5.5976,5.6852,5.7835,5.8828,5.9593,5.9942,6.0293,6.0572,6.0722,6.0746,6.0752,6.0775,6.08,6.08,6.08,6.08,6.08,6.08,6.08,6.08,6.08,6.08,6.08,6.08,6.08,6.08,6.08,6.08,6.08,6.08,6.08,6.08,6.08,6.08,6.0787,6.0787,6.0829,6.0858,6.0891,6.0924,6.0953,6.0991,6.1017,6.1065,6.1437,6.1926,6.2491,6.2955,6.355,6.4338,6.4923,6.5412,6.6127,6.6147,6.6205,6.6205,6.6205,6.6205,6.6205,6.6205,6.6205,6.6205,6.6205,6.6205,6.6205,6.6205,6.6205,6.6205,6.6205,6.6205,6.6205,6.6205,6.6205,6.6205,6.6205,6.6205,6.6205,6.6205,4.8043,4.8276,4.7947,4.7927,4.8113,4.821,4.8364,4.856,4.8785,4.8881,4.8927,4.915,5.0079,5.1361,5.1658,5.2605,5.3348,5.3813,5.3813,5.3813,5.3813,5.3813,5.3813,5.3813,5.3813,5.3813,5.3813,5.3813,5.3813,5.3813,5.3813,5.3813,5.3813,5.3813,5.3887,5.4044,5.4676,5.5419,5.6283,5.7358,5.8427,5.9298,5.969,6.0057,6.0455,6.0597,6.0546,6.0678,6.074,6.08,6.08,6.08,6.08,6.08,6.08,6.08,6.08,6.08,6.08,6.08,6.08,6.08,6.08,6.08,6.08,6.08,6.08,6.08,6.08,6.08,6.0806,6.0812,6.0829,6.0858,6.0891,6.0941,6.0959,6.0986,6.1022,6.1046,6.1094,6.1191,6.1679,6.2066,6.253,6.2936,6.342,6.4043,6.474,6.5455,6.5934,6.5953,6.6205,6.6205,6.6205,6.6205,6.6205,6.6205,6.6205,6.6205,6.6205,6.6205,6.6205,6.6205,6.6205,6.6205,6.6205,6.6205,6.6205,6.6205,6.6205,6.6205,6.6205,6.6205,6.6205,4.7632,4.7682,4.7385,4.7403,4.7645,4.7757,4.7903,4.8104,4.8523,4.8767,4.8881,4.8909,4.9624,5.0766,5.1286,5.2104,5.3218,5.3664,5.3813,5.3813,5.3803,5.3813,5.3813,5.3803,5.3813,5.3813,5.3813,5.3813,5.3813,5.3813,5.3813,5.3813,5.3813,5.3813,5.3831,5.3887,5.4044,5.4787,5.5692,5.6836,5.793,5.8969,5.9475,5.9831,6.0265,6.0286,6.0314,6.0533,6.0635,6.0757,6.08,6.08,6.08,6.08,6.08,6.08,6.08,6.08,6.08,6.08,6.08,6.08,6.08,6.08,6.08,6.08,6.08,6.08,6.08,6.0806,6.0812,6.0829,6.0858,6.0886,6.0921,6.0969,6.0996,6.1036,6.1065,6.1084,6.1094,6.1094,6.1345,6.1732,6.195,6.2124,6.2491,6.3052,6.3864,6.4759,6.5262,6.5513,6.5895,6.6205,6.6127,6.5992,6.605,6.6069,6.6205,6.6205,6.6185,6.6205,6.6205,6.6205,6.6205,6.6205,6.6205,6.6205,6.6205,6.6205,6.6205,6.6205,6.6205,6.6205,6.6205,4.7259,4.6977,4.6977,4.7031,4.7129,4.7363,4.749,4.7547,4.8085,4.8532,4.8785,4.8838,4.932,5.0321,5.1045,5.1844,5.2819,5.3459,5.3793,5.3803,5.3745,5.3745,5.3765,5.3784,5.3745,5.3774,5.3793,5.3784,5.3803,5.3813,5.3813,5.3813,5.3813,5.3813,5.3813,5.3813,5.3924,5.4193,5.5291,5.6506,5.7595,5.8557,5.9277,5.9588,5.9807,5.9937,6.0128,6.0279,6.039,6.0591,6.074,6.0722,6.0781,6.08,6.08,6.08,6.08,6.08,6.08,6.08,6.08,6.08,6.08,6.08,6.08,6.08,6.08,6.0812,6.0812,6.0829,6.0841,6.088,6.0914,6.0927,6.0955,6.1001,6.1036,6.1065,6.108,6.1094,6.1094,6.1094,6.1133,6.1481,6.1519,6.1461,6.166,6.2196,6.282,6.3787,6.4372,6.4798,6.5127,6.5392,6.545,6.5412,6.574,6.5876,6.5953,6.6166,6.6166,6.6166,6.6205,6.6205,6.6205,6.6205,6.6205,6.6185,6.6166,6.6205,6.6205,6.6205,6.6185,6.6108,6.6205,4.6566,4.6624,4.6678,4.6818,4.7007,4.7093,4.7272,4.7493,4.7642,4.8015,4.8449,4.8606,4.9066,4.9998,5.0887,5.1714,5.2559,5.317,5.3671,5.3716,5.3678,5.3648,5.3676,5.3638,5.3657,5.3705,5.3734,5.3736,5.3793,5.3813,5.3813,5.3813,5.3813,5.3813,5.3813,5.3813,5.385,5.3877,5.4705,5.5784,5.6722,5.7716,5.8483,5.8989,5.9325,5.9554,5.9731,5.9804,5.9911,6.0042,6.03,6.0508,6.0769,6.0775,6.08,6.08,6.08,6.08,6.08,6.08,6.08,6.08,6.08,6.08,6.08,6.08,6.0806,6.0818,6.0835,6.0852,6.0886,6.093,6.0967,6.0971,6.0987,6.1022,6.1075,6.1084,6.1094,6.1094,6.1094,6.1094,6.1094,6.1094,6.1094,6.1133,6.1195,6.1485,6.1776,6.2491,6.3207,6.3657,6.4005,6.4256,6.4488,6.4701,6.4972,6.5165,6.5204,6.5571,6.5997,6.5818,6.5624,6.6031,6.6205,6.5876,6.5779,6.6108,6.6108,6.5876,6.5799,6.5624,6.5779,6.5804,6.6011,4.6119,4.6045,4.6198,4.6393,4.6637,4.6754,4.7002,4.7267,4.7272,4.7539,4.8015,4.8288,4.8763,4.9509,5.0378,5.1314,5.2113,5.2789,5.3317,5.3557,5.3599,5.3588,5.3558,5.3538,5.3568,5.3616,5.3694,5.3734,5.3784,5.3813,5.3813,5.3813,5.3813,5.3813,5.3813,5.3813,5.3813,5.3831,5.4333,5.4927,5.5819,5.6917,5.7788,5.8347,5.8762,5.9093,5.9361,5.9459,5.9616,5.9839,6.0138,6.0469,6.0696,6.08,6.08,6.08,6.08,6.08,6.08,6.08,6.0794,6.0783,6.0787,6.0787,6.0846,6.0852,6.0852,6.0863,6.0883,6.088,6.0935,6.0997,6.099,6.0987,6.1022,6.1075,6.1084,6.1089,6.1094,6.1094,6.1094,6.1094,6.1094,6.1094,6.1094,6.1094,6.1113,6.1118,6.1331,6.1466,6.2104,6.2607,6.3018,6.3521,6.3966,6.4082,6.4121,6.4295,6.443,6.4604,6.4836,6.4933,6.5044,6.5199,6.5199,6.4933,6.4991,6.532,6.5165,6.474,6.4798,6.4914,6.5146,6.5281,6.5146,4.5841,4.5498,4.5709,4.5988,4.6259,4.6506,4.6754,4.698,4.702,4.716,4.7493,4.8025,4.826,4.8772,4.9501,5.0481,5.1399,5.2221,5.2887,5.3432,5.3481,5.3459,5.3449,5.3449,5.3449,5.3499,5.3588,5.3705,5.3783,5.3783,5.3793,5.3803,5.3813,5.3813,5.3813,5.3813,5.3813,5.3813,5.4054,5.4258,5.5215,5.6347,5.7036,5.7612,5.8153,5.8716,5.8989,5.9206,5.9371,5.9622,5.9946,6.0395,6.0666,6.08,6.08,6.08,6.08,6.08,6.08,6.08,6.0771,6.0734,6.0763,6.0798,6.0839,6.0891,6.0891,6.0919,6.0919,6.0935,6.0989,6.103,6.1021,6.1022,6.107,6.1094,6.1094,6.1094,6.1094,6.1094,6.1094,6.1094,6.1094,6.1094,6.1094,6.1094,6.1094,6.1094,6.1133,6.121,6.1543,6.1911,6.224,6.2767,6.3173,6.3212,6.3096,6.3424,6.354,6.3598,6.3753,6.414,6.4256,6.4043,6.3966,6.4043,6.4043,6.4237,6.3947,6.3792,6.4082,6.4334,6.4275,6.4295,6.3908,4.5611,4.5722,4.5786,4.6075,4.6483,4.6578,4.676,4.6986,4.7009,4.7054,4.7205,4.7504,4.7903,4.842,4.921,5.0144,5.1119,5.1818,5.2658,5.3388,5.3339,5.3326,5.3326,5.3334,5.3287,5.3359,5.3479,5.3579,5.3686,5.3724,5.3745,5.3775,5.3793,5.3803,5.3813,5.3813,5.3813,5.3813,5.3813,5.398,5.4166,5.5196,5.6255,5.6942,5.7639,5.8192,5.8569,5.8774,5.8843,5.9054,5.9554,6.0187,6.0553,6.0763,6.08,6.08,6.08,6.08,6.08,6.074,6.0672,6.0585,6.0628,6.0707,6.0785,6.0883,6.0916,6.0957,6.0986,6.0986,6.1021,6.1051,6.1075,6.1075,6.1094,6.1094,6.1094,6.1094,6.1094,6.1094,6.1094,6.1094,6.1094,6.1094,6.1094,6.1094,6.1094,6.1094,6.1094,6.1094,6.1094,6.135,6.1621,6.1427,6.1582,6.1892,6.195,6.2336,6.2685,6.2781,6.3076,6.3637,6.3657,6.3192,6.3328,6.356,6.3521,6.3154,6.3347,6.3308,6.3618,6.3792,6.3618,6.3347,6.298]}]]